ECMWFNIL_925_spd_000.txt.gz
Wind_Speed
14 14 14 15 15 15 15 14 13 12 13 14 15 15 15 15 14 14 14 14 15 17 18 19 19 20 21 21 22 23 23 22 22 24 24 24 25 26 28 29 29 29
11 13 14 15 16 16 15 14 14 12 11 12 13 14 15 15 15 14 15 16 16 17 18 19 20 20 21 22 22 22 23 24 25 26 25 25 26 26 27 28 29 30
9 10 12 13 14 15 15 14 13 12 12 12 12 13 14 14 14 14 14 15 16 17 18 19 19 20 20 21 22 23 24 25 26 27 27 27 27 27 27 28 29 29
8 8 10 11 12 13 14 14 12 11 12 13 13 13 13 13 14 14 15 16 18 19 19 19 19 19 20 20 21 22 24 26 26 27 27 27 28 28 29 28 28 29
8 8 10 12 13 14 14 13 12 11 12 13 14 14 13 13 14 16 17 18 20 20 20 20 20 19 19 20 20 21 23 24 26 27 27 28 29 29 30 29 28 29
8 9 10 13 15 15 15 13 11 10 12 13 14 14 14 14 15 17 18 19 20 21 20 20 21 21 20 20 20 21 22 23 25 27 27 29 30 30 31 31 30 30
9 10 10 13 16 17 16 13 12 12 13 14 14 14 15 15 16 17 18 19 20 20 20 22 22 23 23 22 21 21 22 23 26 27 28 29 30 31 31 32 32 31
10 11 11 14 16 17 17 15 14 14 15 16 16 15 15 16 17 18 19 19 20 20 21 23 24 25 25 25 23 23 24 24 25 26 28 29 30 31 32 31 32 32
11 12 12 14 15 16 17 16 15 15 15 16 16 16 16 16 16 18 20 21 20 21 22 24 26 26 26 25 25 25 25 26 26 26 28 29 30 32 33 32 32 32
12 13 13 14 15 15 16 16 16 15 15 16 16 16 16 17 17 18 21 23 23 24 24 25 26 27 27 27 26 26 27 28 28 27 28 29 31 33 32 32 32 32
13 14 14 14 15 15 16 16 16 15 15 15 16 17 18 18 18 19 21 24 25 26 26 26 27 27 28 28 27 27 28 28 27 26 26 27 29 32 33 32 32 33
14 14 14 14 16 17 17 17 17 17 16 16 16 18 19 19 19 20 23 25 25 25 26 26 29 29 26 24 25 25 27 28 26 25 25 24 25 28 32 33 32 32
14 14 14 15 16 17 18 18 18 18 18 18 18 19 19 18 18 20 23 24 24 25 25 25 28 28 23 22 24 26 28 30 28 27 25 23 23 25 28 31 30 30
14 14 15 15 16 17 18 18 19 19 19 20 20 20 19 18 18 19 21 22 23 23 23 25 27 26 22 22 26 29 31 33 32 29 26 24 24 23 25 29 31 31
14 15 15 16 16 17 17 17 18 19 20 21 21 20 19 18 17 19 20 21 22 21 21 24 25 23 21 22 26 31 34 35 34 30 26 25 24 24 24 26 30 31
15 15 15 16 16 17 17 17 18 19 20 21 21 19 19 18 18 19 19 20 21 20 19 21 22 20 20 22 26 32 34 34 33 31 27 25 24 24 24 25 27 30
14 15 15 16 17 18 18 18 18 19 20 21 20 19 19 19 19 19 18 18 19 18 17 18 20 19 17 21 27 31 32 31 31 31 30 27 25 25 25 24 25 27
15 16 16 16 16 17 18 18 18 18 19 19 19 18 18 18 18 18 17 17 16 15 15 17 19 18 16 21 27 29 29 29 29 30 30 29 25 23 25 25 25 27
16 18 19 17 16 17 18 18 18 18 18 18 17 17 17 18 18 17 17 16 14 13 12 12 16 17 17 22 25 26 27 27 28 28 28 27 26 21 19 21 22 26
17 19 19 17 15 17 18 18 17 17 16 16 15 15 17 18 17 16 16 15 14 13 13 11 13 15 17 21 23 25 25 24 25 27 27 26 24 22 20 19 18 20
18 19 18 16 16 18 19 17 16 16 16 15 15 15 16 16 15 15 15 15 15 14 14 13 12 13 15 19 21 22 23 23 25 27 28 26 24 24 24 24 23 22
18 18 16 16 18 19 18 17 15 15 16 15 14 14 14 14 14 14 16 17 16 14 13 13 11 10 13 17 20 21 21 21 23 25 27 26 25 25 27 26 26 27
17 16 17 18 18 18 17 16 15 15 15 15 14 12 11 12 13 14 15 18 17 13 12 12 12 11 13 15 18 20 19 19 21 23 25 26 25 26 27 26 27 28
15 15 16 17 17 16 15 14 14 14 14 13 13 12 9 10 13 14 15 17 18 14 11 12 13 14 13 14 16 18 18 17 18 20 22 23 24 26 28 27 27 30
14 14 14 14 14 14 13 13 13 12 11 12 13 11 8 8 11 13 14 16 17 16 13 11 13 14 12 12 15 17 16 15 17 18 19 20 21 25 27 28 28 32
13 12 12 12 12 13 13 12 10 9 9 10 11 11 9 9 10 11 13 14 15 16 15 12 11 12 11 11 13 15 15 14 14 15 17 18 18 21 24 26 28 32

ECMWFNIL_925_spd_003.txt.gz
Wind_Speed
9 10 11 12 12 12 12 10 8 8 9 9 9 10 11 12 13 13 13 14 14 13 12 12 12 14 14 16 16 16 19 21 21 22 23 23 24 25 24 25 27 29
9 9 10 11 12 13 13 12 9 7 8 9 9 9 10 11 11 12 13 14 15 15 14 12 11 12 13 14 16 17 19 21 22 23 24 25 26 26 26 27 29 29
8 8 9 10 11 13 14 14 12 9 8 9 9 9 10 10 10 12 13 14 15 15 14 13 12 12 12 13 15 16 17 19 21 22 24 26 26 28 30 29 30 31
7 7 7 8 10 12 14 15 13 10 9 9 9 10 10 10 10 12 13 14 15 14 13 13 13 13 13 14 15 16 16 17 19 20 22 25 26 27 29 30 31 33
7 6 7 8 9 11 13 14 13 11 10 10 10 11 11 11 11 12 12 14 13 12 13 14 14 14 15 15 16 17 18 17 17 17 19 22 23 23 25 29 31 32
7 7 8 9 10 12 13 14 14 12 12 12 12 13 13 12 13 12 12 13 13 12 14 15 16 16 17 17 17 18 19 20 19 19 19 21 24 24 24 27 31 33
8 8 9 10 12 13 14 14 14 13 12 13 13 13 13 13 14 14 14 14 14 13 15 16 17 17 18 18 18 19 20 20 21 22 22 22 25 25 23 24 28 30
9 9 10 12 13 14 14 14 14 14 13 13 13 14 13 14 14 15 15 15 14 14 16 17 17 17 18 18 18 18 18 19 20 21 23 24 25 27 27 25 23 26
10 10 11 13 14 14 15 15 15 15 15 14 14 14 14 14 15 16 17 15 13 14 16 17 17 16 16 17 18 17 17 19 21 22 24 25 26 28 29 27 24 25
11 11 12 13 14 14 15 15 15 16 16 15 15 15 15 15 15 16 17 15 13 14 16 17 16 14 15 17 17 17 18 21 24 25 27 28 28 29 29 27 25 25
11 12 13 13 13 14 14 15 15 15 16 16 15 15 16 16 16 16 16 15 13 14 17 18 16 14 16 17 16 16 19 22 25 26 28 29 29 29 29 28 26 26
12 13 14 14 14 14 15 15 15 15 16 16 15 15 16 17 17 16 16 16 15 15 17 18 16 14 16 16 15 17 20 23 24 25 27 27 26 27 29 29 27 27
14 14 15 15 16 16 16 16 16 15 15 15 16 16 17 17 17 16 16 17 17 17 17 16 14 13 13 12 14 18 21 23 24 24 26 26 25 26 28 28 27 27
15 15 15 16 17 17 16 16 16 17 17 17 17 17 17 17 16 17 17 18 19 18 16 13 11 11 12 12 14 19 21 23 24 25 27 28 27 26 27 28 28 27
15 15 16 16 17 17 17 16 17 17 18 18 18 18 17 17 16 17 18 19 19 17 13 10 9 9 12 14 15 18 20 23 25 26 27 28 26 26 26 26 27 26
15 15 16 16 17 18 18 17 17 17 19 20 19 18 18 17 17 17 18 18 18 15 11 8 8 9 12 13 14 17 19 22 24 25 26 25 24 25 25 25 25 23
16 16 17 17 18 19 18 16 17 18 20 20 19 18 17 16 16 17 18 18 17 15 11 7 8 10 12 13 14 16 18 20 21 23 25 24 24 26 25 24 25 23
18 18 19 18 19 19 17 15 16 19 20 19 17 16 15 14 16 17 18 17 16 15 11 8 9 10 10 11 14 15 16 18 19 22 24 22 23 26 25 23 23 23
19 20 20 19 18 19 16 15 17 19 19 18 16 14 14 14 16 16 15 15 16 16 13 9 9 9 9 10 12 14 15 17 18 21 22 22 22 23 23 22 23 24
20 21 21 19 18 17 16 16 17 18 18 16 14 14 14 14 15 14 14 14 15 17 14 10 9 9 9 9 11 14 16 16 17 18 20 21 21 20 21 22 22 23
21 21 20 19 17 16 16 16 17 17 16 15 14 14 14 14 14 12 13 13 14 16 15 10 9 9 9 10 12 15 17 16 15 16 19 20 19 19 20 21 21 22
20 19 19 17 15 14 14 15 15 15 15 14 14 15 15 15 14 12 12 12 11 14 15 11 9 9 9 11 13 14 16 15 13 14 17 18 19 21 22 22 23 24
19 18 17 15 13 12 13 13 14 15 15 14 14 15 15 16 14 12 11 11 10 12 13 12 12 11 10 11 11 12 14 14 12 12 16 18 19 22 24 25 26 26
17 16 15 13 12 12 12 12 13 14 14 13 13 13 14 14 13 12 11 10 10 10 11 12 13 12 11 10 10 10 12 13 11 12 14 17 19 21 24 25 26 27
14 14 14 12 11 12 12 12 13 13 11 10 11 12 13 13 13 13 13 12 12 12 11 12 12 12 12 11 10 11 11 12 12 12 13 17 19 21 23 25 25 28
14 14 13 12 12 12 13 13 13 11 9 9 10 10 12 13 14 15 15 15 15 15 13 12 11 11 12 11 11 12 12 13 14 13 13 16 18 20 23 25 25 26

ECMWFNIL_925_spd_006.txt.gz
Wind_Speed
2 2 2 2 2 2 3 4 5 6 6 6 7 7 7 8 8 8 8 8 8 8 8 7 8 9 10 10 11 11 12 14 15 16 19 19 19 22 22 22 24 24
2 2 2 2 2 2 3 4 5 6 7 7 7 7 7 8 8 9 9 8 8 8 8 8 8 8 9 9 10 11 11 13 14 14 15 16 18 20 20 22 26 28
3 2 2 3 3 3 4 5 6 6 7 7 7 7 8 9 10 10 9 9 9 9 8 8 9 9 10 10 11 11 11 12 13 14 15 16 16 18 19 20 23 25
3 3 3 3 3 4 5 5 6 7 7 7 8 8 9 9 10 10 10 10 10 10 9 9 10 11 11 12 12 12 12 13 14 14 15 17 17 18 19 18 19 23
4 3 3 4 4 5 6 6 7 8 8 8 8 9 10 10 11 11 11 11 12 12 11 11 12 12 12 12 12 13 13 13 14 14 15 17 18 19 20 19 19 22
4 4 4 5 5 6 6 6 7 8 8 8 8 9 10 10 11 12 12 13 13 14 14 14 14 14 13 12 12 12 12 13 14 15 16 17 18 20 21 21 22 23
5 5 5 6 6 6 7 7 7 8 8 8 9 9 10 11 12 12 13 14 14 15 15 15 15 14 14 12 12 12 13 14 15 15 17 18 19 21 22 23 24 25
6 6 6 7 7 7 8 8 8 8 9 9 9 10 10 11 12 13 13 14 15 15 14 14 14 14 12 11 11 12 13 14 15 16 18 19 21 21 22 25 27 28
7 7 7 7 8 8 8 8 8 8 9 9 10 11 11 12 13 13 14 14 14 14 13 13 13 13 13 11 11 12 14 15 16 17 18 19 22 23 23 24 26 27
8 7 8 8 8 8 8 8 9 9 9 10 11 12 12 13 13 14 14 14 13 13 13 13 13 13 13 12 11 12 13 14 15 16 18 20 22 23 24 24 24 26
9 8 8 9 8 8 8 9 9 9 10 11 11 12 13 13 14 14 14 13 13 13 13 13 13 13 12 11 11 11 12 13 14 15 17 20 22 24 25 25 25 26
9 9 9 9 9 8 8 9 10 10 11 11 12 13 13 14 14 14 14 14 13 13 13 13 13 12 12 11 10 10 11 12 13 15 17 19 22 24 25 25 25 25
9 9 9 9 9 8 9 10 10 11 12 13 13 14 14 14 15 15 15 14 14 13 14 13 12 12 11 10 9 9 11 12 12 14 16 18 21 24 24 25 25 25
10 9 9 9 9 9 10 11 11 12 13 13 14 15 15 15 15 16 15 15 14 13 13 12 11 11 10 9 8 9 10 11 12 14 16 19 21 23 23 24 24 25
10 9 9 9 9 9 10 12 12 13 13 14 14 15 15 15 15 15 15 15 14 12 11 11 10 10 9 9 8 8 9 11 13 14 16 18 20 22 23 24 24 23
10 10 10 10 10 11 11 12 13 13 13 13 14 15 15 15 14 14 14 13 13 12 10 10 9 9 10 11 9 9 10 12 13 14 15 16 18 21 23 24 24 23
11 11 11 11 11 12 13 13 13 13 12 13 14 14 14 13 13 13 13 12 12 11 10 9 9 10 12 12 9 9 11 12 13 14 15 15 16 19 23 24 24 24
12 12 12 13 13 13 14 14 13 13 13 14 15 14 13 13 13 13 13 11 10 10 9 9 9 11 14 13 10 10 12 13 14 13 13 15 15 17 20 22 23 24
12 12 13 14 13 14 15 14 13 13 14 14 14 13 13 13 13 13 12 11 10 9 9 10 10 11 14 14 12 12 13 13 13 13 12 14 14 15 17 19 22 25
12 13 13 14 13 14 14 13 12 13 14 13 13 12 13 13 13 13 12 11 11 10 10 10 10 11 13 14 13 12 13 13 13 13 12 13 13 14 17 19 21 24
12 12 13 13 13 13 12 12 12 12 12 12 11 12 12 13 13 13 13 12 12 11 12 12 11 12 13 14 14 13 14 14 14 13 12 12 13 14 18 22 23 24
11 12 12 12 12 12 12 11 11 11 11 11 11 12 12 12 13 13 13 13 12 12 13 13 12 12 13 13 14 14 15 15 14 13 13 13 13 15 19 23 24 25
10 11 12 12 12 12 11 10 11 11 11 10 10 11 12 12 13 13 13 13 13 13 14 14 13 13 13 14 14 14 16 16 15 13 14 14 13 15 20 23 24 26
10 11 11 11 11 11 11 11 11 11 11 10 11 12 13 13 14 15 17 17 16 16 16 16 16 15 13 13 13 14 15 17 16 15 15 15 13 15 21 24 24 25
10 10 10 10 10 11 11 10 9 9 10 10 11 12 12 13 14 15 18 19 20 20 18 17 18 16 13 12 12 12 14 16 16 15 15 16 15 17 22 24 23 23
9 10 10 10 11 11 10 8 6 7 7 6 7 9 9 10 12 12 14 18 21 23 22 21 19 15 12 12 12 11 12 15 15 14 15 16 16 16 21 23 21 22

ECMWFNIL_925_spd_009.txt.gz
Wind_Speed
4 4 4 4 4 4 4 5 6 7 8 9 9 9 9 9 9 9 9 9 9 10 10 10 10 10 11 11 11 11 12 12 12 11 11 12 13 15 16 17 16 17
5 5 5 5 5 5 5 5 6 8 8 9 9 9 10 10 10 10 10 10 10 10 11 11 10 10 11 12 12 12 13 12 12 11 11 12 13 15 16 17 17 17
6 6 6 6 5 5 5 6 6 8 8 9 9 9 9 10 10 10 11 11 11 11 11 11 11 11 11 12 12 12 12 12 12 12 12 12 12 14 16 16 17 18
6 6 6 6 6 5 5 6 7 7 8 8 9 9 10 10 11 11 11 11 11 12 12 12 12 12 12 12 12 12 12 12 12 11 12 13 14 15 16 16 17 18
7 6 6 6 6 6 6 7 7 8 8 8 8 8 9 10 11 11 11 11 12 12 12 12 12 12 12 12 13 12 12 12 12 12 13 14 14 15 16 16 17 19
7 7 7 7 7 7 7 8 8 8 9 9 9 8 9 10 11 11 11 12 12 13 13 13 13 12 12 12 12 12 12 12 13 13 13 13 14 15 15 16 18 19
7 7 8 7 8 8 8 8 8 9 9 10 9 9 10 10 11 11 12 12 12 13 13 13 13 12 12 12 11 12 12 12 13 13 14 14 14 14 15 17 19 20
8 8 8 8 8 8 9 9 9 9 10 10 10 10 10 10 11 12 12 13 13 13 13 13 13 13 12 11 11 12 12 12 13 13 14 15 15 17 18 18 20 21
8 8 8 8 9 9 10 9 9 9 10 9 10 10 11 11 11 12 13 14 14 14 13 12 12 12 12 11 11 11 11 11 13 13 15 16 17 18 19 18 20 22
8 8 8 9 9 9 10 10 10 10 9 8 9 11 11 11 12 12 13 14 14 14 13 12 12 12 12 12 11 11 12 12 12 13 15 16 16 17 18 18 20 21
9 9 8 9 9 9 10 10 10 10 9 9 11 11 11 12 12 12 12 13 14 14 13 12 11 12 13 13 13 12 13 14 13 13 15 15 15 16 17 18 19 20
9 9 9 9 9 9 10 10 10 10 11 11 11 11 12 13 13 13 13 13 14 15 14 13 12 12 12 13 13 12 12 13 14 14 14 15 15 15 16 17 17 18
9 9 9 9 9 9 10 10 10 11 11 12 12 13 14 15 14 14 14 14 15 15 15 14 12 12 12 11 12 12 12 12 14 14 14 15 15 14 15 15 16 17
9 8 8 9 9 9 10 10 10 10 11 12 13 14 14 14 15 15 15 15 16 15 14 13 13 12 11 11 11 11 12 13 14 14 16 16 15 14 14 14 14 15
8 8 8 9 10 10 10 10 10 11 11 12 13 14 14 14 15 16 16 16 15 14 13 14 15 13 11 11 12 12 12 13 14 16 17 16 15 14 14 13 12 13
9 9 9 9 10 10 10 11 11 11 12 12 13 14 14 15 15 15 16 16 15 14 13 15 15 12 12 13 15 15 15 14 15 17 17 16 16 15 14 14 12 13
9 9 10 10 10 11 11 12 12 12 12 13 13 14 15 15 15 15 15 15 15 14 14 13 13 12 13 14 15 18 19 17 16 17 17 16 16 15 15 14 13 15
10 10 10 11 11 12 12 13 13 13 13 13 13 13 14 14 14 14 15 15 14 14 13 13 13 13 12 12 13 17 19 19 18 18 18 17 16 15 15 15 14 16
11 11 11 11 11 12 12 13 13 13 13 12 12 12 12 13 14 14 14 15 14 12 13 14 13 13 11 11 13 16 19 20 20 19 19 18 17 17 16 15 15 16
12 12 12 11 11 12 13 13 13 12 12 12 12 11 12 12 13 14 14 14 12 11 13 14 14 13 14 15 16 16 18 20 21 21 20 19 19 19 17 16 15 16
13 13 12 11 12 12 12 13 13 12 11 11 11 11 11 11 12 12 12 11 11 11 12 13 13 14 16 17 18 17 17 18 21 21 20 21 22 21 19 17 17 18
14 13 12 12 12 12 12 12 12 12 11 11 11 10 10 10 10 10 10 10 10 10 10 11 13 15 17 18 19 18 17 17 18 18 18 20 22 20 17 17 17 19
15 13 12 12 11 12 12 12 12 12 11 11 11 10 10 10 10 9 9 10 10 9 9 11 13 15 17 19 19 18 18 19 16 15 17 21 23 21 17 16 18 20
14 13 12 12 11 12 12 11 12 12 12 11 11 11 11 11 11 10 10 10 10 9 10 12 13 14 16 20 20 17 19 20 17 14 17 23 26 23 16 14 17 21
13 12 12 12 12 12 11 11 12 12 12 12 12 12 12 12 11 11 11 11 10 10 11 11 11 12 15 19 19 16 17 20 19 16 17 21 26 23 17 15 17 20
13 12 12 12 12 11 11 12 13 12 13 13 13 13 13 12 11 12 12 12 11 11 11 9 8 11 16 19 18 15 14 17 19 17 15 17 21 21 20 18 17 18

ECMWFNIL_925_spd_012.txt.gz
Wind_Speed
6 6 5 5 5 5 5 5 6 6 7 8 9 9 9 9 9 9 9 9 9 9 9 9 9 9 9 8 9 10 11 11 12 12 12 12 13 14 14 15 15 15
7 7 6 5 5 6 6 6 6 6 7 8 9 10 10 10 9 9 9 10 10 10 10 9 10 10 9 10 10 11 11 11 11 12 11 11 12 13 14 14 15 15
8 7 7 7 7 7 6 6 6 7 8 8 9 10 10 9 9 10 10 11 11 11 11 10 10 10 10 10 11 11 11 11 11 11 10 11 12 13 14 14 14 14
9 9 8 8 7 7 6 6 7 7 8 8 8 9 9 10 10 11 11 12 12 12 12 12 12 11 11 11 11 11 11 10 10 9 10 11 12 12 13 13 13 14
10 10 9 8 8 7 7 7 7 7 8 8 9 9 9 10 10 11 12 12 12 12 12 13 12 12 12 12 12 12 11 10 9 9 10 11 11 11 11 12 12 14
10 10 9 9 8 8 8 8 7 7 8 9 9 10 10 10 11 11 12 12 12 13 13 13 13 12 12 11 12 11 11 10 10 9 10 11 11 10 11 11 12 14
10 10 9 9 9 9 9 8 8 9 10 10 11 11 10 11 12 12 12 13 13 13 13 14 14 14 13 12 11 11 11 11 10 10 11 12 12 11 11 11 12 13
10 10 10 10 10 9 9 9 10 12 12 12 12 11 10 11 11 12 12 13 14 14 15 15 15 15 14 13 12 12 11 11 10 10 11 12 12 12 11 11 11 13
10 11 10 10 10 10 10 10 11 13 13 14 13 11 10 11 11 12 13 14 15 15 15 15 16 16 15 14 13 13 13 13 13 12 11 12 12 11 11 11 11 12
11 11 11 10 10 11 10 10 11 12 11 10 11 11 12 13 12 13 14 15 15 14 14 15 15 16 15 14 14 14 15 15 15 14 13 13 12 11 11 11 11 12
12 12 11 11 11 10 10 10 11 11 9 9 11 12 13 13 12 11 13 15 14 13 14 15 15 16 17 17 15 14 15 16 16 16 15 14 13 12 12 11 11 11
13 13 12 12 12 11 10 10 10 10 11 11 11 10 10 11 11 13 15 15 14 14 14 14 14 16 19 19 17 15 15 16 16 17 16 15 14 13 13 12 12 11
14 14 13 12 11 11 10 10 10 10 10 11 11 11 11 12 13 14 15 15 16 15 14 14 15 18 19 18 16 17 18 17 17 17 18 17 16 15 15 14 14 12
14 13 13 12 11 11 10 10 10 10 10 11 12 12 12 12 13 14 15 16 18 17 16 17 16 15 16 16 15 16 16 16 16 17 18 18 17 17 17 16 15 14
13 13 12 12 12 12 11 11 11 11 11 11 12 12 12 13 14 14 15 17 17 16 16 15 12 10 13 14 15 16 16 15 15 16 17 18 18 17 17 17 16 15
14 13 13 13 13 13 12 12 12 11 12 12 13 13 13 14 14 14 15 16 15 15 15 12 10 12 13 12 12 14 16 15 15 17 18 18 18 17 17 18 17 16
16 15 15 14 14 14 13 13 13 13 13 14 14 14 14 14 14 14 14 14 14 15 13 11 13 15 13 12 11 11 13 15 15 16 17 17 17 17 17 18 18 18
18 17 17 16 16 15 15 14 14 14 14 15 15 14 14 14 14 13 13 14 14 14 13 12 15 16 14 13 13 11 12 15 15 16 17 17 17 16 17 19 19 20
19 19 18 18 18 17 16 15 15 15 15 15 14 14 13 13 13 13 14 14 14 14 14 14 15 16 14 13 13 12 13 16 17 18 18 18 17 17 17 18 19 20
21 21 20 19 18 17 16 15 15 15 15 15 14 13 13 14 13 13 13 13 12 13 14 14 13 14 13 12 11 12 13 14 17 20 19 18 18 18 18 18 18 20
24 23 22 20 18 17 16 16 16 16 16 15 14 14 14 14 13 12 13 13 12 12 12 12 12 11 11 12 11 11 12 13 15 19 19 19 19 18 17 17 18 20
25 24 22 20 17 16 16 16 16 16 16 15 15 15 15 15 14 13 14 15 15 14 13 12 11 11 12 12 12 11 13 14 15 16 17 18 19 17 17 19 20 20
24 22 20 18 17 16 16 16 15 15 15 16 16 16 16 16 16 15 16 16 17 16 14 13 13 12 13 13 12 13 14 15 15 14 14 16 18 18 19 22 22 20
21 20 18 18 17 16 15 14 14 15 15 15 17 17 17 16 16 16 17 17 18 17 16 15 13 13 14 13 13 14 15 13 13 12 12 15 18 19 19 21 21 20
19 19 18 17 16 16 15 14 14 14 14 15 17 18 17 17 18 18 19 19 19 18 16 15 13 13 12 11 13 15 13 10 10 10 11 13 16 17 18 18 19 18
18 18 18 17 16 15 14 14 14 14 14 14 17 18 17 18 18 18 20 20 18 17 17 16 15 13 9 8 12 13 11 9 9 9 10 12 14 15 16 16 16 15

ECMWFNIL_925_spd_015.txt.gz
Wind_Speed
12 10 8 7 6 6 6 6 5 4 5 4 4 4 4 5 6 5 4 4 5 6 5 5 6 6 7 6 6 7 7 7 7 6 8 7 6 6 7 7 8 7
13 11 9 8 7 7 8 7 5 5 5 4 5 5 4 3 3 3 4 5 6 7 6 6 6 7 7 7 7 7 7 8 7 7 7 6 5 7 8 8 9 8
13 11 11 10 9 8 7 7 6 6 5 5 6 5 3 3 3 4 5 6 7 7 7 7 8 8 8 7 7 8 9 9 8 8 7 6 6 7 8 7 8 8
14 13 12 11 9 8 8 8 7 7 6 6 6 5 5 5 5 6 6 6 7 8 8 8 8 9 9 8 8 9 10 10 9 8 7 8 8 7 7 7 7 9
16 14 13 12 10 9 9 9 8 7 7 7 8 8 7 6 6 7 8 7 7 8 8 9 9 9 9 9 9 10 10 10 10 9 9 9 9 8 8 7 8 9
16 16 15 14 12 11 11 11 10 9 9 10 10 10 9 8 8 9 9 8 8 9 9 9 10 10 10 10 10 11 11 10 10 10 10 10 9 9 8 7 7 8
17 17 16 14 13 13 12 11 11 11 11 12 12 11 10 10 10 10 9 9 9 10 11 10 10 11 11 11 12 11 10 10 10 11 11 10 9 9 9 7 7 7
19 18 17 15 14 14 13 12 12 12 12 13 13 13 13 13 12 11 10 10 11 13 13 12 11 10 10 11 12 12 10 10 10 11 12 12 11 11 10 8 7 8
20 19 18 16 15 15 14 13 12 13 14 14 14 14 14 14 14 12 11 12 14 15 15 14 12 11 10 10 11 12 11 10 11 11 13 13 12 11 10 9 8 8
20 20 18 17 16 15 14 13 13 14 14 13 12 12 13 14 13 11 11 13 15 16 17 16 14 13 11 10 12 13 14 14 13 12 12 12 12 11 11 10 10 10
21 20 19 18 17 16 15 14 13 13 11 9 7 5 7 7 6 7 9 10 12 12 12 13 13 13 12 12 13 15 15 15 14 13 12 12 12 12 12 11 10 11
21 21 19 18 18 17 15 14 14 13 11 9 6 4 5 6 7 9 9 9 10 9 8 10 11 11 12 13 15 16 16 15 15 14 14 14 14 13 12 12 12 13
22 22 20 20 19 17 15 14 13 12 11 10 10 9 10 10 9 9 9 10 11 11 11 12 13 14 14 15 16 16 15 16 15 14 13 13 14 13 13 13 14 15
24 23 22 21 19 17 14 14 13 13 13 13 14 14 14 13 10 9 10 12 13 14 15 15 15 16 15 15 16 14 13 14 15 14 13 13 14 14 14 15 16 16
26 24 23 21 19 17 15 15 15 15 15 16 17 17 15 14 13 12 13 14 15 16 14 13 14 15 14 14 15 13 11 11 12 13 13 13 14 15 15 16 16 16
27 26 24 21 20 19 18 18 17 17 16 16 16 16 15 15 15 15 15 16 16 16 13 12 14 15 14 14 13 11 11 11 12 12 12 13 15 16 16 16 17 17
27 26 24 22 21 20 19 20 19 17 16 16 16 16 17 17 18 17 16 16 17 16 15 15 17 17 15 15 14 13 13 13 13 13 13 14 16 16 16 16 17 18
27 26 24 23 22 22 21 21 19 18 17 17 18 18 19 19 19 19 18 17 17 17 16 16 17 17 17 16 15 14 14 13 13 13 15 17 18 17 17 16 17 19
26 26 26 26 25 25 24 22 21 20 20 20 20 20 20 21 21 20 18 17 17 16 16 16 17 18 18 17 15 14 12 11 13 15 16 18 19 18 18 17 17 19
30 29 28 28 28 27 25 23 22 21 21 21 20 20 21 21 20 19 19 19 18 16 16 16 17 18 16 15 13 12 10 11 13 15 17 18 19 19 19 18 18 18
32 31 30 30 29 28 26 24 23 22 22 21 21 21 21 21 20 19 18 18 17 15 14 16 19 18 16 13 11 10 11 13 14 16 19 21 20 19 20 19 18 18
33 32 31 29 27 26 25 23 23 23 22 21 21 22 22 21 20 19 18 18 16 15 15 17 17 16 13 11 10 11 12 12 14 17 20 20 19 18 18 18 18 18
32 31 29 27 25 24 24 24 23 23 22 22 23 23 23 22 22 20 17 14 12 11 12 13 13 13 12 11 11 13 12 11 14 17 18 17 16 16 18 18 18 18
30 30 29 26 24 23 23 24 23 23 24 23 22 22 22 21 18 12 9 9 9 10 12 13 13 14 15 14 12 11 10 11 14 15 14 13 14 15 17 17 17 16
29 29 28 26 25 26 26 25 24 24 23 21 21 20 18 14 11 8 8 10 12 14 15 15 14 15 15 15 11 7 9 12 12 12 11 11 13 15 16 17 18 17
28 28 27 25 23 20 19 21 23 22 19 18 16 12 8 8 9 11 11 11 13 14 15 15 14 15 14 11 8 6 9 11 9 8 9 10 12 15 17 19 19 17

ECMWFNIL_925_spd_018.txt.gz
Wind_Speed
19 19 19 17 15 14 13 13 13 12 10 9 9 8 7 7 7 6 5 5 6 6 6 6 6 6 6 6 5 6 6 6 6 5 5 6 5 4 3 3 4 4
21 20 19 17 15 14 14 13 12 11 10 10 9 7 7 7 7 6 6 7 8 7 6 5 6 7 7 6 6 7 7 7 8 7 7 7 6 6 6 6 5 5
23 22 21 18 16 15 14 13 11 10 10 10 8 7 8 8 7 7 7 7 7 7 6 6 6 6 7 7 7 7 8 9 9 8 8 8 8 8 8 7 7 6
24 23 21 19 16 14 14 13 12 12 11 10 9 8 9 9 8 7 6 6 5 5 5 6 6 6 6 6 7 8 9 9 10 9 9 9 9 10 10 9 8 7
25 24 21 18 16 14 13 13 13 13 12 10 9 9 10 10 9 8 7 6 5 5 5 5 5 6 7 7 7 8 9 10 11 10 10 11 10 11 11 10 10 9
26 24 21 18 16 15 14 14 14 13 12 11 11 11 10 10 11 11 10 8 7 7 7 6 6 6 7 8 9 9 10 11 11 10 11 12 12 12 12 12 12 12
27 24 21 19 17 16 16 16 15 13 12 12 12 12 11 12 13 13 11 10 10 10 10 10 9 8 8 8 8 9 10 11 12 11 12 13 13 13 14 13 13 14
27 25 22 20 19 18 17 16 15 14 13 13 13 13 13 13 14 15 14 13 13 12 12 12 13 12 11 10 9 10 11 11 12 13 13 13 13 14 16 15 13 14
28 26 23 22 21 20 18 16 15 13 12 13 13 12 13 14 16 16 16 15 15 14 14 14 15 15 15 13 12 12 12 12 13 14 14 14 14 15 16 15 13 14
28 26 24 23 23 21 18 16 14 12 12 12 12 12 14 16 17 17 16 16 16 16 15 15 15 15 16 16 15 15 15 14 14 15 16 16 16 15 15 14 13 14
28 26 25 25 24 22 19 17 14 12 12 13 13 14 14 13 14 14 14 14 14 14 14 13 11 11 13 15 16 16 16 16 15 15 16 17 17 16 15 15 15 15
29 27 27 26 25 22 19 18 15 13 14 15 15 14 12 12 12 12 12 12 11 11 11 10 9 10 11 12 13 15 16 17 17 16 16 16 16 15 14 14 15 16
30 29 27 26 24 21 19 18 16 15 16 18 16 13 13 14 14 13 12 12 11 10 10 9 10 12 13 13 14 15 16 17 18 18 17 16 16 15 14 13 14 14
31 29 26 24 22 21 19 19 18 17 18 19 17 16 15 15 14 13 12 11 11 10 10 11 12 13 14 14 15 16 16 17 18 18 18 16 16 16 15 14 14 14
30 28 26 24 23 21 21 22 20 19 19 21 20 20 19 18 16 15 12 11 10 11 12 13 13 13 14 14 14 15 16 16 17 18 18 18 17 16 16 15 15 15
30 28 26 25 24 21 21 23 22 21 22 23 23 22 21 19 17 16 14 12 11 11 13 14 14 15 15 15 16 16 16 16 17 18 18 18 19 18 18 17 16 16
30 28 26 25 22 20 23 26 25 23 24 25 24 23 21 20 18 16 14 13 12 13 13 15 16 17 17 17 17 17 17 17 17 18 18 19 20 20 20 20 19 19
30 27 24 21 20 22 26 29 27 25 26 26 25 24 21 20 18 16 15 14 14 15 16 17 18 18 18 18 18 17 16 17 17 17 17 18 19 20 21 21 21 22
29 26 20 17 22 29 32 31 29 29 28 27 25 23 21 19 18 16 15 15 15 16 19 21 20 20 19 18 18 17 16 16 16 16 16 17 18 19 20 20 21 22
28 25 21 20 28 35 35 32 31 30 29 27 25 22 20 19 18 16 16 15 15 16 19 22 23 21 19 18 18 17 16 16 16 16 16 17 18 18 20 21 21 21
27 25 25 28 33 36 36 34 32 30 29 27 23 21 20 19 17 17 17 18 18 18 17 19 21 21 19 18 17 17 17 16 17 17 17 17 18 19 20 19 18 17
28 25 24 29 33 34 34 33 31 30 29 25 21 19 19 18 17 17 18 20 19 17 16 16 18 19 18 18 18 18 18 17 17 17 16 16 18 19 17 15 14 15
31 27 23 26 32 34 34 33 31 29 27 22 19 18 19 19 19 18 18 20 19 18 18 18 18 18 18 18 17 17 18 18 17 16 15 16 18 18 15 13 13 14
33 28 24 27 32 35 34 31 28 27 25 22 20 20 21 19 16 14 16 18 19 19 18 18 18 18 17 17 16 16 17 17 15 14 13 15 17 16 13 12 13 13
33 28 26 28 33 35 31 26 24 24 22 21 20 21 20 15 11 12 15 17 17 17 17 18 18 17 16 17 16 15 14 13 12 11 13 14 14 13 13 13 14 15
30 27 26 28 32 31 25 21 21 20 18 18 18 18 17 14 11 13 15 16 16 16 16 16 15 14 14 14 13 10 10 10 9 10 11 12 13 13 14 16 16 16

ECMWFNIL_925_spd_021.txt.gz
Wind_Speed
27 26 25 23 21 19 19 18 17 17 17 16 14 12 11 11 11 10 8 7 8 8 7 7 7 7 7 6 5 5 6 6 6 6 7 8 7 7 8 8 8 8
27 26 25 22 21 20 19 18 17 16 16 15 13 12 12 12 12 11 9 9 8 8 8 8 7 7 7 7 6 6 7 8 9 8 9 10 9 10 10 10 9 10
29 27 25 23 22 20 19 17 16 16 16 14 13 12 12 12 12 11 10 9 9 9 10 9 8 8 8 8 8 9 9 10 10 10 11 11 11 11 12 12 11 11
30 28 25 23 22 21 19 17 17 16 15 14 13 12 13 13 12 12 10 10 10 10 10 10 10 10 10 10 10 10 10 11 11 11 12 13 12 12 13 13 13 13
31 28 25 23 23 21 19 18 18 17 16 15 14 14 14 14 14 13 12 10 10 9 9 9 10 11 12 11 11 11 11 12 12 12 13 14 14 13 13 14 14 15
30 28 26 24 23 21 20 19 19 18 17 16 15 15 15 15 15 14 13 11 10 9 9 9 10 10 11 11 12 12 13 13 13 13 14 15 15 14 14 15 16 17
31 28 27 26 24 22 21 19 19 19 18 16 16 16 16 17 16 15 14 12 11 11 11 11 12 12 11 11 12 12 13 13 13 14 15 16 16 16 16 16 18 19
30 29 28 27 25 24 21 20 20 20 18 17 17 17 17 18 17 15 14 14 13 13 13 14 15 15 14 14 14 13 13 14 14 15 16 17 17 17 17 17 18 19
31 30 29 28 26 25 22 20 20 20 19 19 18 17 18 18 17 16 16 16 16 16 16 17 17 17 17 17 17 17 16 16 15 15 16 17 18 18 18 18 19 20
33 31 30 29 27 25 23 21 20 20 20 19 19 19 19 19 17 17 18 18 18 18 19 19 19 19 18 18 18 19 19 18 17 17 17 17 17 18 19 19 20 21
34 32 31 30 28 26 24 22 21 21 21 20 20 20 20 18 17 18 19 20 20 20 20 19 18 17 16 15 14 15 16 17 18 17 18 17 17 18 18 18 19 20
34 33 31 30 30 28 25 23 22 21 21 21 22 21 20 18 17 18 20 20 20 19 18 17 15 13 12 11 11 12 13 15 16 17 17 17 17 17 17 17 18 19
32 33 33 32 31 29 26 24 22 22 21 22 22 21 19 18 18 19 19 19 18 16 16 15 14 12 11 11 12 12 13 14 15 16 16 17 17 17 16 17 18 18
33 33 33 33 31 28 26 24 24 22 21 21 22 21 20 20 19 19 19 17 16 15 15 15 13 12 12 12 13 14 14 15 15 15 16 17 17 17 17 17 18 18
39 36 33 32 30 28 26 25 25 22 21 23 25 24 23 21 20 20 18 16 15 14 15 15 14 14 14 14 14 15 15 15 15 15 16 17 18 18 18 18 18 18
36 32 30 30 29 27 26 27 26 23 23 27 29 27 24 23 22 21 19 16 14 13 13 13 13 14 14 14 15 16 16 16 15 16 17 18 19 19 20 20 19 19
25 23 24 27 28 27 26 26 25 26 29 31 30 27 25 24 23 22 20 17 14 13 13 13 13 13 13 15 16 16 17 17 16 17 17 19 20 20 20 20 20 20
22 24 24 25 26 25 23 22 25 31 34 32 30 27 25 24 24 23 21 18 16 16 16 16 16 15 15 15 16 16 17 17 17 17 18 19 20 19 19 19 19 20
31 31 26 25 25 22 21 22 28 36 36 33 30 27 24 24 24 24 22 19 18 18 18 18 18 17 17 17 17 16 16 16 16 17 19 20 20 19 19 18 19 20
36 34 30 30 27 24 24 26 31 36 36 32 29 25 23 23 24 24 23 21 20 19 19 19 19 18 18 17 17 17 15 15 16 17 19 20 20 20 20 20 19 20
36 34 34 33 29 28 29 30 33 36 34 30 27 25 23 24 24 24 23 21 20 20 19 20 20 19 17 17 16 16 14 14 16 17 19 21 21 22 21 20 18 18
37 32 31 32 31 31 32 32 33 34 32 29 26 24 23 23 24 23 22 21 20 20 21 21 20 19 18 17 16 14 14 15 16 17 19 21 22 22 21 20 18 16
37 31 32 34 33 32 32 33 31 31 31 28 24 23 23 23 23 23 21 21 21 22 22 21 20 19 17 16 15 14 15 16 17 18 18 20 21 21 20 20 19 16
38 37 39 38 35 34 34 32 29 29 28 25 22 23 24 25 25 23 22 22 22 20 19 18 18 17 16 15 14 14 15 16 17 17 18 18 19 19 19 20 19 17
37 40 41 39 37 36 33 29 27 26 26 24 22 24 25 25 24 22 21 20 18 16 15 16 17 16 14 14 14 14 15 16 16 16 16 17 17 18 19 19 18 16
37 40 41 38 37 34 28 25 24 24 24 23 22 24 24 23 21 19 19 18 15 13 12 13 15 14 13 13 14 15 15 15 15 16 16 16 16 17 19 18 16 16

ECMWFNIL_925_spd_024.txt.gz
Wind_Speed
32 30 29 28 27 27 26 24 23 22 21 19 18 17 16 15 14 13 14 15 13 11 10 10 10 9 8 8 8 7 7 7 6 6 7 7 7 7 7 8 8 8
32 31 30 29 28 27 26 24 23 22 20 19 18 17 16 15 14 14 15 15 13 11 12 11 11 10 9 9 9 8 8 8 7 7 8 9 9 9 9 9 9 10
33 32 31 30 29 28 26 24 22 21 19 18 18 17 16 15 15 15 16 15 13 12 12 12 12 11 10 10 10 9 9 9 9 9 10 11 11 11 11 10 10 11
35 34 32 30 29 28 25 23 22 20 19 18 17 17 16 15 15 16 16 15 14 13 12 13 13 13 11 11 11 11 11 11 11 11 12 12 12 12 12 12 12 12
36 34 32 30 28 27 25 24 22 20 19 17 16 16 15 15 16 16 16 15 14 13 13 14 14 13 13 12 12 13 12 12 12 12 13 13 13 13 13 13 13 13
36 34 32 29 27 26 25 23 21 20 18 17 16 16 16 16 17 17 16 15 14 13 13 13 13 13 12 12 13 13 12 12 12 13 14 14 14 14 14 14 15 15
35 34 32 29 27 25 24 22 21 19 18 17 17 17 17 18 18 17 16 15 15 14 13 13 13 13 12 12 13 13 13 13 13 14 14 14 14 14 15 16 17 17
36 34 32 29 27 25 23 21 20 19 17 18 18 18 18 19 18 17 17 17 17 16 15 14 14 14 14 14 14 15 15 15 15 15 15 15 15 15 15 16 18 19
35 34 32 30 28 26 22 20 20 19 18 19 19 18 19 18 17 18 18 18 18 18 17 16 17 17 16 16 17 17 18 18 18 18 17 17 17 17 17 17 18 20
34 33 33 32 31 27 23 21 21 20 19 21 20 19 19 18 17 18 19 19 20 19 19 19 19 19 19 18 19 19 19 19 19 19 20 20 20 19 19 18 19 20
34 36 36 33 30 26 22 22 23 22 21 21 21 20 18 17 18 19 20 21 22 21 20 20 21 21 21 20 19 18 17 16 16 17 18 19 19 19 19 19 19 20
35 32 27 23 22 21 20 22 24 23 22 21 21 20 19 18 19 20 21 23 23 22 22 22 22 22 21 20 18 15 14 13 12 14 15 15 17 17 18 19 19 19
24 19 19 20 22 21 21 25 27 25 23 22 21 20 20 21 22 23 23 23 24 23 22 22 21 21 19 17 15 13 12 11 12 13 14 14 15 16 17 18 18 19
23 24 30 33 31 28 29 29 29 28 24 22 21 22 22 23 24 25 24 23 24 22 20 19 18 18 17 15 14 13 12 12 12 13 13 14 14 15 16 17 18 18
36 40 40 37 34 34 34 32 32 30 26 23 23 23 23 24 26 27 25 23 23 21 19 18 17 18 17 16 16 15 14 14 13 14 14 14 15 16 17 18 18 18
42 42 39 38 37 37 36 34 32 30 27 25 24 23 23 24 27 28 26 24 23 20 19 19 18 18 17 16 16 16 15 15 15 16 17 17 17 17 18 19 18 18
39 38 36 35 33 33 33 31 30 30 29 27 25 24 26 28 28 27 26 25 23 21 20 20 19 18 16 14 14 14 15 16 17 18 19 19 19 19 18 19 18 17
38 34 30 30 29 29 30 30 30 29 28 27 25 26 29 30 29 27 27 26 24 23 23 22 20 18 16 15 15 15 16 18 19 19 19 19 19 19 19 19 19 18
35 30 29 28 26 23 26 28 28 28 27 27 27 28 30 30 30 29 28 27 25 24 25 24 21 19 17 17 17 18 18 19 20 19 18 18 17 18 19 19 20 21
29 28 29 29 27 26 26 25 24 26 26 26 27 30 31 30 30 29 28 27 27 26 26 25 23 21 19 19 19 19 18 17 17 17 16 16 16 17 18 19 21 21
27 28 29 29 32 33 28 24 24 27 26 26 30 31 30 29 29 29 28 28 28 26 26 26 24 22 20 20 19 18 16 15 14 14 14 15 15 16 18 19 20 19
30 30 29 30 31 32 29 27 29 31 30 31 31 30 29 28 28 28 28 28 28 27 27 26 25 22 21 20 18 16 15 14 13 14 14 15 16 17 17 17 17 16
33 33 32 32 34 34 33 33 34 34 34 32 28 26 26 26 26 26 26 26 27 27 27 26 24 22 19 18 17 15 15 14 14 15 15 16 16 16 17 16 14 14
34 32 32 34 36 36 35 35 35 34 32 29 25 23 25 25 25 25 25 26 28 28 26 25 23 20 17 16 15 14 14 14 15 15 15 15 16 15 15 15 13 13
34 32 32 35 37 36 36 36 35 31 28 26 24 24 24 24 24 24 26 28 29 28 26 23 21 17 14 13 13 13 14 14 15 15 15 14 14 14 14 14 13 13
35 34 35 37 37 36 36 35 33 30 27 25 24 24 24 24 24 24 26 28 28 27 24 21 18 15 12 11 12 13 15 15 14 14 14 13 13 13 13 14 14 14

ECMWFNIL_925_spd_027.txt.gz
Wind_Speed
36 35 34 32 32 30 28 27 26 26 26 26 24 22 20 19 17 16 15 14 14 14 14 13 11 10 9 8 8 8 7 6 6 6 6 5 5 5 5 6 6 7
37 36 35 33 32 30 28 27 25 25 25 25 24 22 20 18 17 16 15 14 14 15 15 14 12 11 10 9 10 10 9 8 7 7 7 7 7 7 7 7 7 8
37 36 35 34 32 30 28 27 24 24 25 24 23 21 19 18 17 17 16 15 15 16 16 14 13 13 12 10 10 10 10 9 8 8 8 8 8 9 8 8 8 9
37 37 36 33 32 30 28 26 24 24 25 24 22 20 18 18 18 17 16 15 16 17 16 14 13 13 13 11 11 11 10 10 10 10 10 10 10 10 10 10 10 11
35 35 35 33 31 29 26 25 24 25 25 24 22 20 19 18 18 18 16 16 17 17 16 15 14 14 13 13 12 11 11 11 11 11 12 11 10 11 11 11 12 12
35 35 35 33 31 29 26 24 24 25 25 24 22 20 19 19 19 18 17 17 18 17 16 15 14 14 14 14 13 12 12 11 11 12 12 11 10 11 11 12 14 14
35 35 33 32 29 27 26 25 25 25 25 23 21 19 19 20 19 18 17 17 18 17 16 15 14 14 14 13 13 12 13 13 13 13 13 12 12 12 13 13 14 15
32 33 31 30 29 28 27 25 25 26 24 22 21 20 19 20 19 17 17 17 17 17 16 15 14 14 13 13 13 13 13 14 14 14 14 15 15 15 15 15 15 16
32 33 32 32 33 32 29 27 26 26 24 23 22 21 20 18 17 17 17 17 17 16 15 14 15 14 15 15 15 15 15 16 16 17 17 18 18 18 18 17 16 16
31 33 34 35 35 33 30 28 27 25 24 22 21 20 19 17 16 17 18 18 17 16 15 15 16 17 18 18 18 17 18 19 19 19 19 18 19 19 18 17 16 16
32 34 36 35 34 32 30 29 27 25 23 22 21 19 16 15 16 18 19 20 19 17 17 17 17 19 20 21 21 20 19 20 20 19 17 16 16 16 16 15 15 15
35 35 35 35 35 33 32 31 29 26 24 22 20 16 14 17 19 20 21 21 20 18 19 19 20 20 23 23 22 21 21 20 19 18 16 14 14 14 14 14 14 15
35 35 36 35 34 33 33 31 29 26 25 23 20 15 16 19 20 21 23 22 21 21 21 22 21 21 23 24 23 22 21 20 18 17 15 15 15 15 14 14 15 15
35 35 37 35 33 33 33 32 30 27 25 23 20 17 17 18 19 23 25 23 23 23 23 23 22 22 24 25 23 21 19 19 18 17 16 16 15 14 14 15 15 16
33 31 34 36 37 38 37 36 34 31 28 26 23 20 18 17 21 26 28 26 25 24 23 23 23 23 24 23 20 18 18 18 19 18 17 16 15 15 15 15 16 16
29 25 32 36 37 37 35 33 32 30 29 29 25 23 22 20 24 28 29 28 26 24 24 25 24 23 23 20 18 17 17 18 18 18 17 17 16 16 17 17 17 18
26 26 32 34 31 29 29 31 33 32 32 30 27 25 25 24 27 28 27 26 25 24 25 26 26 25 22 19 18 17 17 17 17 18 17 17 18 18 19 19 19 19
26 28 32 32 29 30 33 39 40 37 35 32 29 29 29 28 29 28 26 26 26 27 27 27 28 26 22 20 19 17 16 16 17 18 18 19 20 21 21 21 20 19
26 30 32 32 33 37 41 41 38 35 35 32 30 30 30 31 31 29 28 29 29 30 29 28 27 25 22 22 21 18 17 17 18 19 20 21 22 22 22 22 21 20
26 31 34 34 37 42 43 38 33 34 33 31 30 31 31 33 32 31 31 31 31 31 29 28 28 26 24 24 23 20 18 19 20 20 20 21 21 21 21 21 19 19
29 34 37 37 39 43 42 35 33 34 34 33 33 33 33 34 33 32 32 32 31 30 27 27 28 26 24 24 24 22 20 20 21 20 20 20 19 18 19 20 19 19
31 36 38 37 39 41 39 35 34 34 34 36 34 32 32 34 33 33 33 32 30 28 26 27 28 26 25 25 25 24 22 21 20 20 19 19 17 17 19 20 20 18
33 34 34 36 39 39 35 34 35 33 31 32 31 28 29 32 32 32 32 30 28 27 27 28 28 26 25 25 25 25 23 21 20 18 17 18 17 17 19 19 18 16
33 33 33 37 40 37 32 30 30 28 27 29 29 27 28 30 31 30 30 29 27 27 28 28 28 26 25 24 25 24 21 19 17 16 16 17 17 18 19 19 17 14
31 32 34 38 39 37 32 27 25 24 24 26 28 28 28 29 29 27 27 27 27 27 27 27 26 25 24 23 22 21 19 17 16 15 16 17 16 15 17 16 14 11
28 31 34 37 39 39 34 28 24 22 23 24 26 26 25 26 26 24 22 21 22 22 23 24 25 25 24 22 19 17 16 15 15 16 16 15 13 12 11 10 9 7

ECMWFNIL_925_spd_030.txt.gz
Wind_Speed
22 21 20 20 19 19 18 16 16 15 14 14 13 12 13 12 12 11 11 10 9 9 9 9 8 8 6 5 5 5 5 5 4 4 4 4 4 4 4 4 4 5
23 21 20 19 18 18 17 17 17 16 14 14 14 12 12 12 12 11 11 10 10 9 9 9 9 8 7 6 6 6 6 5 5 5 5 5 5 5 5 5 5 6
24 22 21 20 19 19 18 18 17 15 14 14 14 12 11 11 12 11 11 10 10 9 9 10 9 8 7 6 6 6 6 6 6 5 5 5 5 6 6 6 6 7
25 23 22 22 21 20 18 18 16 15 14 14 13 12 11 11 11 11 11 11 10 9 9 10 9 8 7 7 7 7 7 7 7 6 6 6 6 6 7 7 7 7
25 25 24 22 21 19 18 17 16 14 14 14 13 12 12 11 10 11 11 11 11 10 9 9 9 8 8 8 8 8 8 8 8 7 7 7 6 7 6 6 7 7
25 26 25 22 19 18 18 18 17 15 15 14 13 13 13 12 12 12 12 12 11 10 9 9 9 8 8 9 9 9 8 8 7 7 8 7 6 6 6 6 7 7
27 26 24 21 18 18 19 18 18 18 17 16 16 16 16 14 13 13 13 12 10 10 9 8 8 9 9 10 10 10 9 8 8 8 8 8 7 7 7 7 8 9
27 24 22 20 19 20 21 20 20 21 21 20 19 19 18 17 15 15 14 13 12 11 11 10 10 11 10 11 11 11 10 10 9 9 9 9 9 9 9 9 10 12
25 22 21 20 20 22 24 23 23 23 25 25 22 20 20 20 18 18 18 17 17 17 15 13 13 13 12 12 12 11 11 11 10 10 10 10 10 11 11 12 12 14
23 22 22 21 22 25 27 26 25 25 27 27 24 22 22 23 21 21 22 22 21 20 18 16 15 14 13 13 12 12 12 12 12 11 11 11 12 12 13 14 14 14
23 23 23 23 26 29 30 28 25 25 28 29 26 24 24 25 25 24 25 25 24 22 19 18 17 15 14 13 13 13 13 14 13 12 11 12 13 14 14 14 14 15
24 24 24 26 30 31 30 28 26 26 29 31 30 27 26 26 27 28 27 27 27 24 21 21 19 16 15 14 14 13 14 15 15 14 13 13 14 14 14 14 14 15
26 25 25 28 32 31 29 29 28 28 30 32 31 28 27 27 28 29 29 29 29 26 23 23 21 17 17 17 16 15 16 17 18 17 15 14 15 14 14 14 14 14
25 25 25 29 32 30 28 29 28 27 28 30 30 29 29 30 30 29 30 30 29 27 24 22 21 19 20 21 21 21 20 19 19 17 15 14 15 14 14 14 15 15
23 23 24 29 32 29 27 27 28 28 29 31 33 31 30 31 31 30 31 32 29 26 23 22 22 23 24 24 24 22 20 18 17 16 15 15 15 14 14 15 15 15
23 23 23 28 31 29 26 26 28 32 35 38 39 34 30 30 31 30 31 30 29 27 24 23 24 25 25 25 23 21 19 17 16 15 14 15 15 15 15 15 15 15
23 23 25 28 31 30 27 28 30 35 38 41 40 37 34 32 31 30 27 25 25 25 25 25 25 25 25 25 23 22 21 20 17 14 14 15 15 15 15 15 15 15
23 25 28 29 30 29 28 28 32 35 37 37 36 36 35 32 30 28 24 22 22 21 22 24 25 25 26 24 23 22 22 22 18 15 14 15 15 15 15 14 14 14
23 26 30 31 30 30 28 27 29 32 33 31 29 29 29 28 26 24 22 21 21 21 23 24 24 25 24 22 23 23 23 22 20 17 15 15 15 15 14 14 13 13
23 25 28 30 30 30 29 28 26 27 28 26 24 24 25 25 22 20 18 18 21 23 23 20 19 21 23 22 24 24 23 23 22 19 17 17 17 15 14 14 12 11
24 25 27 29 29 28 29 29 27 25 24 23 23 24 24 24 21 17 16 19 22 22 19 17 16 18 20 21 23 24 23 22 22 21 19 18 17 16 14 13 11 11
25 26 28 29 28 27 28 30 29 26 23 20 20 22 24 26 24 20 19 23 24 20 17 18 17 17 18 19 22 24 23 22 23 22 19 18 17 16 13 11 11 12
25 27 27 27 27 28 29 30 29 25 22 21 21 21 22 23 22 21 20 22 22 21 20 19 17 15 16 19 21 23 23 22 21 19 18 18 16 14 12 10 11 12
24 25 25 26 27 29 28 28 27 23 22 27 26 21 19 19 20 19 19 20 23 24 22 19 16 15 17 19 21 22 22 21 18 17 17 17 13 12 12 13 13 15
22 23 25 25 27 28 27 27 25 21 21 26 25 19 17 19 20 20 19 21 25 25 22 18 15 14 16 19 19 19 19 18 16 14 15 14 11 11 12 13 12 14
21 22 23 25 25 25 25 23 20 18 18 20 19 19 19 20 21 22 22 23 24 23 19 16 13 14 16 18 18 18 17 17 16 14 13 13 11 11 12 12 12 12

ECMWFNIL_925_spd_033.txt.gz
Wind_Speed
22 21 20 20 20 19 18 17 16 15 15 14 14 13 13 13 12 12 11 11 10 9 9 9 9 8 7 6 6 6 5 5 5 5 5 5 5 4 4 4 4 4
23 22 21 20 20 19 19 18 18 17 15 15 15 14 13 13 13 13 12 12 11 11 11 10 10 10 8 7 7 6 6 6 6 5 5 6 6 5 6 6 6 5
25 23 23 22 21 20 20 19 18 17 16 16 16 15 14 14 14 14 13 12 12 11 11 11 11 11 10 8 8 8 7 7 7 6 6 6 6 6 7 6 6 6
26 25 24 23 22 21 21 20 19 19 18 17 17 17 15 15 15 15 14 14 13 12 12 12 12 12 11 10 9 8 8 7 7 7 7 8 8 7 7 7 6 6
26 25 24 24 22 22 22 21 21 21 20 19 19 19 18 17 17 17 16 15 14 14 14 15 14 14 13 13 12 12 10 9 8 8 9 9 9 8 7 7 7 6
26 25 25 25 23 23 23 22 22 22 22 21 21 21 20 20 20 19 18 17 17 17 17 18 18 18 17 16 15 15 13 11 10 10 10 10 9 9 8 7 7 7
26 26 26 25 25 24 24 23 23 23 22 22 22 23 23 23 22 21 21 20 20 19 20 20 20 20 19 17 16 15 13 12 10 10 11 10 10 9 9 8 8 8
26 27 27 26 26 26 25 25 24 24 23 23 24 25 25 26 25 24 23 22 21 21 20 20 20 19 18 17 17 15 14 12 11 11 11 11 11 11 10 9 9 9
27 27 27 28 28 27 27 27 26 25 25 25 27 27 26 27 26 25 25 24 23 22 21 20 19 19 18 18 17 16 15 13 11 11 12 13 13 12 11 10 10 11
28 27 28 29 29 28 28 28 26 26 26 27 28 28 27 27 27 26 26 26 24 23 23 21 19 19 19 19 18 17 16 14 12 12 13 13 13 12 12 11 12 12
29 28 29 30 30 29 28 28 27 26 27 28 29 29 27 28 28 27 28 28 26 24 23 21 21 21 20 20 19 18 18 17 14 14 14 14 14 13 13 13 13 14
29 29 30 31 31 29 28 28 27 26 27 28 29 28 27 28 28 28 28 28 26 24 23 22 22 23 22 21 20 19 20 19 16 15 15 14 14 14 14 15 15 15
30 30 30 30 30 29 27 27 27 27 27 28 28 28 27 28 28 28 28 28 28 27 24 23 24 23 22 23 23 21 20 19 17 15 14 14 14 15 16 17 16 15
29 29 29 29 28 27 26 26 26 26 27 28 28 29 29 28 28 28 27 27 27 26 24 24 24 23 22 23 25 24 22 19 17 16 14 13 14 16 17 17 16 15
26 26 27 26 25 25 26 26 26 25 26 27 28 30 29 28 28 28 27 28 28 27 25 25 25 23 24 24 25 26 22 18 17 16 14 14 15 17 17 16 15 15
25 25 24 24 24 24 24 24 24 24 25 26 27 29 28 27 27 28 28 30 32 30 27 25 23 24 27 28 27 26 22 18 18 17 15 15 16 17 17 16 16 15
25 24 23 23 23 23 23 22 22 22 23 25 26 28 28 27 27 29 29 30 32 31 29 26 24 25 30 32 30 26 22 19 19 18 16 15 16 17 17 16 15 15
24 23 22 22 22 23 24 22 20 20 22 23 24 26 27 25 26 28 29 28 29 29 29 27 25 26 31 33 31 28 24 20 18 16 14 14 16 18 17 15 15 15
23 22 22 22 22 22 23 22 21 22 22 21 23 25 25 23 25 27 27 26 26 26 27 26 24 25 30 30 29 29 25 20 17 15 13 13 15 17 16 14 14 14
23 22 22 21 21 21 21 20 21 23 22 22 23 24 24 23 24 26 26 24 24 25 25 23 21 24 28 28 28 27 23 20 19 16 14 14 16 16 15 14 14 12
22 22 21 19 19 20 20 21 22 22 21 23 24 23 24 23 23 25 25 23 23 23 23 21 19 23 27 26 26 26 22 22 22 18 14 14 16 17 16 15 14 12
21 21 20 19 19 20 20 20 21 20 19 21 21 21 23 24 22 23 24 23 23 23 23 20 18 21 24 24 25 25 23 24 23 19 15 15 16 18 17 15 14 13
21 20 20 19 18 19 19 19 19 19 18 18 17 17 19 22 22 23 24 24 23 23 22 20 18 19 21 22 23 24 23 24 22 18 16 17 18 19 18 16 14 13
20 19 19 19 18 18 18 18 19 19 18 17 18 18 18 21 24 23 22 23 23 22 21 21 20 19 20 21 21 21 22 21 19 16 16 17 18 19 18 15 13 14
19 18 18 18 18 18 18 17 17 16 15 16 19 18 18 21 23 20 19 20 21 20 19 19 19 20 21 21 20 19 19 18 16 15 16 18 18 18 16 12 10 12
18 18 17 17 18 18 17 16 15 14 15 17 19 16 14 17 19 17 16 17 16 17 21 23 22 22 23 23 21 18 17 17 15 15 17 17 17 16 14 11 10 11

ECMWFNIL_925_spd_036.txt.gz
Wind_Speed
27 26 26 24 23 22 22 22 22 22 21 20 20 19 18 17 15 16 16 16 16 15 15 15 15 15 13 14 15 13 13 14 14 14 12 11 10 9 8 7 6 5
28 27 27 25 24 24 23 23 23 23 22 21 21 20 19 19 18 17 17 17 17 16 16 17 17 17 15 15 16 14 14 14 14 13 13 13 11 9 8 8 7 7
29 28 28 26 25 25 24 23 23 24 24 22 22 22 22 21 20 19 19 19 19 18 18 18 18 18 16 16 17 15 14 14 13 12 13 12 11 10 9 9 8 8
31 30 29 27 26 26 26 25 24 25 25 23 22 23 23 23 22 22 21 21 20 20 20 20 19 19 19 17 17 17 15 14 13 12 12 11 11 11 11 8 7 8
33 31 30 29 27 27 27 27 26 26 26 25 24 24 24 24 25 24 24 23 22 22 21 22 21 21 21 19 17 18 17 16 15 14 13 13 12 12 12 9 8 8
34 32 32 31 29 28 28 28 28 27 27 27 27 27 26 27 27 26 26 25 24 23 23 24 23 22 22 21 18 18 18 17 17 16 16 16 14 14 13 10 10 10
34 34 33 32 31 30 29 29 28 29 29 28 29 29 29 29 29 29 29 28 26 25 25 25 24 23 23 23 21 21 20 19 18 18 19 18 16 15 14 11 11 11
34 35 35 33 32 31 30 30 30 30 30 29 30 31 31 31 32 31 31 30 29 28 28 27 27 25 24 24 24 23 23 21 20 19 20 20 18 16 14 12 11 11
34 35 35 34 33 32 31 30 30 31 31 30 30 31 31 32 33 33 33 33 32 31 30 30 29 28 26 26 25 24 25 23 22 20 20 21 20 18 16 14 13 13
35 35 35 34 33 32 32 30 30 31 32 32 31 30 31 33 33 33 34 35 34 33 33 33 32 30 28 27 26 27 28 26 24 23 21 21 21 19 17 15 14 14
36 35 34 35 34 31 31 31 30 30 31 32 32 30 31 32 33 33 34 35 35 35 35 35 34 33 31 30 30 30 30 28 26 24 23 22 21 19 18 17 15 15
37 35 34 35 35 32 31 32 31 30 30 31 31 31 30 32 34 34 34 36 36 34 35 36 35 35 34 33 33 31 28 27 26 25 25 23 22 20 19 17 16 15
37 37 35 34 35 34 32 32 32 31 30 31 31 30 30 31 33 34 34 35 35 34 35 36 35 35 35 35 33 30 27 27 27 26 25 23 21 20 18 16 15 15
36 36 35 34 35 35 33 32 32 31 31 32 32 30 30 30 31 32 33 34 34 34 35 35 35 34 34 33 31 29 28 28 27 27 25 23 21 19 17 15 15 15
34 34 34 34 34 34 34 33 32 32 31 31 33 32 31 29 29 31 33 33 34 34 33 34 34 33 32 33 33 32 30 29 28 27 25 22 20 18 17 16 16 15
32 32 33 34 33 34 34 33 32 31 30 30 32 33 32 30 30 31 33 33 34 35 33 32 32 31 32 36 36 34 32 30 29 27 25 22 19 16 15 16 16 16
32 32 31 33 33 32 33 32 31 29 29 28 29 31 31 30 30 32 33 32 33 35 35 33 32 32 34 37 36 34 33 31 29 27 24 19 17 15 14 14 16 16
31 31 30 31 31 29 29 29 28 27 26 26 26 27 30 30 30 32 34 32 31 33 34 34 33 33 35 36 35 35 34 30 27 26 23 20 18 18 16 16 17 17
30 30 28 27 27 25 25 25 25 24 23 23 23 24 27 30 30 31 32 32 30 30 31 33 33 34 35 35 36 37 35 30 26 24 23 22 20 19 19 19 19 18
28 28 26 25 25 24 23 23 24 24 23 23 23 24 26 28 28 29 30 31 29 29 30 32 32 34 36 36 36 37 35 31 26 24 25 24 21 19 19 20 20 18
27 27 26 25 25 24 23 23 24 24 23 22 22 21 22 25 27 27 29 29 29 30 32 32 31 33 35 35 36 37 36 32 27 24 26 26 22 19 20 21 19 17
27 27 26 25 25 24 22 21 22 22 21 21 20 18 20 24 26 26 28 29 29 30 31 30 30 31 33 35 37 38 38 34 28 25 26 25 22 21 22 22 20 17
26 25 24 24 24 23 20 19 19 19 19 19 19 17 18 23 25 26 28 29 29 29 30 29 29 30 32 35 38 38 38 35 31 28 25 23 21 21 21 22 21 19
24 23 22 22 22 21 19 17 16 17 17 18 18 16 17 21 25 26 27 28 28 29 29 29 28 29 32 34 36 37 37 36 32 27 24 23 22 21 22 22 21 19
23 22 21 21 21 21 20 19 18 18 17 18 18 17 16 18 23 24 25 26 26 27 28 28 27 28 30 32 34 35 35 33 30 26 23 22 21 21 22 22 20 19
24 24 24 23 23 22 21 20 20 18 17 17 17 17 15 16 20 22 22 23 23 23 26 27 26 26 28 29 31 33 32 31 28 25 23 21 21 22 21 20 20 19

ECMWFNIL_925_spd_039.txt.gz
Wind_Speed
37 35 35 34 33 32 32 33 33 32 31 32 31 28 27 29 29 28 28 26 23 22 21 20 20 22 19 16 17 20 19 17 16 16 15 14 13 13 12 10 9 9
37 36 35 34 34 32 32 34 34 33 33 33 32 29 28 29 30 29 29 28 25 22 22 20 21 23 21 18 20 22 20 17 17 17 17 15 14 13 13 12 11 10
38 37 36 35 35 34 32 33 34 34 33 33 33 32 30 29 30 31 30 29 27 24 24 23 22 24 23 20 22 23 21 19 19 19 18 17 16 15 14 13 13 12
39 38 38 36 35 35 33 32 34 34 34 34 33 33 33 31 31 31 30 29 28 26 26 26 25 25 25 23 23 23 22 21 19 19 19 18 18 16 15 14 14 14
40 38 38 37 35 34 34 33 34 35 35 35 34 34 35 34 32 32 31 30 29 29 28 28 27 27 26 24 25 25 24 22 20 20 19 18 18 18 16 16 16 13
40 39 38 37 36 35 34 34 35 37 36 35 36 36 36 36 34 33 33 32 31 30 30 30 29 29 28 26 26 27 26 25 24 22 21 20 20 20 18 18 18 14
39 39 38 37 36 36 35 35 35 37 38 36 36 37 37 37 37 36 35 34 34 33 32 32 31 32 32 30 28 28 27 26 26 26 24 22 21 21 21 20 18 16
39 39 38 37 36 36 36 36 35 37 38 37 37 38 39 39 39 38 37 36 36 35 34 34 34 34 34 33 30 30 29 28 28 28 27 25 24 23 23 21 19 19
39 39 39 38 37 37 37 37 36 36 37 38 38 38 39 40 40 40 39 38 38 37 36 36 36 35 36 36 34 33 33 31 30 30 29 28 27 27 24 22 21 21
38 39 39 39 39 38 37 37 37 37 37 39 39 38 38 40 40 40 40 40 39 39 39 38 38 38 37 38 37 35 34 33 32 32 31 30 29 28 26 25 23 22
39 39 39 40 40 39 38 38 37 37 38 39 39 39 39 39 39 40 41 41 41 40 40 40 40 39 38 38 38 35 33 33 33 33 32 31 30 29 27 27 26 23
39 39 40 41 41 39 39 39 38 38 38 39 39 39 39 39 40 41 41 42 42 41 40 40 39 39 38 36 33 32 33 34 34 34 33 31 30 29 28 28 27 25
40 41 41 42 41 40 39 39 39 39 39 39 39 39 39 40 40 41 41 41 41 41 40 40 38 38 36 33 31 34 36 37 36 35 33 31 30 29 29 29 27 25
41 42 42 41 41 41 40 40 40 39 39 39 40 39 40 40 41 41 40 40 40 40 39 38 37 36 35 33 36 39 39 37 37 35 33 32 30 29 28 27 26 25
41 41 41 40 40 40 40 41 41 40 39 40 40 40 39 39 39 40 39 38 38 38 38 37 37 36 36 38 41 41 38 37 36 34 33 32 30 29 28 26 26 25
40 40 40 40 40 41 42 42 41 40 39 39 40 41 39 37 37 38 38 38 37 38 38 37 37 37 38 41 43 41 39 37 34 33 33 31 30 29 28 27 26 25
40 40 40 41 41 42 43 42 41 40 39 38 39 39 38 37 36 36 38 38 38 39 39 38 38 39 40 42 43 42 40 36 33 33 33 32 31 29 29 28 27 25
40 41 40 41 42 42 42 41 39 38 37 36 37 38 38 37 36 37 38 39 39 40 40 39 39 40 41 43 43 43 41 36 34 32 31 31 31 30 29 28 26 25
40 41 41 41 41 41 40 39 37 36 36 35 36 38 38 37 36 37 38 39 40 40 40 40 39 39 41 42 43 43 42 37 33 31 30 31 31 31 30 27 24 23
40 40 40 40 40 38 36 36 36 36 35 35 35 36 38 38 36 36 38 40 41 41 40 39 38 39 41 42 42 43 43 40 34 30 29 30 30 31 30 28 26 24
39 39 38 37 36 35 34 35 35 35 34 34 34 35 37 38 36 36 37 39 40 39 38 37 37 38 40 41 42 42 43 41 35 30 29 30 30 30 31 29 28 26
38 37 35 34 34 34 34 34 35 35 34 33 32 32 34 36 36 35 36 37 38 37 37 35 35 37 40 41 41 41 41 41 35 30 30 31 31 31 30 29 28 26
36 35 34 33 33 34 34 34 35 34 33 33 32 31 31 32 33 33 33 34 34 35 36 34 33 36 39 40 41 40 40 40 36 31 29 30 30 30 30 30 28 25
37 36 35 35 34 34 34 33 33 33 33 33 32 30 29 27 27 28 28 30 33 34 35 34 33 35 38 39 39 38 39 40 36 31 28 28 30 30 31 32 30 25
37 37 36 35 34 33 33 33 32 32 32 31 29 28 26 24 23 24 25 28 31 33 34 33 32 33 34 35 35 37 39 39 35 31 29 29 30 30 30 32 30 25
37 36 36 34 33 33 32 32 31 30 29 29 27 26 25 24 24 24 26 27 29 30 31 32 31 30 30 30 32 34 38 38 36 34 32 31 29 27 28 29 27 24

ECMWFNIL_925_spd_042.txt.gz
Wind_Speed
40 39 38 37 38 37 36 35 35 35 36 36 35 35 35 33 32 33 33 33 31 29 30 30 29 29 27 25 25 25 22 21 21 21 19 19 18 16 17 18 16 13
40 39 38 37 36 36 36 37 36 36 37 36 36 35 36 35 34 34 34 35 33 30 31 31 30 30 28 27 27 27 25 22 22 22 21 21 19 18 19 19 16 14
41 40 39 37 37 36 36 36 37 37 38 37 36 37 37 36 36 36 36 36 35 33 33 33 31 30 29 28 29 28 26 24 23 23 24 23 21 20 20 19 17 14
41 40 39 38 37 37 36 36 36 37 37 38 38 38 38 37 37 37 37 37 36 35 35 35 33 31 30 29 30 29 27 26 24 24 25 25 23 21 21 19 17 16
41 40 39 38 37 36 35 36 38 38 38 38 39 39 39 38 38 38 38 38 38 37 37 36 34 32 31 32 31 29 29 29 27 26 26 26 24 23 22 21 20 18
40 39 38 38 37 36 36 37 39 39 39 39 39 40 40 40 39 39 40 39 40 40 38 37 35 33 33 34 32 31 32 32 30 29 28 27 26 25 23 23 22 20
39 39 38 37 37 36 37 38 39 40 41 40 40 40 40 41 40 41 41 41 41 41 39 38 36 35 34 35 34 33 33 34 32 31 30 29 27 26 26 25 24 23
39 38 38 38 37 37 38 38 39 41 41 41 41 41 41 41 42 41 42 43 42 41 40 39 38 36 35 35 36 35 35 35 34 33 32 30 29 29 28 27 26 25
39 38 38 38 38 38 39 39 40 41 41 41 42 42 42 42 42 42 43 43 43 42 41 40 39 38 37 37 38 37 36 36 35 35 34 32 32 31 30 29 28 27
39 38 38 39 39 39 40 41 41 40 41 42 42 42 42 42 42 42 43 43 43 43 42 41 40 39 38 38 39 40 38 37 36 36 36 34 34 33 31 30 30 29
40 39 39 40 40 40 41 42 41 40 41 42 42 42 42 42 41 42 43 44 44 43 42 41 41 40 39 39 40 40 39 38 38 37 36 35 34 33 31 30 30 30
41 40 41 41 42 41 41 42 41 41 41 42 42 42 42 42 42 43 43 44 44 43 42 42 41 41 41 40 40 40 39 38 38 37 36 35 33 32 31 30 30 29
42 42 42 42 43 42 42 42 42 41 41 42 42 42 41 42 42 43 43 43 43 42 41 42 42 42 41 40 40 40 39 38 37 36 34 31 30 31 31 30 29 29
43 43 43 43 43 42 42 41 42 42 41 41 41 41 41 42 42 43 42 41 41 41 41 41 42 42 42 40 39 39 39 37 36 35 31 28 29 31 31 30 30 29
42 42 42 42 42 42 42 42 42 42 41 40 40 41 41 41 41 41 41 40 40 40 40 40 42 43 43 41 40 39 38 38 37 34 30 29 31 32 31 31 31 31
41 41 41 41 42 42 42 42 42 41 40 39 39 40 40 39 39 39 40 40 40 40 40 41 43 44 44 42 41 40 39 39 37 34 32 34 35 34 32 32 32 33
41 41 40 41 42 42 42 43 42 41 39 38 38 39 39 39 38 38 40 41 41 41 41 42 44 44 43 41 41 41 40 40 38 34 33 35 36 34 33 33 33 32
40 40 40 41 41 42 42 42 41 39 38 38 38 38 39 39 39 39 41 41 40 41 42 44 45 44 42 42 42 42 41 40 38 34 33 35 36 35 35 34 33 32
40 40 40 41 41 42 41 40 39 38 38 38 39 39 39 39 39 40 40 40 41 42 43 44 44 42 42 42 42 42 42 42 39 35 34 35 35 36 35 35 34 32
40 40 41 41 41 41 39 38 38 39 38 39 39 39 38 38 39 40 40 41 42 43 44 43 42 42 42 43 43 42 43 44 41 36 35 35 35 35 35 35 34 32
40 40 41 40 40 39 38 38 38 38 39 39 39 39 39 39 40 40 40 42 43 43 42 41 41 42 42 42 43 42 43 45 42 37 35 34 34 34 35 34 33 32
41 40 40 39 39 39 38 38 39 39 39 39 38 38 38 38 39 40 41 42 42 41 40 39 39 40 40 41 41 41 43 45 42 37 35 33 33 34 34 32 32 32
41 40 39 38 38 39 40 40 40 40 39 39 37 37 37 38 39 41 42 42 40 39 39 37 36 37 38 39 40 41 43 44 42 39 36 33 32 32 32 31 32 32
41 40 39 39 39 40 41 41 40 39 39 39 39 38 38 39 40 39 39 39 38 39 38 36 35 36 37 38 39 40 43 44 42 38 35 33 30 29 30 31 32 33
41 41 40 40 40 41 41 40 40 40 39 40 40 39 37 37 37 36 35 36 37 37 37 37 37 37 37 38 39 41 44 44 40 35 33 32 29 27 28 30 32 33
42 43 43 42 42 41 40 40 39 38 39 39 37 36 35 34 34 34 33 34 35 36 37 38 39 37 36 36 38 40 43 43 38 35 34 33 29 27 28 31 33 33

ECMWFNIL_925_spd_045.txt.gz
Wind_Speed
43 42 40 39 38 37 35 35 36 37 36 36 37 38 38 37 35 33 32 31 31 32 31 31 31 30 29 28 27 26 26 25 24 25 24 23 22 21 20 19 19 17
43 41 40 38 37 36 35 35 37 38 38 37 38 38 38 36 35 34 33 32 32 32 32 32 32 31 31 30 29 28 27 26 25 25 25 25 23 21 21 20 19 18
43 41 40 38 38 37 36 35 36 37 38 38 38 38 37 36 35 35 34 33 33 33 33 32 32 32 32 32 31 30 29 28 27 26 25 25 24 22 21 20 19 19
43 42 41 40 39 38 37 35 35 36 37 37 38 38 38 37 36 36 36 35 34 34 34 33 33 33 34 33 32 32 31 30 28 27 26 25 25 23 21 20 20 20
44 43 42 40 39 38 37 36 36 36 37 37 38 38 38 37 36 37 37 36 36 35 35 35 34 34 34 34 34 33 33 32 30 29 28 26 25 24 23 21 20 21
43 42 41 40 39 38 37 38 38 37 37 37 37 38 38 38 37 38 38 38 38 37 37 37 36 36 36 35 35 35 35 33 31 30 29 28 26 26 25 23 22 22
41 41 41 40 39 38 38 39 39 38 38 37 37 38 38 38 38 38 38 39 39 39 38 38 38 38 37 36 36 36 35 34 32 32 31 30 28 27 27 26 24 23
41 41 41 40 39 39 39 39 39 39 39 37 37 38 38 39 39 39 38 39 40 40 40 39 39 39 38 37 37 37 35 34 33 33 32 32 30 29 29 27 26 25
40 40 41 41 40 40 40 40 40 39 38 38 38 39 39 39 39 39 39 39 40 40 40 40 39 39 39 38 38 38 36 35 34 34 34 33 32 31 30 28 27 27
41 41 41 41 42 41 41 41 40 39 38 38 38 38 38 39 39 38 39 39 40 41 41 40 40 39 39 39 39 39 37 36 35 35 35 35 34 33 31 30 29 29
41 40 41 42 42 42 42 41 40 39 38 38 38 37 38 38 38 38 39 40 41 42 41 41 40 40 40 40 40 39 38 36 36 37 37 35 35 34 33 32 31 31
40 41 41 42 42 42 41 41 40 39 39 38 38 37 37 37 38 39 40 41 42 42 41 41 40 40 41 41 40 39 37 36 36 37 37 36 35 35 35 34 33 32
41 42 41 40 41 41 40 40 39 39 39 38 38 37 37 37 38 40 41 42 42 42 41 41 40 41 41 41 40 38 37 36 37 37 37 36 36 36 35 34 33 32
42 41 40 40 40 40 40 40 40 39 39 38 37 37 38 39 39 40 40 41 41 42 41 40 40 41 42 41 39 38 37 37 37 38 37 36 36 36 35 35 34 33
41 39 39 39 39 40 40 40 39 38 38 37 37 38 39 39 40 39 39 39 40 41 41 40 41 43 43 42 40 38 37 37 37 38 37 36 36 35 35 35 35 34
39 39 39 39 39 40 40 39 38 37 37 37 38 38 39 39 39 38 39 39 40 40 40 41 42 44 44 43 41 40 38 37 37 37 37 37 36 35 35 36 36 35
39 40 39 40 41 40 39 39 38 37 37 37 38 39 39 39 38 38 39 40 40 40 41 42 44 45 44 42 42 40 39 38 38 38 38 38 37 36 36 36 36 36
39 39 40 40 41 40 40 39 38 37 37 37 38 40 40 39 39 39 40 40 41 41 42 43 45 45 42 41 41 41 40 39 39 38 38 38 39 39 38 37 36 35
39 39 40 40 41 40 39 37 38 39 39 40 40 40 39 39 39 39 40 41 41 41 43 44 44 42 41 41 41 41 42 41 40 39 39 39 40 39 38 37 36 34
39 39 41 41 41 40 38 38 39 41 41 41 40 39 39 40 40 40 40 41 42 43 43 44 42 40 40 41 41 41 42 42 42 41 39 40 40 39 39 38 35 33
39 40 41 41 39 38 38 40 41 41 42 41 39 39 41 41 40 40 41 42 43 42 42 41 41 40 40 41 42 42 41 41 43 42 40 38 37 37 38 37 34 34
40 40 39 39 38 38 39 41 42 42 42 40 39 39 40 39 39 41 42 42 42 41 41 40 40 39 40 41 42 41 40 41 42 42 40 37 35 36 35 32 31 33
40 39 38 37 37 38 40 42 42 42 41 40 39 38 38 39 40 40 41 41 41 41 41 41 39 39 40 41 41 40 39 40 41 42 40 35 33 31 28 27 30 32
39 39 38 37 38 40 42 42 41 40 40 40 39 38 39 40 40 39 39 40 41 42 42 40 39 39 40 41 40 39 39 39 41 42 37 30 28 27 24 26 30 31
38 38 38 39 40 42 42 41 40 39 38 38 38 39 39 39 38 37 37 39 39 40 40 40 39 39 40 40 38 37 38 39 41 40 31 26 29 28 25 29 31 30
37 38 40 40 41 42 41 41 40 38 37 37 38 38 38 37 37 36 36 37 37 37 38 39 39 38 38 38 36 36 37 38 40 38 30 26 29 29 27 30 32 31

ECMWFNIL_925_spd_048.txt.gz
Wind_Speed
41 40 39 38 38 37 36 35 35 34 34 34 34 35 36 35 35 34 33 32 31 30 29 27 27 27 26 26 25 26 26 25 23 23 23 23 22 22 21 19 18 18
42 40 39 37 37 37 36 37 37 36 36 36 36 35 35 34 34 34 34 33 32 31 30 28 27 27 27 27 27 27 27 26 25 24 24 24 23 23 23 20 19 18
42 41 40 38 38 38 38 38 37 38 37 36 36 35 35 34 34 34 34 33 33 33 32 30 29 28 28 29 28 28 28 28 26 25 25 25 24 24 24 21 20 19
42 42 41 40 40 40 38 37 36 37 37 36 36 36 35 34 34 34 34 33 33 33 33 31 30 29 30 30 29 29 29 29 28 27 26 26 25 24 24 22 21 20
44 43 43 41 40 39 38 37 37 37 38 37 37 36 35 35 34 34 34 34 34 34 33 32 31 31 30 30 31 31 31 31 30 29 28 27 26 25 24 23 22 21
42 43 42 41 40 39 38 38 38 38 38 38 37 36 36 36 36 35 35 35 34 34 34 34 33 32 31 31 31 32 32 33 32 31 30 29 28 26 25 23 23 22
41 41 41 40 39 39 39 39 39 39 39 38 37 37 37 36 36 37 36 36 35 35 35 35 35 34 32 32 33 34 34 33 33 32 32 31 29 27 26 25 24 23
40 40 40 40 39 39 39 39 39 39 39 38 37 37 37 38 38 38 37 36 36 36 36 36 36 36 34 34 34 35 35 34 33 33 33 32 30 29 28 26 25 24
40 40 40 40 40 40 40 39 39 38 38 38 37 37 38 38 39 38 38 37 37 37 37 37 37 37 36 36 36 36 36 36 34 33 34 33 32 31 29 27 26 26
39 39 39 40 41 41 40 40 39 38 38 38 38 37 37 38 39 39 38 38 37 37 38 38 38 38 38 38 38 38 38 37 35 35 34 34 33 32 31 29 29 28
40 39 40 41 41 40 40 40 39 39 38 38 38 37 37 37 38 39 39 39 39 39 39 39 39 39 38 39 40 39 39 38 37 35 35 35 34 33 32 31 31 30
40 41 41 42 41 40 40 40 40 39 38 38 38 38 38 38 39 40 40 41 41 40 40 40 39 39 40 40 40 40 39 38 37 36 36 35 34 34 33 32 32 32
42 43 43 42 41 41 41 41 40 40 39 39 39 39 39 40 40 40 41 42 42 41 41 41 40 40 40 41 41 40 40 39 37 37 36 36 35 34 33 33 33 33
44 44 42 42 42 41 42 41 41 40 39 39 38 39 40 42 42 41 41 42 41 41 41 41 40 40 41 41 41 41 40 39 38 37 37 36 35 34 33 33 33 33
43 41 41 41 41 41 42 41 41 40 39 39 39 40 41 42 42 41 41 41 41 40 40 40 41 41 42 42 42 42 41 39 38 38 37 36 34 33 33 32 32 32
40 40 40 40 41 42 42 41 41 40 40 40 41 42 42 41 41 41 41 41 40 39 40 40 41 43 44 44 44 43 42 40 38 38 36 35 33 32 31 31 31 29
39 39 39 40 41 42 42 41 41 40 41 42 42 42 42 41 40 41 41 41 40 40 40 41 43 44 44 45 45 44 43 40 39 38 36 34 32 30 30 29 25 19
39 39 39 40 42 42 42 42 41 41 42 42 42 43 42 41 41 42 41 40 40 40 42 43 44 44 45 46 46 45 44 41 39 37 35 33 31 30 25 18 13 13
39 39 40 41 42 42 41 40 40 41 42 42 43 43 41 41 42 42 41 40 40 42 43 43 44 44 45 46 46 45 45 42 40 37 34 31 29 24 19 15 18 25
39 40 41 41 41 40 39 39 40 41 42 42 41 40 40 41 42 42 41 41 42 43 43 42 43 45 45 46 46 45 44 43 41 36 32 29 24 21 22 27 33 34
39 40 41 40 40 39 38 39 40 41 42 41 39 38 40 40 40 41 42 42 43 43 41 41 43 45 45 45 45 44 43 42 40 35 30 26 24 26 31 36 36 34
40 40 39 38 38 37 38 39 40 41 41 39 37 37 38 38 39 40 41 42 42 41 40 41 42 43 43 44 44 43 42 41 39 34 29 27 27 31 35 37 34 32
39 37 36 36 36 37 38 39 40 40 40 38 37 36 36 37 38 39 39 39 39 39 40 41 41 40 41 42 42 42 41 40 37 33 30 30 31 33 35 35 33 32
38 38 37 36 37 39 41 41 41 40 39 39 38 37 37 37 37 37 37 37 38 39 41 41 39 38 39 40 41 41 40 39 36 32 31 32 33 34 34 33 31 30
38 38 38 37 38 40 41 41 40 40 39 39 39 39 39 38 38 37 37 37 38 39 40 40 38 36 37 40 40 40 40 38 35 32 31 33 35 34 31 28 29 29
37 38 38 39 41 43 42 41 40 38 38 39 40 40 39 38 38 39 38 38 37 37 38 38 38 36 37 39 39 39 39 38 35 34 33 34 37 35 30 26 25 27

ECMWFNIL_925_spd_051.txt.gz
Wind_Speed
37 37 37 35 34 34 32 34 35 34 33 32 32 34 34 34 33 33 32 31 28 22 17 16 17 21 24 23 23 23 22 21 20 20 20 20 19 17 16 16 15 14
38 37 38 35 35 37 38 38 38 37 36 36 35 35 35 35 34 33 33 32 31 25 18 16 17 20 25 26 24 24 24 23 21 21 21 20 19 17 16 16 15 15
39 37 39 37 36 39 39 37 37 38 38 36 36 36 35 35 34 34 33 33 32 28 21 17 17 19 22 25 26 25 24 24 23 22 21 20 19 17 16 16 15 16
39 38 39 38 36 38 38 36 36 38 37 36 37 37 35 34 34 33 34 33 32 31 24 17 18 19 19 21 25 26 25 24 24 22 21 21 20 18 17 17 16 16
42 41 40 38 35 35 37 37 38 38 38 38 38 37 35 35 34 33 33 33 32 32 26 19 18 19 18 18 22 27 26 24 24 23 22 22 21 19 18 17 16 16
41 41 41 39 36 35 37 38 39 38 38 38 38 37 36 36 35 34 34 33 33 31 27 22 20 20 20 18 20 26 27 25 25 24 23 23 22 21 20 18 17 17
40 41 41 39 36 36 36 37 38 39 40 39 38 38 37 36 36 36 35 34 33 31 29 27 25 24 25 21 19 25 28 25 25 25 24 24 23 23 22 19 18 18
38 38 40 39 36 34 35 35 36 40 42 40 39 39 39 38 38 37 37 36 35 34 33 32 29 27 28 27 26 28 26 23 25 26 25 24 24 24 23 21 20 19
36 36 37 38 37 34 34 34 35 39 42 42 41 39 39 40 40 38 38 37 36 36 34 35 34 32 32 33 32 32 29 26 27 27 26 26 26 26 24 22 21 20
36 35 35 35 35 34 34 34 33 35 39 42 42 38 37 41 41 40 39 39 38 37 36 36 37 36 35 35 34 33 33 31 29 28 28 28 28 27 25 23 22 21
36 35 34 35 36 35 35 35 34 32 34 40 41 38 38 40 41 41 40 40 39 39 38 39 39 38 37 37 36 35 34 32 31 30 29 29 29 28 26 25 24 23
36 36 36 36 37 36 34 35 34 32 31 36 39 39 38 38 40 41 41 41 41 41 40 41 40 40 40 38 37 36 35 33 32 31 31 30 29 28 27 26 25 25
37 38 38 37 36 36 35 33 34 34 32 34 37 38 36 35 36 39 42 43 42 42 42 42 42 41 41 40 38 37 36 34 32 32 31 31 29 28 27 27 27 28
38 39 37 36 36 36 36 34 34 35 34 33 35 36 35 35 34 36 40 42 42 42 42 42 42 42 42 41 39 38 37 35 34 33 32 31 30 28 28 28 29 29
40 38 35 36 36 36 38 37 34 34 34 33 35 36 35 34 33 33 36 40 41 42 42 41 42 43 43 42 40 39 38 35 35 35 33 31 30 29 29 31 31 30
43 38 35 36 37 38 40 39 36 34 33 35 37 38 36 35 35 33 33 35 38 40 42 41 42 44 45 42 40 39 38 36 35 35 34 32 31 30 31 31 30 30
42 39 36 36 38 38 38 38 37 35 34 35 37 37 37 37 38 35 32 31 33 37 40 40 43 45 44 43 42 39 37 36 35 35 34 33 33 34 33 30 28 31
39 38 37 37 38 38 38 39 38 36 34 35 35 36 36 36 37 36 35 32 31 33 36 39 43 46 44 43 43 41 38 35 32 34 35 34 35 35 31 29 31 34
37 36 37 37 38 38 37 38 38 37 35 35 34 34 34 34 35 35 35 35 33 33 34 36 40 43 44 43 43 41 41 36 30 31 35 36 37 34 30 31 36 36
36 36 36 37 37 36 35 35 36 36 36 34 33 32 33 35 36 35 34 35 35 34 34 34 37 40 41 43 42 41 41 38 32 29 33 37 38 35 33 36 38 37
36 37 35 33 33 32 32 33 34 34 34 33 31 32 33 35 36 35 35 36 35 34 33 34 37 39 40 41 42 41 40 40 36 30 30 34 36 36 37 38 38 38
38 37 34 32 31 30 31 32 33 34 34 32 31 31 32 34 35 35 35 36 35 35 35 35 35 37 38 39 40 40 38 39 39 33 29 31 33 35 38 39 39 39
37 34 31 30 29 30 32 33 34 34 32 31 31 31 32 35 35 34 34 35 35 37 37 35 33 35 38 37 38 39 38 39 40 36 30 29 30 34 38 39 38 38
35 31 29 28 29 31 33 33 33 33 32 32 33 32 33 34 34 33 35 36 36 37 37 35 34 36 38 38 38 39 39 40 41 36 31 29 28 32 37 39 38 38
36 35 32 31 32 34 33 32 33 33 32 33 34 34 33 32 32 33 36 35 35 37 38 37 35 35 37 39 39 39 39 41 40 36 32 30 28 28 31 34 35 35
35 36 36 35 35 35 34 33 32 32 31 31 33 33 31 30 31 33 34 34 34 34 36 37 36 34 36 40 41 40 40 41 40 37 33 31 30 28 27 27 27 28

ECMWFNIL_925_spd_054.txt.gz
Wind_Speed
26 26 25 25 24 23 23 23 22 21 21 21 20 20 20 20 20 20 19 18 18 18 18 17 16 15 14 14 15 15 14 14 13 12 13 13 13 12 11 11 10 9
27 26 25 24 24 24 24 23 22 22 22 22 21 20 19 19 19 20 20 19 19 19 19 18 18 17 16 15 15 16 15 14 13 13 14 14 14 13 12 12 11 11
28 27 27 26 25 25 24 23 22 22 22 22 22 21 20 19 19 20 21 20 19 19 19 19 19 18 17 16 16 16 16 15 15 14 14 15 15 14 13 13 12 12
30 29 28 28 26 25 24 23 23 23 23 22 22 22 21 19 19 20 21 21 20 19 19 20 20 19 18 17 17 17 16 16 16 15 15 16 15 15 14 13 13 12
31 31 30 28 27 25 24 24 25 24 24 24 23 22 22 21 20 20 20 21 21 20 20 20 20 20 19 18 18 17 17 17 16 16 17 16 16 16 15 14 14 14
31 32 31 30 28 27 26 26 27 25 24 24 23 22 22 22 22 22 21 21 21 21 21 21 21 21 20 19 19 18 18 18 17 17 18 17 17 16 16 15 16 16
32 32 32 31 29 28 28 27 27 26 25 24 23 23 23 23 23 23 23 22 22 21 21 21 22 21 21 20 20 20 19 18 18 18 18 18 18 17 17 17 17 17
33 32 32 31 30 29 29 28 27 27 26 24 23 23 24 24 24 23 24 24 23 22 22 22 22 22 21 21 21 21 20 19 19 19 19 19 19 19 19 18 18 19
32 32 31 31 31 30 30 29 28 27 26 26 25 25 24 24 25 24 23 24 24 23 22 23 23 23 22 22 22 22 22 20 20 21 21 21 21 21 21 20 19 20
32 32 31 31 31 31 31 30 29 27 27 27 28 26 25 25 25 25 23 24 24 23 23 23 23 23 22 22 23 23 23 22 22 22 21 21 21 21 22 22 21 20
33 33 32 32 32 31 31 31 30 28 27 28 29 28 27 25 25 25 25 24 24 24 25 24 24 24 23 23 23 23 23 23 23 23 22 22 22 22 22 22 22 21
34 34 33 34 34 33 32 31 31 30 28 28 29 29 28 27 26 26 26 26 26 25 26 26 25 25 25 25 24 23 24 23 23 23 23 23 24 23 23 23 22 22
35 35 35 34 34 34 32 31 31 31 31 30 29 29 29 29 28 27 27 27 27 26 26 26 26 26 26 26 25 24 24 23 23 23 24 24 25 24 23 23 23 23
35 35 35 35 34 33 32 32 32 32 32 31 29 29 29 29 29 28 26 26 26 27 27 27 26 26 26 26 26 25 24 24 23 24 24 24 25 25 24 24 24 24
33 33 33 33 32 31 32 33 32 31 31 31 30 29 28 28 28 28 26 25 26 27 27 27 27 27 27 28 28 26 25 24 24 24 25 24 24 25 25 25 25 24
32 32 31 32 32 32 32 33 32 31 30 30 30 29 27 27 27 28 27 26 26 27 27 28 27 28 30 32 31 28 26 24 24 25 25 25 25 24 24 25 25 25
31 31 31 31 32 32 31 31 32 31 30 30 30 29 28 27 26 27 28 27 26 27 28 28 28 30 33 36 36 33 28 25 24 25 26 26 26 25 25 25 25 25
30 30 30 30 31 31 31 30 31 31 30 29 29 29 28 27 27 28 29 28 27 27 28 28 28 31 36 37 38 38 35 28 24 24 25 26 27 26 26 25 24 25
29 29 29 30 31 31 30 29 29 30 30 29 28 28 28 28 28 28 28 29 29 28 28 28 27 30 36 39 39 40 40 35 27 24 25 26 26 27 26 25 25 25
28 28 29 30 29 29 28 28 29 30 30 29 28 28 28 28 29 29 29 29 29 29 28 27 27 29 34 38 39 40 41 40 33 26 25 26 26 26 26 26 26 26
28 28 28 27 26 26 27 28 29 29 29 29 28 27 28 28 28 29 30 29 29 28 27 27 28 30 33 36 38 39 40 41 37 30 27 26 25 26 26 26 27 28
29 28 26 25 24 25 26 28 29 29 28 28 27 26 27 26 27 29 29 28 28 28 28 28 28 31 34 35 37 38 39 41 39 32 28 27 26 26 27 28 30 30
28 27 25 25 25 26 27 28 29 28 27 27 27 27 27 27 27 27 27 28 28 28 29 29 28 31 34 36 37 38 39 42 39 33 30 31 30 29 28 29 32 33
25 26 25 26 26 27 28 29 29 28 27 26 27 27 28 27 26 25 25 27 29 30 30 29 28 30 33 36 38 38 41 42 38 33 32 33 33 32 31 31 32 33
25 26 26 27 27 28 28 28 27 26 24 24 25 25 26 25 25 24 24 26 27 29 30 30 29 29 33 36 37 38 42 42 35 31 32 32 32 33 33 33 32 32
25 26 27 28 28 27 26 25 23 23 23 23 23 23 23 23 24 24 24 24 25 26 28 30 30 30 33 36 36 38 42 41 36 33 34 33 31 32 33 33 33 31

ECMWFNIL_925_spd_057.txt.gz
Wind_Speed
27 26 25 25 24 23 23 22 21 20 20 20 19 19 19 20 19 19 19 19 19 19 18 18 18 17 16 15 14 14 13 13 14 14 14 14 13 14 15 14 14 13
28 27 25 25 25 25 24 23 22 21 21 21 20 19 19 19 20 20 20 20 20 20 19 19 19 19 18 16 15 15 15 15 14 14 15 15 14 15 15 16 15 15
30 28 27 27 26 26 25 24 23 22 21 21 21 21 19 19 20 21 22 22 21 21 20 20 20 20 19 18 16 16 15 16 16 15 15 16 15 15 16 16 16 16
31 30 29 28 27 26 25 24 24 24 23 22 22 22 21 20 19 21 22 22 22 21 21 21 21 20 20 19 18 17 16 17 17 16 16 17 16 16 16 16 16 16
33 32 30 29 28 26 25 26 26 25 24 23 22 21 22 21 20 20 21 22 22 22 22 22 22 21 21 21 20 18 17 17 18 18 18 17 17 17 17 17 17 17
33 33 31 30 29 28 27 27 28 26 25 24 23 22 22 22 22 22 22 22 23 22 22 22 23 22 22 22 21 20 19 18 18 19 19 19 19 18 18 18 18 18
33 33 33 31 30 29 29 28 27 27 26 24 23 23 23 23 23 24 23 23 23 23 23 23 23 23 23 23 22 21 21 19 19 20 21 20 20 20 19 19 19 19
34 34 32 32 31 30 30 29 27 27 27 25 24 24 24 24 24 24 24 24 23 23 23 23 23 24 23 23 23 22 22 21 21 22 22 21 21 21 22 21 20 20
34 33 32 32 32 31 31 30 29 27 27 26 26 25 24 25 25 25 25 25 24 23 23 23 24 24 24 24 24 23 23 23 22 24 24 23 23 23 23 23 21 21
34 34 33 33 33 32 31 31 30 28 27 28 27 26 25 25 25 25 25 25 25 24 24 24 24 25 25 24 24 24 24 24 24 25 25 25 25 24 24 24 23 23
35 35 34 35 34 33 33 33 31 30 28 28 29 28 27 26 25 26 26 26 26 25 25 25 25 26 26 25 25 25 25 25 25 25 26 26 26 25 25 25 25 24
36 36 35 35 35 34 33 34 33 32 30 29 29 29 29 27 26 26 27 27 26 26 26 26 26 26 27 26 26 25 25 25 25 26 26 26 26 26 26 26 26 26
36 36 35 35 35 35 34 33 33 33 32 30 29 29 29 29 28 27 27 28 28 27 27 27 27 27 27 27 27 26 26 26 25 26 26 26 26 26 26 27 27 27
35 35 35 35 35 35 35 33 33 33 33 31 29 29 29 30 30 29 27 27 28 28 28 28 28 28 28 28 28 27 26 26 26 26 26 26 26 27 27 27 27 28
32 32 33 34 34 33 34 35 34 33 32 31 30 29 29 29 29 29 28 28 28 29 29 29 29 29 30 30 29 28 27 27 27 27 27 27 27 27 27 27 27 28
30 30 30 31 32 32 32 34 33 32 31 31 31 30 28 27 28 28 28 28 28 29 29 29 30 30 32 33 33 31 29 27 27 27 28 28 28 27 28 28 28 28
29 29 29 29 30 30 30 31 32 31 31 31 31 30 29 28 27 28 29 29 28 29 29 30 30 31 33 36 37 36 32 29 28 28 28 29 29 29 28 28 28 28
28 28 27 28 28 28 28 28 29 29 29 29 29 30 29 28 27 28 29 29 28 28 29 29 30 32 35 38 39 40 38 32 28 28 29 29 30 30 28 27 27 28
29 28 28 28 28 27 26 25 27 28 28 28 28 28 28 28 28 28 28 28 28 28 29 29 30 32 37 40 41 42 43 39 32 28 29 29 30 30 29 28 27 27
29 29 29 28 27 27 26 26 26 27 28 27 26 27 28 28 28 27 27 28 29 29 29 30 29 31 35 40 41 42 44 44 38 30 29 30 30 30 29 29 29 28
29 29 28 27 27 27 28 28 27 27 28 27 26 26 27 27 27 28 28 29 29 30 29 29 29 31 33 37 41 42 43 45 42 34 29 29 29 29 29 29 30 29
28 27 25 25 26 26 28 28 28 27 27 26 26 25 25 25 26 27 28 28 28 29 29 30 30 31 33 35 38 40 41 44 45 38 31 29 28 28 29 29 29 30
27 26 26 26 26 27 28 28 28 26 25 26 26 25 24 25 25 25 26 27 28 29 30 31 30 31 34 35 36 39 40 44 46 39 32 31 30 29 30 31 30 30
27 27 27 27 27 28 28 27 26 25 25 25 26 26 26 25 24 24 25 26 28 29 30 30 30 32 35 36 38 39 41 45 46 39 32 32 32 30 32 32 32 33
26 27 27 27 27 27 26 25 24 24 24 24 25 25 25 25 24 24 24 25 26 28 30 31 30 31 33 36 39 40 42 45 44 37 32 32 31 30 31 32 33 35
25 26 26 26 26 25 24 24 23 23 23 23 23 23 22 23 23 24 24 24 25 25 28 30 30 30 32 35 39 41 43 46 42 34 31 32 31 30 30 31 34 37

ECMWFNIL_925_spd_060.txt.gz
Wind_Speed
33 33 32 30 29 27 26 25 25 25 25 24 25 25 25 24 24 24 24 25 25 24 23 22 21 21 19 18 18 17 17 17 18 19 19 19 18 16 15 14 13 12
34 33 33 31 30 29 28 27 25 25 26 26 25 25 25 25 24 24 25 25 25 25 24 23 23 23 22 20 20 20 19 18 18 19 20 20 19 18 17 15 15 15
36 34 34 32 31 31 30 29 27 26 26 26 26 24 24 25 25 25 25 25 26 25 24 24 24 24 24 22 21 21 21 21 21 20 20 21 20 19 18 16 16 16
38 36 35 34 32 32 31 30 29 28 27 26 27 26 24 23 24 26 26 26 26 25 25 25 25 24 25 24 22 22 22 22 23 21 21 22 22 20 19 18 17 17
40 38 37 35 33 32 31 31 31 30 29 27 26 26 26 24 24 25 27 27 27 26 25 26 26 25 26 25 24 24 23 22 23 23 22 23 23 22 20 19 19 19
41 39 38 36 34 33 32 33 33 31 30 29 27 26 27 27 25 25 26 27 27 27 26 26 26 26 26 26 26 25 24 22 23 24 24 24 24 23 22 21 21 21
40 40 39 37 35 34 34 34 34 32 31 29 28 27 27 27 28 27 26 27 27 27 27 26 27 27 27 27 27 27 26 24 23 24 25 25 24 24 23 22 23 23
40 41 40 37 35 35 35 34 33 33 32 30 29 29 28 28 29 29 28 27 27 28 28 28 28 28 28 28 28 28 28 26 24 25 26 26 25 26 25 24 24 25
40 40 39 38 36 35 35 34 33 33 33 31 29 29 29 29 28 29 29 29 28 29 29 29 29 30 29 29 29 30 29 28 26 26 27 28 27 27 27 26 25 26
39 37 37 37 36 34 34 34 32 32 33 33 31 28 29 30 29 29 29 30 30 29 30 30 30 31 31 31 31 31 31 30 28 27 28 29 29 29 29 29 28 27
37 35 35 36 35 34 33 34 32 31 31 33 33 31 29 30 31 30 29 31 32 31 31 32 32 32 32 32 31 32 32 31 30 29 29 29 30 30 30 30 30 29
36 35 34 35 35 33 32 33 32 31 30 31 33 33 31 30 30 32 31 31 32 33 32 32 33 32 33 33 32 31 31 31 30 30 30 30 30 30 30 30 30 30
36 37 36 35 36 35 33 32 33 32 31 30 31 32 32 31 30 31 32 32 33 33 33 33 33 33 33 33 32 31 31 30 29 29 30 30 31 30 30 30 30 30
37 37 38 37 37 37 35 33 33 33 32 32 31 31 31 31 31 31 32 33 33 34 34 33 33 33 33 33 33 32 30 30 30 29 30 30 30 30 30 30 30 30
36 36 38 38 37 37 38 36 34 34 34 33 32 31 30 31 31 30 31 32 32 33 33 33 33 34 35 34 34 34 32 31 31 31 31 30 30 30 30 30 30 29
36 35 35 37 37 37 38 37 35 33 33 34 33 33 31 31 31 30 30 31 32 32 32 33 34 35 37 38 37 37 35 34 32 32 32 31 30 30 30 31 31 30
35 35 34 35 37 36 36 37 36 35 34 34 34 34 32 32 31 31 31 30 30 32 33 34 36 36 38 40 41 40 39 37 35 33 33 33 32 31 31 31 31 32
33 34 34 35 36 36 36 37 37 36 35 34 35 35 34 32 31 32 33 31 30 31 33 34 36 37 39 41 42 43 42 40 37 35 34 34 34 33 33 32 32 33
32 33 34 34 35 36 35 35 36 37 36 35 35 35 34 33 33 33 34 33 32 31 32 34 34 36 38 41 43 44 45 43 39 36 35 35 35 35 35 35 35 34
32 32 32 32 32 33 34 34 35 37 37 35 33 33 34 34 35 34 33 34 34 32 32 33 34 34 37 40 43 44 45 45 42 38 36 36 36 37 37 37 37 36
32 31 31 30 31 32 32 33 34 34 34 33 31 32 34 35 35 34 33 34 35 35 33 32 32 33 35 39 42 43 44 46 45 41 36 35 35 36 37 38 38 38
31 30 29 30 30 31 31 32 32 32 32 33 31 30 31 32 33 33 33 33 34 35 34 33 32 33 35 38 40 42 43 45 47 44 39 36 35 35 36 37 37 37
30 29 29 29 30 30 31 31 31 30 30 31 31 28 27 29 30 31 32 32 32 33 34 35 34 33 34 36 38 40 43 45 48 46 42 39 38 36 34 35 35 37
29 29 29 30 30 30 30 30 29 29 29 30 30 29 27 26 27 29 30 31 32 32 33 34 34 33 34 35 36 38 42 45 47 46 42 41 41 38 35 33 34 36
29 29 30 30 30 30 29 29 29 28 28 28 29 30 28 26 25 26 28 30 31 31 32 33 33 33 34 36 37 37 39 44 46 44 41 40 38 36 34 34 34 35
28 29 29 29 29 29 28 28 28 27 26 27 27 28 28 27 26 26 26 27 28 29 30 32 32 32 32 35 37 36 37 41 42 41 39 37 35 32 31 32 34 35

ECMWFNIL_925_spd_063.txt.gz
Wind_Speed
39 38 36 36 36 34 33 34 34 32 32 32 32 32 33 32 30 29 29 29 28 27 26 24 24 24 22 21 20 20 21 21 20 19 19 19 18 16 16 17 17 17
39 39 37 36 36 35 33 34 35 34 32 32 32 32 32 32 31 30 30 29 29 28 27 26 25 25 24 23 22 21 21 22 21 20 21 21 21 19 18 18 18 18
40 39 39 38 37 37 35 34 35 36 34 32 32 31 30 31 31 30 29 30 30 30 29 28 27 26 25 25 24 23 22 23 23 22 22 23 23 22 21 19 19 19
41 41 41 40 39 38 37 34 34 36 36 34 33 32 31 30 29 29 30 30 31 31 31 30 29 27 27 26 26 26 24 24 24 24 23 24 25 25 23 22 21 21
43 43 42 41 39 38 37 35 34 34 36 35 34 33 32 31 30 30 30 31 32 32 32 31 31 30 29 28 28 28 27 26 25 25 26 25 26 27 26 24 24 23
42 42 42 41 39 38 38 37 36 35 35 35 35 34 33 33 33 32 32 32 33 33 33 32 32 31 30 30 30 29 29 29 28 28 28 28 27 28 27 26 26 25
42 42 42 41 40 39 39 40 39 37 35 35 35 35 34 33 34 34 34 34 33 33 34 33 33 33 32 31 31 31 30 30 30 30 30 29 28 28 29 28 28 28
43 43 42 41 40 40 40 40 40 39 37 35 34 35 35 34 34 34 35 35 35 34 34 34 33 33 33 32 33 33 32 31 31 31 31 30 29 29 30 29 29 29
41 41 41 40 39 40 41 40 40 40 38 37 36 35 36 36 35 34 34 35 36 35 34 34 34 34 34 34 34 34 34 33 32 32 32 32 31 31 31 30 29 29
39 39 39 39 39 39 40 39 39 39 39 38 38 36 35 36 37 36 34 34 36 37 36 35 35 35 35 35 35 35 35 35 34 33 33 33 33 33 32 31 31 31
39 38 38 39 40 39 39 39 38 38 38 38 38 37 36 36 36 37 36 35 36 37 38 37 36 36 36 36 36 36 36 36 35 34 34 33 34 34 34 33 33 33
40 40 40 41 41 41 40 39 38 37 37 39 38 38 37 36 36 37 38 38 37 37 37 38 38 37 37 37 36 36 36 36 36 35 35 34 34 34 35 35 35 35
41 42 42 43 43 43 41 39 38 37 37 38 39 38 37 36 36 37 38 39 39 39 37 38 38 38 38 38 37 36 36 36 36 36 36 35 35 35 35 36 36 36
42 43 43 43 43 43 42 40 39 39 38 37 38 39 38 37 37 38 38 39 39 40 39 38 38 39 39 38 38 37 37 36 36 36 36 36 36 35 35 36 36 37
42 42 43 42 42 42 42 41 40 40 39 38 38 40 40 39 38 38 38 39 39 39 40 39 39 39 40 40 39 39 38 37 37 37 36 36 36 36 36 36 37 38
41 40 41 41 41 41 42 41 40 40 40 40 40 41 41 41 39 38 37 39 39 38 39 39 39 40 41 42 42 41 40 38 38 38 37 37 36 36 36 37 38 39
39 39 39 40 40 40 41 41 41 40 40 40 40 40 41 41 40 39 38 38 38 39 39 39 41 41 41 43 43 43 42 40 39 38 38 38 38 37 38 39 39 39
39 39 39 39 40 40 40 41 41 40 40 40 40 40 39 39 40 41 40 38 38 39 40 40 42 43 43 43 44 44 44 42 40 39 38 39 39 39 39 39 38 39
39 39 39 39 40 40 40 40 40 40 39 39 39 39 38 38 39 40 40 38 37 38 40 41 42 43 44 44 45 45 46 44 42 40 39 39 39 40 40 39 39 39
38 38 39 39 39 39 38 38 39 40 39 38 38 37 37 37 38 39 39 39 38 38 40 41 43 44 44 45 46 46 46 47 46 42 40 39 39 40 40 39 40 39
38 38 38 38 37 38 38 37 38 38 39 38 37 37 38 38 38 38 39 40 41 39 38 40 42 44 44 45 46 46 46 47 47 45 42 40 39 39 39 40 40 40
38 37 37 36 36 36 36 37 37 37 38 37 36 36 37 37 37 38 39 40 41 41 39 38 40 42 44 45 45 45 46 46 47 46 44 41 40 39 39 39 39 40
37 37 36 35 35 35 35 36 36 36 36 36 36 34 34 35 37 38 39 39 39 40 40 39 39 40 42 44 45 44 44 45 46 46 44 43 41 38 37 38 39 40
36 36 35 35 35 35 34 34 34 35 35 35 36 35 35 35 37 37 37 38 38 39 41 41 40 39 39 40 42 43 44 45 45 44 43 42 39 37 37 38 39 40
35 35 35 35 35 34 33 33 33 33 33 34 35 35 34 34 34 34 35 36 37 39 39 39 39 39 37 36 36 37 40 44 43 41 41 39 37 37 38 40 41 40
34 34 35 34 34 33 32 32 32 31 31 32 32 33 33 32 31 31 32 34 36 36 37 37 37 36 35 34 32 31 34 39 41 40 39 37 36 36 37 38 39 39

ECMWFNIL_925_spd_066.txt.gz
Wind_Speed
40 38 38 36 35 36 37 37 36 36 36 35 35 34 34 34 32 30 29 28 28 28 27 25 24 23 23 21 21 21 20 21 22 21 21 20 19 18 18 19 18 19
40 39 38 37 35 34 35 37 37 36 36 36 36 35 34 33 32 31 30 30 30 29 29 28 26 25 25 23 22 22 22 23 23 23 22 22 20 19 18 19 20 20
40 39 39 38 37 36 35 36 36 36 36 36 35 34 34 33 33 32 31 31 31 31 31 30 28 27 26 26 25 24 24 25 25 24 24 23 22 21 20 19 20 20
40 40 40 40 40 39 36 34 34 35 35 35 35 35 34 34 33 32 32 32 32 32 32 31 30 29 28 28 28 27 26 26 26 25 25 25 24 23 22 21 21 21
42 41 41 41 40 38 36 34 35 35 35 36 36 35 35 34 34 33 33 33 33 32 32 32 32 31 30 29 29 29 29 28 27 26 27 27 26 25 25 24 24 23
41 41 41 40 39 37 36 36 37 36 37 37 36 35 36 35 35 34 34 34 34 33 33 33 33 32 32 31 31 31 30 30 29 28 28 28 28 27 26 26 26 26
40 41 40 39 37 36 37 37 37 37 38 38 37 36 35 35 35 35 35 35 35 34 34 33 33 34 33 33 33 33 32 32 31 30 30 30 30 29 28 28 28 28
41 41 39 38 37 36 36 37 37 37 37 37 36 36 36 35 35 35 35 35 36 36 35 34 34 34 34 34 34 35 34 34 33 33 32 32 31 31 31 30 30 30
39 38 38 37 37 37 37 37 37 37 36 36 37 38 37 37 37 36 35 35 36 36 36 36 36 36 36 36 36 36 36 36 35 35 35 34 34 34 34 32 32 32
36 36 36 37 37 38 38 38 37 36 35 35 37 37 37 39 39 38 37 36 36 37 37 37 37 37 37 37 38 38 37 37 36 36 36 36 36 36 36 35 34 34
37 37 37 38 38 39 39 39 38 36 36 36 36 36 37 38 38 38 38 38 38 39 39 39 39 39 39 39 39 39 39 38 37 37 37 37 38 38 37 36 36 37
39 39 39 40 40 40 40 39 38 37 37 37 37 36 36 37 38 38 39 40 41 41 40 40 40 39 39 40 40 40 39 39 38 38 38 38 39 39 38 38 38 39
40 41 41 41 41 41 40 39 39 39 39 39 39 38 37 37 38 39 40 41 42 42 41 42 41 40 40 40 40 40 40 39 39 39 39 39 39 40 39 39 40 40
41 41 41 41 41 41 40 39 40 40 40 40 40 40 40 39 39 40 40 41 41 41 41 41 40 40 40 40 40 40 40 39 39 39 39 39 40 40 40 39 40 40
40 39 40 40 39 39 40 40 40 40 40 40 41 42 42 42 41 41 40 40 40 41 41 41 40 41 42 42 42 41 40 40 40 39 40 40 40 40 40 40 40 40
38 38 38 38 39 39 40 40 40 39 39 40 41 42 42 42 41 41 40 40 41 41 42 41 41 42 44 45 44 43 41 40 39 40 40 39 39 39 39 40 40 40
37 37 37 37 38 39 39 40 40 39 39 40 40 41 41 41 40 40 41 40 41 42 42 42 43 44 45 46 46 45 43 41 40 40 39 38 38 38 39 39 39 40
37 37 37 37 38 38 39 39 39 39 39 39 39 39 39 39 40 41 41 41 41 41 42 43 44 46 46 47 47 47 46 43 41 39 37 37 37 38 38 38 37 38
37 37 37 38 38 38 38 38 38 39 39 39 39 38 38 38 40 41 41 41 41 41 42 44 45 46 47 47 47 47 47 45 43 39 37 37 37 37 38 37 37 37
38 38 38 38 38 39 38 38 38 39 40 40 38 37 38 39 41 42 42 42 42 42 42 43 45 46 46 46 47 47 47 47 45 41 38 37 38 38 37 38 39 38
38 38 38 38 38 38 38 38 39 39 39 39 38 38 39 40 40 41 42 43 44 44 42 41 44 46 46 46 47 47 47 47 46 43 40 38 38 38 38 39 40 39
37 37 37 37 37 37 38 38 38 39 39 38 37 37 38 39 39 40 41 42 43 43 42 41 44 46 46 46 47 47 47 46 45 44 42 40 40 39 39 40 39 39
38 37 37 37 37 37 37 37 38 38 38 38 37 37 37 38 39 39 40 41 41 41 42 43 44 44 45 47 47 46 45 45 45 43 42 41 41 40 39 39 39 40
38 38 37 37 37 37 37 37 37 37 37 38 38 38 38 38 38 38 38 39 39 41 43 44 43 42 43 44 45 45 44 44 44 42 41 41 41 40 40 40 39 40
39 39 39 37 37 37 37 37 37 37 38 39 39 39 38 37 36 36 36 37 38 40 41 42 41 39 38 39 41 41 42 43 42 40 39 38 38 38 39 39 39 39
38 39 39 38 38 37 37 37 37 37 37 37 37 37 36 35 35 35 35 36 37 38 38 39 39 36 34 34 36 37 39 41 41 40 38 37 36 36 37 37 37 37

ECMWFNIL_925_spd_069.txt.gz
Wind_Speed
40 38 37 36 35 34 34 33 33 33 34 35 35 35 34 32 31 31 29 27 26 25 25 25 24 23 22 20 20 19 18 18 19 19 19 20 20 19 18 19 19 19
39 38 37 36 35 34 34 34 34 33 34 36 36 36 34 33 32 31 30 28 27 26 25 26 25 24 23 22 21 20 20 19 20 20 20 21 21 21 20 20 20 20
39 38 37 36 36 36 35 35 34 34 34 35 35 35 34 33 32 32 31 29 29 28 27 26 26 25 24 23 22 22 22 21 21 21 21 21 22 22 22 21 21 20
39 39 39 38 37 37 35 34 34 35 34 34 35 36 35 34 33 32 32 31 30 29 28 28 27 26 25 24 24 24 24 24 22 21 22 22 23 23 23 22 22 22
41 40 39 39 38 36 34 34 35 35 35 35 36 35 35 34 33 33 33 32 32 31 30 29 28 27 27 26 26 26 26 26 25 23 24 24 24 24 24 23 24 24
40 40 40 40 38 36 35 35 36 35 36 36 35 35 35 34 34 33 33 33 33 32 32 31 30 29 29 28 28 28 28 28 27 26 26 27 26 26 26 26 26 26
39 40 40 39 37 36 36 36 36 35 35 35 34 35 35 35 35 34 34 33 33 33 33 32 32 31 30 30 30 30 30 29 29 29 29 29 28 28 28 28 28 28
39 39 39 38 36 36 36 36 35 35 34 33 33 34 35 35 36 35 34 34 34 34 34 34 34 33 32 32 32 32 32 31 31 31 31 31 30 30 31 30 30 31
39 39 38 37 36 36 36 36 35 35 34 33 33 34 34 35 36 35 35 34 34 35 35 35 35 35 34 34 34 34 33 33 32 32 32 32 32 33 33 32 32 32
37 37 36 37 37 37 36 36 36 35 35 35 35 34 33 35 35 35 35 35 35 36 36 36 36 36 36 35 35 35 34 34 34 33 34 34 34 35 34 33 32 33
36 35 35 36 37 37 37 37 37 36 35 35 35 34 34 34 34 34 35 35 36 37 38 38 37 37 37 37 36 36 35 35 35 35 35 35 36 36 34 33 33 35
36 36 37 38 38 38 38 38 37 36 36 36 36 36 35 35 34 34 35 36 38 38 38 38 38 37 38 38 37 36 35 36 35 36 36 36 37 36 35 35 35 36
39 40 40 40 40 40 39 38 38 37 37 36 36 36 36 36 35 35 36 37 38 38 38 38 37 37 38 38 37 37 36 36 37 37 37 37 37 37 36 35 36 37
40 40 40 40 40 39 39 38 38 38 38 37 37 37 37 37 36 36 37 37 38 38 38 37 36 37 38 38 38 38 37 37 38 38 38 38 38 37 36 35 36 37
38 38 38 38 38 37 38 38 38 38 38 38 38 38 38 38 37 37 37 37 38 38 38 37 36 38 40 40 39 39 38 38 38 38 38 38 38 37 36 35 36 36
37 37 37 37 37 37 38 38 37 37 37 38 38 38 37 37 37 36 36 37 37 38 38 37 38 40 42 42 41 40 39 38 38 38 38 38 37 36 35 36 36 36
36 36 36 36 37 37 37 37 37 36 37 37 37 37 37 37 36 36 36 37 37 37 38 38 39 42 43 43 43 42 41 39 37 37 37 36 36 36 36 36 35 35
36 36 36 36 36 37 37 37 37 37 37 37 37 37 36 36 37 37 37 37 37 38 38 39 40 42 43 43 43 43 42 41 39 36 35 35 35 36 36 36 35 35
37 36 36 36 37 38 38 37 37 37 37 37 37 36 35 36 38 38 38 38 38 38 39 39 40 41 42 42 43 43 43 42 40 38 35 35 35 35 36 36 36 36
37 36 36 37 37 38 37 37 37 38 38 38 36 36 36 37 38 38 39 39 39 40 40 40 41 41 42 42 43 43 42 41 41 40 38 37 36 35 35 36 37 36
36 36 36 37 37 37 37 37 38 38 38 37 36 37 38 38 38 38 39 39 39 40 39 40 42 42 41 42 42 43 42 41 41 41 40 39 38 37 37 37 37 35
36 36 36 36 36 36 36 36 37 37 37 37 37 37 37 38 38 38 38 38 39 39 39 41 42 42 41 41 41 41 40 40 40 40 40 40 40 39 38 37 36 35
37 37 36 36 36 35 36 36 37 38 38 38 37 36 36 37 38 38 38 38 38 38 39 41 42 41 41 41 41 39 38 38 39 40 40 40 41 40 39 38 37 37
37 38 37 37 36 36 36 37 37 38 38 38 37 37 37 37 37 37 38 38 38 39 40 41 41 41 40 40 40 38 37 38 39 39 39 39 40 40 39 38 38 38
38 38 39 38 37 37 37 38 38 39 38 38 37 37 37 37 36 36 36 37 38 39 40 40 40 39 39 39 39 37 36 37 38 37 37 37 38 38 38 37 37 38
38 38 39 38 37 38 38 38 39 38 37 36 36 36 36 35 34 34 34 35 36 37 38 40 40 39 39 39 38 37 36 36 36 37 37 37 37 36 36 36 36 37

ECMWFNIL_925_spd_072.txt.gz
Wind_Speed
36 35 35 34 33 33 32 32 32 32 32 32 32 32 32 31 29 28 27 26 25 25 24 22 21 20 20 21 21 20 18 17 16 16 15 16 17 18 19 19 18 17
37 36 35 34 33 33 33 33 32 32 33 33 33 32 32 31 30 29 28 27 26 26 25 24 22 21 20 21 21 21 19 18 17 17 16 17 18 18 19 20 19 19
37 36 36 35 35 34 34 33 32 32 32 32 33 32 32 32 31 30 29 28 27 27 26 25 23 22 21 21 21 21 20 19 19 18 18 18 18 19 19 19 20 20
37 37 37 36 36 35 34 32 32 32 32 32 33 33 32 32 31 31 30 29 28 27 27 26 24 23 23 22 21 22 22 21 20 19 19 19 19 20 20 20 20 20
38 37 37 37 36 34 33 33 33 33 33 33 33 32 32 32 32 31 30 30 29 28 28 27 26 25 24 23 23 23 23 22 21 20 21 21 21 21 21 21 21 21
37 38 38 37 36 34 34 34 34 34 33 33 32 32 32 31 32 31 31 30 30 30 29 29 28 27 26 25 24 24 24 24 23 22 22 23 23 22 22 22 23 23
37 38 38 37 36 35 35 35 35 34 33 32 31 31 31 31 32 32 31 30 30 30 30 30 30 29 28 27 26 26 25 25 25 24 24 24 24 24 24 24 25 25
38 38 37 37 35 35 35 35 34 33 33 32 31 32 32 32 32 32 32 31 30 30 30 30 31 30 30 28 28 28 27 26 26 26 26 26 25 26 27 26 27 28
37 37 37 36 36 35 35 35 34 33 32 32 32 32 32 33 33 33 32 32 31 31 31 31 31 31 31 30 30 29 28 28 28 27 27 27 27 28 28 28 28 29
36 36 36 36 36 36 36 35 34 33 32 32 32 32 32 33 33 33 33 32 32 32 32 32 32 31 31 31 31 30 30 29 29 28 29 29 29 29 29 28 29 30
36 35 35 36 36 36 36 36 34 33 33 33 33 32 32 32 32 33 33 33 34 34 33 33 33 32 32 32 32 31 31 31 30 30 30 30 30 30 30 29 29 31
36 35 35 36 37 37 36 36 35 34 34 33 33 33 32 32 32 33 33 34 35 35 34 34 33 33 33 33 32 32 32 32 32 31 31 31 31 31 31 30 30 32
37 37 37 38 38 38 37 37 36 36 35 34 34 33 33 33 33 33 33 35 36 35 35 34 34 33 34 34 33 33 33 33 33 32 32 32 32 32 31 31 31 32
39 39 40 40 39 38 38 37 37 36 36 35 34 34 35 35 34 34 34 35 35 36 35 34 33 34 34 34 34 34 34 34 33 33 32 32 32 32 32 31 32 32
40 39 39 39 37 37 36 36 36 36 36 35 35 35 35 35 34 34 34 34 35 35 34 34 34 35 36 36 36 35 35 35 34 33 32 32 31 31 31 32 32 33
38 37 37 36 36 36 36 37 36 36 35 35 35 35 35 34 33 33 33 34 34 34 34 33 34 36 37 37 37 36 35 35 34 34 33 32 31 31 31 31 31 32
36 36 35 35 36 36 36 37 36 35 35 35 35 35 34 33 33 33 34 34 34 34 34 34 35 37 37 37 37 36 36 35 34 33 32 32 32 32 32 32 31 31
36 35 35 36 36 36 36 36 36 35 35 35 35 35 34 34 34 34 34 34 34 34 34 35 37 38 37 37 37 37 36 35 34 33 32 32 32 32 32 32 32 32
36 36 36 36 37 37 37 36 36 36 36 36 35 35 35 35 35 35 35 35 35 35 35 36 37 37 37 37 37 37 37 36 35 34 32 32 32 32 32 32 32 33
36 36 36 37 37 37 37 36 36 37 37 37 36 35 35 35 36 36 36 37 37 37 37 36 37 37 37 37 37 37 36 35 35 35 34 33 32 32 32 33 33 33
37 37 36 36 37 36 36 36 36 37 37 36 35 35 36 37 37 37 37 38 38 37 37 37 39 38 37 37 37 37 35 34 35 35 35 34 33 33 34 34 34 33
36 36 36 36 36 35 35 35 36 36 37 36 35 35 35 36 36 36 37 37 37 37 36 38 40 39 38 38 38 36 34 33 34 35 35 34 34 34 35 36 35 34
36 36 36 36 35 34 34 36 36 37 37 36 35 34 35 35 36 36 36 37 37 36 37 39 39 38 38 39 38 36 34 34 34 35 35 35 35 35 36 36 36 35
37 37 37 35 35 35 36 37 37 37 37 37 36 35 36 37 36 35 36 36 37 37 38 38 38 38 38 39 38 36 35 34 35 35 35 34 35 35 36 35 36 36
37 37 37 36 35 36 37 38 38 37 37 36 35 35 36 36 35 34 34 34 36 37 37 38 38 38 38 38 37 35 35 35 35 34 33 33 34 34 34 34 35 35
36 37 37 36 36 37 38 38 38 37 35 33 33 34 34 34 33 32 32 33 34 35 36 37 38 38 37 37 36 35 35 35 35 34 33 33 33 33 33 32 33 34

ECMWFNIL_925_spd_078.txt.gz
Wind_Speed
24 23 22 21 21 20 20 19 18 19 19 18 17 16 16 16 15 15 15 14 14 14 14 13 13 13 12 10 10 9 8 8 9 8 8 8 8 7 7 7 7 7
25 24 23 22 21 20 20 20 19 19 19 19 17 15 15 15 15 16 16 15 15 15 15 14 14 14 13 11 11 10 9 9 9 9 9 9 9 8 8 8 8 8
26 25 25 24 22 21 21 20 20 19 19 18 17 16 15 15 15 16 16 16 15 15 15 15 15 14 14 13 12 11 10 9 10 9 10 10 10 9 9 9 9 9
28 26 26 25 22 22 22 20 20 20 19 18 18 17 16 15 15 15 16 16 15 15 15 15 15 15 14 14 13 12 11 10 10 10 10 11 10 10 10 9 9 9
29 27 26 25 23 22 21 21 20 20 19 19 18 18 17 16 16 15 15 15 16 15 15 15 16 15 15 15 14 13 12 11 11 10 11 11 11 11 10 10 10 10
28 28 27 25 23 22 22 22 22 21 20 20 19 18 18 18 18 17 16 16 16 16 16 16 16 16 15 15 15 14 13 12 11 11 11 12 12 12 11 11 11 11
29 29 28 25 24 23 23 22 22 21 20 19 19 19 18 18 18 18 17 17 16 16 16 16 16 16 15 15 15 15 14 13 12 11 12 12 12 12 12 12 12 12
29 28 28 26 25 24 24 22 22 22 21 19 19 19 19 19 19 18 18 18 17 17 16 16 16 16 16 15 16 15 15 14 13 13 13 13 13 13 13 13 13 14
29 28 28 27 26 25 25 24 23 22 21 21 20 19 19 20 19 19 19 19 18 18 17 17 17 17 16 16 16 16 16 15 14 14 15 15 14 14 14 13 14 14
29 28 28 28 27 26 26 25 23 22 22 22 22 20 19 20 20 20 19 19 19 19 18 18 18 18 17 17 17 17 17 16 16 15 16 16 16 15 14 14 14 14
30 29 29 29 28 27 26 26 24 23 22 23 23 22 20 20 20 21 20 20 20 20 19 19 19 19 19 18 18 17 17 17 16 16 17 17 16 16 15 15 15 15
31 30 29 29 29 27 27 26 25 24 23 23 23 23 22 21 21 21 22 22 21 20 20 20 20 20 20 19 18 17 17 17 16 17 17 17 17 17 16 16 16 16
32 31 30 29 29 28 26 26 26 25 24 24 23 24 23 23 22 22 22 22 22 21 21 21 20 20 20 20 20 19 18 17 17 17 17 17 17 17 17 17 17 16
32 31 30 29 28 28 26 26 26 26 25 24 23 24 24 24 23 22 22 22 22 22 22 21 21 21 20 21 21 20 19 18 18 17 17 17 16 17 17 17 17 17
31 30 29 28 27 27 27 26 26 26 26 24 24 24 24 24 23 22 22 21 22 22 22 21 21 21 21 22 21 21 20 19 18 18 18 17 16 16 17 17 18 18
30 28 28 28 28 28 28 27 26 26 26 25 24 24 23 23 23 23 22 21 21 21 21 21 21 21 23 25 24 22 20 19 18 18 17 17 17 17 17 18 18 18
29 28 28 29 28 28 28 28 27 26 25 25 25 24 23 23 23 23 23 22 21 21 21 22 22 23 25 28 28 26 22 18 17 17 17 17 18 18 18 18 18 18
29 29 28 28 28 28 28 28 27 26 25 25 25 24 24 23 23 23 23 22 21 21 21 22 22 24 27 29 29 29 27 22 18 16 17 17 18 19 19 18 18 18
29 29 29 28 28 27 27 27 27 27 26 25 25 24 23 23 23 23 23 23 22 21 22 22 22 23 27 30 30 30 30 27 22 18 17 18 18 18 18 18 18 17
29 29 29 28 27 27 26 27 27 27 26 25 24 23 23 23 23 23 23 23 23 22 22 22 21 22 26 29 30 30 29 29 27 22 20 20 19 19 19 18 18 18
30 29 28 27 27 27 27 27 27 27 26 25 23 23 23 23 23 23 23 23 23 23 23 23 23 24 25 27 29 29 28 29 28 24 21 21 21 21 20 20 20 19
30 29 28 27 27 27 27 27 27 26 26 25 23 22 22 22 23 23 23 24 24 24 24 24 24 25 27 28 28 27 26 27 27 25 22 22 22 22 22 22 21 21
29 29 28 28 27 28 28 27 26 26 25 25 24 23 22 22 23 23 24 25 25 25 25 25 24 24 27 29 29 27 26 27 26 23 22 23 23 22 22 22 22 23
29 29 28 28 28 28 28 27 26 25 25 25 25 25 24 23 22 22 23 24 25 26 26 25 24 24 26 29 29 29 28 27 25 22 22 23 22 23 22 22 23 25
28 28 28 28 28 27 26 26 25 25 24 24 24 24 24 23 22 21 22 23 24 25 26 26 24 23 26 29 30 30 31 29 25 22 22 23 22 22 22 22 23 25
27 28 28 28 27 26 25 24 24 23 23 23 23 22 22 22 22 21 21 21 21 22 24 25 25 24 25 29 30 31 32 31 27 24 23 23 22 21 21 21 22 22

ECMWFNIL_925_spd_081.txt.gz
Wind_Speed
23 23 22 22 22 21 21 21 19 19 19 18 17 17 17 17 16 15 14 14 14 13 13 12 11 10 9 8 8 7 7 6 7 7 6 6 6 6 6 5 5 5
25 23 23 22 22 21 22 21 20 20 20 20 18 16 16 17 17 16 16 15 15 14 14 13 12 11 10 9 9 9 8 8 8 7 7 7 7 7 6 6 6 6
26 25 24 23 23 23 22 22 21 20 20 20 19 17 17 17 17 17 17 17 16 15 14 14 13 12 12 11 10 10 9 9 9 8 8 8 8 8 7 7 7 7
28 27 26 25 23 23 23 22 22 21 20 19 20 19 18 17 17 17 18 18 17 16 16 15 14 13 13 12 11 11 10 10 10 9 9 9 9 9 8 8 7 7
30 29 27 25 24 23 23 23 22 22 21 20 20 20 19 18 18 18 18 18 18 17 17 16 16 15 14 13 13 12 11 11 11 10 10 10 10 10 9 8 8 8
30 29 28 26 25 24 23 23 23 23 22 21 21 20 20 20 19 19 19 19 19 18 18 17 17 16 15 15 14 13 12 12 12 11 11 11 10 10 9 9 9 9
31 30 28 27 26 25 24 23 24 23 22 22 21 21 21 21 21 20 20 20 20 19 19 18 18 17 17 16 15 15 14 13 12 12 12 12 11 11 11 10 10 10
31 30 29 28 27 26 25 24 24 24 22 22 22 22 22 21 22 21 21 21 20 20 20 19 19 18 17 17 17 16 15 14 13 14 13 13 12 12 12 12 11 11
31 30 29 29 28 27 27 26 25 24 23 23 22 22 22 22 22 22 21 21 21 20 20 20 19 19 19 18 18 17 17 16 15 15 15 15 14 13 13 13 12 13
31 31 30 30 29 28 28 27 26 25 24 24 23 22 22 23 22 22 22 22 21 21 21 20 20 20 20 19 19 19 19 18 17 17 16 16 16 15 15 14 14 14
33 32 31 31 31 29 28 28 27 25 25 24 24 23 23 23 23 23 22 23 22 22 22 22 21 21 21 20 20 20 20 19 19 18 18 17 17 17 16 15 15 15
34 33 33 33 32 30 28 28 28 26 25 25 24 24 24 23 23 24 23 23 23 23 23 23 22 22 22 21 20 20 20 20 19 19 19 18 18 18 17 17 16 16
36 35 34 33 32 31 29 28 28 27 26 25 25 25 24 24 24 24 24 24 24 23 23 23 23 22 22 22 21 21 20 20 20 19 19 19 19 19 18 18 17 17
36 35 34 33 32 31 29 28 28 28 27 26 25 25 25 25 24 24 24 24 24 24 23 23 23 23 22 23 22 22 21 21 20 20 20 19 19 19 19 18 18 18
34 33 33 32 31 31 30 29 28 28 28 26 26 25 25 25 25 24 24 23 24 24 23 23 23 23 23 24 23 23 23 22 21 21 20 20 19 19 19 19 18 19
32 32 32 32 31 31 31 29 28 28 28 27 26 26 25 26 25 25 24 24 23 24 24 23 23 23 24 26 26 25 24 23 22 21 21 20 19 19 19 19 19 19
32 31 32 32 32 31 31 30 29 28 28 28 27 26 26 25 25 25 25 24 24 24 24 24 24 24 26 29 30 28 25 23 22 22 21 21 20 20 19 19 19 19
32 31 31 32 32 31 31 31 29 28 28 28 28 27 26 25 25 26 26 24 24 24 24 24 24 25 27 30 32 32 29 24 21 21 21 21 21 21 20 19 19 19
31 31 31 31 32 31 31 30 30 29 28 28 28 27 26 25 26 26 26 25 24 24 24 24 24 25 29 31 32 33 33 28 23 20 21 21 21 21 21 20 19 19
31 31 31 31 31 31 30 30 30 30 29 28 27 26 26 26 26 26 26 27 26 24 24 24 24 25 28 31 32 33 34 33 27 21 20 21 21 21 20 20 20 19
31 31 30 30 31 30 30 30 30 29 28 27 26 26 26 25 25 25 26 26 26 25 24 24 24 25 27 29 32 32 33 34 31 24 20 19 20 20 20 20 20 20
31 31 30 30 30 30 29 29 29 29 28 27 26 25 25 24 24 25 25 25 26 26 26 25 24 24 26 27 29 30 30 32 32 26 21 20 20 20 21 20 20 20
31 31 30 29 30 30 29 29 29 28 28 27 25 25 25 24 24 24 24 24 25 26 26 25 24 25 27 27 27 27 28 30 30 26 22 22 21 20 20 20 21 21
32 31 30 30 30 30 29 29 28 27 27 27 26 25 25 24 23 23 23 24 25 26 26 25 25 27 28 28 28 28 28 29 28 24 21 21 21 21 20 20 21 23
31 31 30 30 30 30 29 28 27 26 26 26 25 25 24 24 23 22 22 23 24 25 26 26 25 26 28 30 30 30 30 30 27 23 21 21 20 20 20 20 21 23
30 31 31 30 29 29 27 27 26 25 25 25 24 24 23 23 24 23 23 22 22 23 25 26 25 25 27 29 31 32 33 32 28 23 21 21 20 20 19 19 20 22

ECMWFNIL_925_spd_084.txt.gz
Wind_Speed
31 31 29 27 26 25 23 22 22 22 21 20 20 20 20 19 17 16 17 17 16 15 14 13 13 13 11 9 9 9 7 6 6 6 5 6 6 5 5 5 4 4
32 31 30 28 27 26 25 24 23 22 23 22 20 20 20 20 19 18 18 18 18 16 16 15 14 14 13 11 11 10 9 8 7 7 6 6 6 6 5 6 6 5
33 32 31 29 28 27 26 25 24 23 23 23 22 20 19 20 20 20 19 19 19 18 17 17 16 15 14 13 12 11 10 10 9 8 8 7 7 7 6 6 7 8
35 33 33 31 28 28 27 26 25 25 23 23 23 22 20 19 21 22 21 20 20 19 19 19 17 17 16 15 14 12 11 11 10 9 8 8 8 8 8 7 7 8
37 34 33 31 29 28 28 27 26 26 25 23 23 23 22 21 21 23 23 22 22 21 20 20 19 18 17 16 16 14 13 12 11 11 10 9 9 9 8 8 8 7
37 35 33 32 30 29 28 28 27 27 26 25 24 24 24 23 23 23 23 23 23 22 21 21 20 19 18 18 17 16 15 13 12 13 12 11 10 10 9 9 9 9
36 36 34 31 30 30 29 29 28 27 26 26 25 25 25 25 24 24 24 24 24 23 22 22 21 21 19 19 19 18 17 15 14 14 14 13 12 11 11 10 10 10
36 35 35 32 30 30 29 28 29 29 27 26 26 26 27 27 26 25 25 25 25 24 24 23 23 23 21 20 21 20 19 17 16 16 15 15 14 13 13 12 11 11
36 35 35 33 30 30 29 28 28 29 29 28 26 26 27 28 28 27 26 27 26 25 25 25 25 25 23 22 22 22 21 19 17 17 17 16 16 15 15 14 13 13
35 34 34 34 32 30 30 29 28 28 29 29 27 27 28 29 29 28 28 28 27 26 27 26 25 26 25 23 23 23 22 21 19 19 19 18 18 17 16 15 16 15
35 34 34 34 33 32 31 30 28 27 28 29 28 27 28 29 30 29 29 29 29 27 28 28 27 27 27 26 24 24 23 23 21 20 20 19 19 19 18 17 17 17
36 35 34 35 34 32 31 31 30 28 28 29 29 28 28 28 29 30 30 30 31 29 28 29 29 28 29 28 26 25 24 23 22 21 21 20 20 20 19 20 19 19
37 37 36 35 35 33 31 31 31 30 29 30 30 29 28 28 28 29 30 30 31 31 29 29 30 29 29 29 27 26 25 25 23 22 22 21 21 21 20 20 21 21
37 37 36 35 35 34 33 32 32 31 31 31 31 30 29 28 28 29 29 29 31 32 30 29 30 30 29 30 29 27 26 26 25 23 22 22 22 22 21 21 21 21
37 36 36 36 36 36 34 33 32 32 31 32 32 31 30 29 28 29 29 28 29 31 30 29 30 31 30 31 31 29 27 26 26 26 24 24 24 23 23 22 22 22
37 36 36 36 37 37 36 34 33 32 31 31 33 32 31 30 30 29 29 29 28 29 30 29 29 31 32 32 32 32 29 27 27 27 26 25 25 25 24 23 23 23
36 35 35 36 37 37 37 36 33 33 32 31 32 33 31 31 31 30 30 29 28 28 29 29 29 30 32 33 33 33 32 29 27 28 28 27 26 25 25 24 23 23
35 35 34 36 37 37 38 37 34 33 33 31 31 33 33 31 31 31 30 29 29 28 28 29 30 30 32 34 35 34 34 32 29 27 27 28 27 26 26 25 24 23
34 34 34 35 37 37 37 38 36 33 33 32 30 31 33 31 30 31 30 29 29 30 29 28 28 30 31 33 35 36 35 33 29 27 26 27 27 27 26 26 26 25
33 34 34 35 36 36 36 37 37 34 33 32 30 30 32 31 29 29 30 30 29 29 30 29 27 29 31 32 34 35 36 35 32 27 25 25 26 26 26 26 26 27
34 34 34 34 35 36 35 36 36 35 33 32 31 30 30 31 30 29 29 30 29 27 29 29 27 28 29 32 33 34 35 36 34 29 25 23 24 25 25 26 26 27
35 34 34 34 34 35 34 35 36 35 34 33 31 29 29 29 30 29 28 29 30 28 27 26 26 27 29 30 32 33 33 35 36 33 27 24 22 23 24 26 26 26
35 35 34 34 34 35 35 35 35 35 35 33 31 28 28 28 28 28 28 28 29 29 29 27 25 26 28 29 31 32 32 34 35 35 32 29 25 22 22 22 24 25
35 35 35 34 34 35 34 34 35 35 35 34 32 29 27 27 27 27 28 28 28 29 30 29 27 26 27 28 29 31 32 33 34 34 32 30 29 27 24 22 22 24
34 35 35 34 34 34 33 34 34 35 35 34 33 31 28 27 26 26 26 27 27 28 29 30 29 28 29 28 28 30 32 33 34 33 30 28 28 29 28 27 26 26
34 35 35 34 33 34 34 34 33 33 33 33 33 31 29 27 26 26 25 26 26 26 28 30 30 30 31 31 30 31 32 33 34 32 30 29 28 27 27 28 29 29

ECMWFNIL_925_spd_087.txt.gz
Wind_Speed
38 37 36 34 32 30 30 29 28 27 27 26 26 24 22 20 20 20 21 20 19 18 17 16 15 14 15 11 12 16 13 10 10 9 10 10 11 11 9 8 8 7
39 38 37 36 34 32 31 30 30 29 29 28 28 26 24 22 21 21 22 22 20 19 19 18 17 17 17 15 15 16 14 13 12 10 10 10 11 10 9 8 7 6
40 39 38 37 37 35 33 31 31 31 30 29 29 28 26 24 23 22 22 23 22 20 20 20 20 19 19 18 17 17 17 16 15 12 10 10 11 11 10 9 8 7
40 40 39 38 38 37 35 33 32 31 31 30 29 28 27 26 25 25 24 24 23 22 20 20 21 21 20 19 18 17 17 17 16 15 13 11 11 12 12 11 8 8
42 41 40 39 38 37 36 34 33 33 32 31 30 29 27 26 26 27 26 25 25 24 22 21 22 22 20 20 19 17 16 16 16 17 16 14 13 13 13 13 10 8
42 41 40 39 38 37 37 37 35 34 33 32 31 30 29 27 27 28 28 27 27 27 25 22 23 23 21 21 21 19 17 16 16 16 17 16 15 14 13 14 13 10
41 41 41 40 39 38 38 38 37 35 34 33 33 32 31 29 29 29 30 30 29 28 27 25 24 25 24 22 23 22 20 18 17 17 18 18 17 16 14 13 14 13
41 42 41 40 39 39 38 39 38 37 36 35 34 34 34 32 31 31 31 32 31 30 28 27 26 27 26 24 24 25 24 22 20 19 19 19 19 18 17 15 14 14
41 41 41 40 40 40 39 39 39 38 37 36 35 35 35 35 34 33 33 34 33 32 30 29 28 28 28 27 27 27 27 26 24 22 21 21 21 20 19 19 18 16
40 41 41 41 40 40 40 39 39 38 38 37 37 35 35 36 36 35 34 35 35 34 32 31 30 30 30 30 29 29 28 28 26 25 24 23 22 21 20 20 21 20
39 40 41 41 41 40 40 39 38 38 38 37 37 36 35 36 36 36 35 36 36 35 34 33 32 32 32 32 32 31 29 29 28 28 27 25 24 22 21 21 22 22
40 40 41 42 42 41 39 39 38 37 38 38 37 36 35 35 37 36 36 36 37 36 35 35 35 34 34 34 33 32 31 30 29 29 28 27 26 25 23 23 22 22
41 42 42 42 42 41 40 38 38 37 37 38 38 37 36 35 36 37 37 37 37 36 36 36 36 35 35 35 34 32 31 30 29 29 29 28 28 28 26 25 24 23
42 42 42 42 42 41 40 39 38 37 37 37 38 38 37 36 37 38 38 38 38 37 37 37 37 36 36 36 35 33 32 31 31 30 30 29 28 28 28 27 25 25
41 40 41 41 41 41 40 39 39 38 37 37 38 38 38 37 37 38 38 38 38 38 37 37 37 37 37 36 36 35 33 32 31 31 30 30 30 28 28 28 27 26
39 39 39 39 40 41 41 40 39 39 38 37 38 38 38 36 36 37 38 38 38 38 37 37 37 37 38 38 37 36 35 33 32 32 31 31 30 30 29 29 28 27
38 38 38 39 40 41 42 41 40 39 38 38 38 38 38 37 36 36 38 38 38 38 38 37 37 37 38 39 39 38 37 35 33 33 33 32 31 30 30 30 29 29
37 38 38 39 39 40 42 41 40 39 38 38 38 38 39 38 36 36 37 38 37 37 38 38 38 38 39 40 40 40 39 37 35 33 33 33 32 31 31 30 29 29
38 38 38 39 39 40 41 40 39 39 39 38 38 38 39 39 38 36 36 38 37 36 37 38 38 39 39 40 40 41 40 38 37 34 33 34 34 33 32 31 31 30
38 39 39 38 39 39 39 40 39 39 38 38 37 38 39 39 39 37 35 36 38 37 37 37 38 39 39 39 40 40 40 40 38 36 34 33 33 34 33 32 32 31
39 39 39 39 38 38 38 39 40 39 38 37 36 37 39 40 40 39 36 35 37 38 37 36 37 38 39 39 39 39 40 40 39 36 34 32 32 32 33 33 33 32
40 39 39 39 38 38 38 39 40 39 38 37 35 34 37 39 39 39 38 35 35 37 38 36 36 37 38 38 38 38 39 39 39 37 34 32 31 31 31 32 32 32
41 39 39 39 39 39 38 39 39 39 38 37 35 33 34 36 38 38 38 37 35 35 36 37 36 36 37 38 37 37 37 38 39 39 36 34 33 31 30 30 31 32
41 40 39 39 39 39 39 39 39 39 39 38 36 33 33 34 36 36 37 38 37 35 34 35 35 36 36 36 36 36 36 38 39 39 38 36 35 33 30 28 27 29
41 40 40 40 40 40 40 39 38 39 39 38 37 34 32 32 35 35 34 36 37 36 35 33 32 34 35 35 35 35 36 38 39 38 37 36 36 35 34 31 28 27
40 41 40 40 39 39 39 38 38 37 38 38 37 35 33 30 32 34 34 34 35 35 35 34 32 31 32 33 34 35 36 38 39 38 37 37 36 36 36 36 35 33

ECMWFNIL_925_spd_090.txt.gz
Wind_Speed
38 36 37 39 38 37 35 34 33 32 31 32 31 29 29 28 27 27 25 23 22 20 20 20 19 17 16 16 19 18 16 14 14 15 15 17 18 16 14 11 10 10
39 37 37 39 39 38 37 35 34 32 32 32 32 30 29 27 26 26 26 25 23 21 21 21 20 19 18 17 17 19 19 16 15 15 15 16 18 17 15 13 11 11
41 39 38 39 41 40 38 36 34 32 32 32 31 31 30 28 26 26 25 25 24 23 22 22 21 21 21 19 17 19 22 19 16 15 14 15 18 17 16 14 11 11
43 41 41 41 41 42 40 38 35 33 31 31 31 31 30 29 27 26 25 25 25 24 24 24 23 23 22 21 19 20 22 21 17 17 15 15 17 18 17 15 13 12
45 44 43 42 42 41 41 40 38 36 34 33 32 31 30 29 28 27 26 26 26 26 25 25 26 25 24 24 23 22 23 22 20 19 18 17 16 18 19 17 15 14
44 44 43 42 41 41 41 41 41 39 38 37 35 34 33 31 30 29 28 28 28 28 28 28 28 28 27 26 26 26 25 25 23 22 21 20 18 17 18 19 18 16
42 43 42 42 41 41 41 42 41 40 39 38 38 37 36 35 33 32 31 30 30 30 31 30 30 30 30 29 29 28 27 27 26 25 24 23 21 19 19 20 20 19
42 42 42 41 41 41 42 42 41 41 40 39 38 38 37 37 36 35 34 33 33 33 33 33 32 31 30 31 30 30 29 28 27 27 27 26 24 22 21 20 21 21
42 41 41 41 41 41 41 42 41 41 40 39 39 38 37 37 37 35 34 35 35 35 34 34 34 33 31 31 31 31 30 29 28 27 27 28 27 26 24 22 21 22
41 41 40 40 40 41 41 42 42 41 40 40 39 38 38 38 37 36 35 35 36 36 35 35 35 34 33 32 32 31 31 31 30 28 27 27 28 27 26 25 23 22
41 40 40 40 41 41 41 41 41 41 40 40 39 39 38 38 37 37 36 36 37 36 36 36 36 36 35 33 32 32 32 32 31 30 29 28 28 27 26 26 25 24
41 41 40 41 41 41 40 40 40 40 40 40 40 39 38 38 37 37 37 37 38 37 37 37 37 36 36 35 34 33 33 32 32 32 31 30 29 27 26 26 25 25
41 41 41 40 41 41 40 39 39 39 39 40 40 39 38 38 37 38 38 38 38 38 38 38 37 37 37 36 35 34 33 33 33 32 32 32 31 29 28 27 26 26
40 40 40 40 40 41 40 39 39 39 39 39 39 39 39 38 38 38 38 38 39 39 39 39 38 38 37 36 35 34 34 34 33 33 33 32 32 31 30 29 29 28
38 38 38 39 39 40 40 40 39 39 39 38 38 39 39 39 38 37 37 38 39 39 39 39 38 38 38 37 36 35 34 34 34 34 34 33 33 33 32 32 31 30
37 37 37 38 39 39 40 40 39 39 38 38 39 39 39 39 38 37 37 38 38 38 38 38 38 39 40 39 38 37 36 35 35 35 35 34 33 33 33 33 33 33
37 37 37 37 39 39 39 40 39 38 38 38 39 39 39 39 38 37 37 38 38 38 38 38 38 39 40 41 40 39 38 36 35 35 35 35 34 34 33 34 34 34
38 38 38 38 39 39 39 39 39 38 38 37 38 38 39 38 38 38 38 37 38 38 38 38 39 40 40 41 41 41 40 38 37 36 35 35 35 35 35 34 34 34
38 38 39 39 39 40 39 38 38 38 38 38 37 38 38 38 39 39 39 38 37 37 38 38 39 40 41 41 41 41 41 40 38 36 36 35 36 36 36 35 35 34
39 39 39 39 39 39 39 38 38 38 38 38 37 37 37 37 38 39 39 39 38 38 38 38 39 41 41 42 42 42 41 41 39 37 36 35 36 36 36 36 35 35
39 39 39 39 39 38 38 38 38 38 38 37 36 36 37 37 38 38 39 40 40 39 38 38 39 41 42 42 43 42 41 41 41 39 36 35 35 35 35 36 36 36
38 38 38 38 38 38 37 38 38 38 38 37 36 36 36 36 37 38 39 40 40 39 38 38 40 41 42 43 43 42 41 40 41 40 38 36 36 35 35 36 36 35
37 38 37 37 37 37 37 37 37 37 37 37 36 35 35 36 36 37 38 39 40 40 39 39 40 41 42 43 43 42 41 40 40 40 39 38 38 37 37 37 37 36
37 38 37 37 37 37 37 37 37 37 37 37 37 36 36 36 36 36 37 38 39 40 40 40 40 40 42 43 43 43 42 41 41 40 39 39 39 38 38 38 38 38
38 38 38 38 38 38 37 37 37 37 37 37 38 37 36 35 35 35 36 37 39 40 41 41 40 40 41 43 43 43 42 42 41 39 37 38 39 38 37 37 39 39
37 39 39 39 39 38 37 37 37 37 36 37 37 37 36 35 35 35 36 36 37 38 40 41 41 40 41 42 43 42 42 42 41 39 38 38 39 38 36 36 38 39

ECMWFNIL_925_spd_093.txt.gz
Wind_Speed
39 38 37 34 33 33 34 33 32 31 30 28 27 26 25 24 24 22 21 21 20 19 18 18 18 17 16 15 14 14 14 13 13 13 14 15 15 14 13 12 11 9
40 40 39 36 34 34 34 34 33 33 32 30 28 27 25 24 25 24 23 22 22 21 19 19 19 19 18 16 15 14 15 15 14 13 14 15 16 16 16 14 12 10
40 40 40 39 37 35 35 35 34 34 33 31 29 28 27 26 26 26 25 24 23 22 21 19 20 21 20 18 16 15 15 17 16 14 14 14 14 16 17 16 14 12
41 41 41 41 39 37 36 35 35 36 35 32 31 30 29 28 27 27 26 26 25 24 22 21 20 21 21 19 18 17 16 17 17 15 15 14 14 14 16 16 15 13
42 43 42 42 40 38 36 35 36 37 36 34 32 31 30 30 29 28 28 27 27 26 24 22 21 21 22 21 20 19 18 17 17 17 16 15 14 14 15 16 16 15
42 42 42 41 40 39 37 37 38 38 37 35 33 32 31 31 30 30 29 28 28 27 26 24 23 22 22 22 22 21 20 18 18 18 18 17 16 15 15 17 18 18
41 41 40 39 39 39 38 39 39 39 38 37 35 34 33 32 32 31 30 29 28 27 27 26 25 24 24 23 23 23 22 20 19 20 21 20 19 18 17 18 19 20
41 41 41 39 38 38 39 39 39 40 40 38 37 36 34 33 33 32 31 30 29 28 27 26 25 25 25 25 25 25 24 23 22 22 23 23 22 22 21 20 19 20
40 40 40 39 38 38 38 39 39 40 39 38 38 37 35 34 34 33 32 31 30 29 28 27 26 26 26 26 27 27 27 27 26 25 25 25 25 25 24 23 22 22
39 39 38 38 39 39 39 39 39 39 38 38 38 37 36 35 34 34 33 33 32 31 30 29 28 28 28 28 29 29 29 29 29 29 28 28 28 29 28 27 26 25
39 38 38 38 40 40 40 40 39 38 38 38 38 37 36 36 35 35 34 34 34 34 33 32 31 31 30 30 31 31 31 31 31 31 31 30 30 30 30 30 29 29
39 39 39 40 41 41 41 41 39 38 37 37 37 37 36 36 36 36 36 36 36 35 35 34 33 32 32 32 32 32 32 32 31 31 31 31 31 30 30 30 30 30
39 40 40 40 40 41 41 40 40 39 38 37 37 36 36 35 35 36 37 37 37 37 36 36 34 34 34 33 33 33 33 33 32 32 31 31 31 31 30 30 30 30
40 39 40 40 40 40 39 39 39 39 39 38 37 36 36 36 35 35 36 37 37 37 37 36 35 35 34 34 34 34 33 33 33 33 32 31 31 31 31 31 31 31
39 38 39 39 39 39 39 40 39 39 39 38 37 37 37 37 36 35 35 35 36 36 36 36 36 36 36 35 35 35 34 34 34 34 33 33 32 32 32 32 32 32
38 38 38 38 39 39 40 40 39 39 38 38 38 38 38 37 36 35 35 35 35 35 35 35 36 37 37 37 36 36 35 35 35 35 34 33 33 32 32 33 33 33
37 37 37 38 39 39 39 39 39 38 37 37 38 38 38 37 36 36 36 35 35 35 35 35 36 37 37 37 37 37 36 36 35 35 35 34 34 33 33 34 34 34
37 37 37 37 38 39 39 39 38 37 37 37 37 37 37 37 37 37 37 36 35 35 35 36 37 38 38 38 38 38 38 37 36 36 35 34 34 34 34 35 34 34
37 37 37 37 38 38 38 37 36 37 37 37 37 37 37 37 37 38 37 37 36 35 36 36 37 38 38 38 39 39 39 38 37 36 36 35 35 35 35 35 34 34
37 37 37 38 38 38 37 37 36 37 37 38 37 36 36 37 38 38 38 38 37 37 37 37 37 38 39 39 40 40 40 39 38 37 36 36 36 36 35 35 35 34
38 38 37 37 37 37 37 37 37 37 37 37 36 36 37 38 38 38 38 38 38 38 37 37 38 39 39 39 40 40 40 40 39 38 37 36 37 36 36 36 36 36
35 36 36 36 36 36 36 36 37 37 38 37 36 36 37 37 37 38 38 38 38 37 37 37 38 39 39 39 40 40 40 39 39 39 38 37 37 37 37 38 38 37
30 32 34 35 35 35 35 36 37 37 38 38 36 36 36 36 37 37 38 38 38 38 38 38 39 39 39 40 40 40 39 39 39 39 38 38 38 38 38 38 39 38
25 30 32 33 34 36 36 37 38 38 39 38 38 37 37 37 37 37 37 38 39 39 39 40 40 40 40 40 40 40 39 40 40 39 38 38 38 39 39 38 39 39
21 27 31 33 35 36 37 38 39 39 39 39 38 38 38 38 37 37 37 38 39 39 40 40 41 40 40 41 41 40 40 40 39 38 37 37 38 38 38 38 38 39
17 23 31 35 35 37 38 39 39 39 38 38 37 37 37 37 36 37 37 37 38 38 39 40 41 41 40 41 42 41 40 40 39 38 37 37 37 37 37 37 38 38

ECMWFNIL_925_spd_096.txt.gz
Wind_Speed
35 35 35 33 32 31 30 28 28 27 27 26 25 23 22 20 20 19 18 18 18 17 15 13 12 11 11 10 10 10 9 9 9 9 10 11 11 11 10 8 7 7
35 35 35 34 33 32 31 30 29 28 28 26 25 23 21 20 19 19 19 19 18 17 16 14 13 12 12 12 11 11 10 10 10 9 10 10 11 12 11 11 10 9
36 36 36 36 35 34 33 31 29 28 28 27 25 24 22 20 19 19 19 19 19 18 17 15 14 13 12 13 13 12 12 11 10 10 11 11 11 11 11 12 12 11
37 37 37 37 36 35 34 32 30 29 28 28 27 25 23 21 19 19 19 19 19 18 17 16 15 14 13 13 14 14 13 12 11 11 11 12 11 11 11 11 11 11
38 38 38 37 36 35 34 33 33 32 30 29 28 26 25 23 21 20 20 19 19 19 18 17 16 15 14 14 15 16 16 14 13 11 12 12 12 12 12 11 11 10
38 38 38 38 36 35 34 34 35 34 32 31 30 28 27 26 24 23 22 21 20 19 19 18 18 17 16 16 16 17 18 17 15 13 14 14 13 13 12 11 11 10
37 38 38 37 36 35 35 35 35 35 34 32 31 30 29 28 27 25 24 23 22 21 21 20 20 19 18 18 17 18 19 19 17 16 16 15 15 14 14 12 12 12
37 38 38 37 36 36 36 36 36 36 34 32 32 32 31 30 30 28 26 25 24 24 23 22 21 20 20 20 20 19 20 20 19 19 18 17 17 16 16 15 14 14
37 37 37 36 36 36 37 37 37 36 35 33 33 33 32 31 31 30 29 27 26 26 25 24 23 22 21 21 21 21 21 22 21 21 20 20 20 19 18 18 17 18
36 36 35 36 37 37 38 38 37 36 36 35 34 33 33 33 33 32 30 29 28 28 27 27 26 25 24 23 23 22 22 23 22 22 23 23 23 22 21 21 21 21
36 35 35 36 38 39 39 39 38 37 37 36 35 34 34 33 33 33 32 31 31 30 30 29 28 27 26 26 25 24 24 24 24 24 24 24 25 24 24 24 24 24
36 35 35 37 38 39 39 39 38 37 37 37 37 36 35 34 34 33 33 32 33 32 32 31 30 29 29 28 28 27 26 26 25 25 26 26 26 26 25 25 26 26
36 36 37 37 38 39 39 38 38 37 37 37 37 37 36 35 35 35 34 34 34 33 33 32 31 31 31 31 30 30 29 28 28 28 28 28 28 28 27 26 26 26
37 37 37 37 38 38 37 37 37 37 37 37 36 36 37 37 36 37 36 35 35 34 34 33 33 33 33 33 32 32 31 31 30 30 30 30 30 30 29 28 28 27
37 36 36 36 36 36 36 37 37 37 37 37 37 37 38 38 37 37 36 36 36 36 35 35 34 35 35 35 35 34 33 33 32 31 31 31 31 31 30 30 29 28
37 36 36 36 36 37 37 37 37 37 37 37 37 38 38 38 37 37 37 37 36 36 36 36 36 37 37 37 36 36 35 34 33 33 32 32 31 31 31 31 30 30
37 37 36 36 37 38 37 37 37 36 36 36 37 38 38 37 37 36 37 37 37 37 37 37 38 39 39 39 38 37 36 35 34 34 33 33 32 32 32 32 31 31
37 36 36 37 37 37 37 37 36 35 35 35 36 37 37 36 36 37 37 37 37 37 37 38 39 40 41 40 40 39 37 36 36 35 34 33 33 33 33 32 32 31
37 36 36 37 37 38 37 36 34 34 35 35 36 36 36 36 37 37 37 37 37 37 38 38 39 40 41 41 40 39 38 37 36 36 35 35 34 34 34 33 32 31
36 35 36 37 37 37 36 34 34 35 36 36 35 34 34 35 36 37 37 37 37 38 39 39 39 40 41 41 41 40 38 37 37 37 36 36 35 34 34 34 33 32
36 36 36 36 36 35 34 33 34 35 35 35 34 34 35 36 36 36 37 38 38 38 38 39 40 41 40 41 41 40 39 37 37 37 37 36 35 35 34 34 34 33
36 36 36 35 34 32 32 32 33 34 35 35 34 33 34 35 35 36 37 37 38 37 37 39 41 41 41 41 41 40 39 37 37 37 37 36 36 35 35 35 35 34
35 35 35 34 33 32 33 34 34 34 34 33 32 32 33 34 35 36 37 37 37 37 37 39 41 42 41 42 42 40 38 37 37 38 37 37 37 36 36 35 35 35
36 36 36 35 35 35 36 37 37 37 36 33 30 30 32 34 35 35 35 36 37 38 39 40 41 42 41 41 42 40 39 38 38 38 37 37 37 37 36 36 36 36
34 36 37 36 37 38 38 37 36 35 33 34 34 35 35 35 34 33 33 35 37 38 39 39 41 41 40 41 41 40 39 39 38 37 36 36 36 36 36 36 37 37
26 31 35 36 38 39 39 37 35 32 33 36 39 39 38 36 34 34 34 35 36 37 38 39 40 41 40 41 40 40 39 39 38 37 37 36 36 36 36 36 36 37

ECMWFNIL_925_spd_099.txt.gz
Wind_Speed
33 33 32 31 30 27 25 25 23 22 21 19 18 18 17 16 15 14 14 13 12 12 12 11 10 9 8 8 8 8 7 7 6 7 7 7 7 8 8 7 5 4
34 34 34 32 31 30 28 26 25 24 23 21 19 18 18 17 16 15 15 15 14 13 13 13 11 10 9 9 9 8 8 8 7 7 6 6 7 7 8 8 7 7
35 35 35 34 33 31 29 28 27 25 24 23 22 20 19 18 17 16 16 16 15 14 13 13 13 12 10 10 9 9 9 9 8 7 7 7 7 7 7 7 7 7
36 36 36 35 34 32 30 29 28 26 25 25 24 22 21 19 18 17 16 16 16 15 15 14 14 13 12 11 10 10 11 11 10 9 8 7 7 7 7 7 7 7
37 37 37 36 35 33 32 30 29 28 27 26 26 24 23 21 20 19 18 16 15 15 15 15 15 14 13 12 11 11 12 12 12 11 10 8 8 7 8 8 7 7
36 37 37 36 36 34 33 31 31 30 28 27 27 26 24 23 22 21 20 18 17 15 15 14 14 14 14 13 13 13 13 12 12 14 13 10 9 8 8 9 8 7
36 36 37 36 35 35 34 33 32 32 30 29 28 28 26 25 23 22 21 20 19 17 16 15 14 14 14 14 14 14 14 14 14 15 15 13 12 11 10 10 9 8
33 33 35 35 33 33 34 34 33 33 32 30 29 29 28 27 25 24 23 22 21 20 18 17 16 15 15 15 15 15 15 15 15 16 16 15 14 14 12 11 11 11
31 31 33 33 31 31 32 33 33 34 34 32 31 29 29 29 27 25 25 24 23 22 21 19 19 18 17 17 16 16 16 16 16 16 17 16 15 15 14 13 13 13
31 30 29 29 29 28 30 30 29 32 34 34 32 30 29 30 29 27 26 25 24 23 23 22 21 20 20 19 18 17 17 17 16 17 17 17 17 15 14 14 14 14
29 28 27 28 29 28 29 30 28 28 32 34 33 31 30 31 30 29 27 26 25 25 24 24 23 22 22 21 21 20 19 18 17 18 18 18 19 18 17 16 16 15
28 28 27 29 31 30 29 29 27 27 30 33 34 32 32 32 31 31 30 29 28 26 26 26 25 24 24 23 23 22 22 21 20 20 20 20 20 20 20 19 19 18
28 29 29 30 32 33 30 27 27 28 29 32 34 34 33 32 32 33 33 32 31 29 28 28 28 27 27 26 25 24 24 24 23 22 22 22 22 22 21 20 20 19
30 29 30 32 34 36 34 30 28 28 29 31 34 34 34 33 33 34 35 34 33 32 31 30 30 30 29 29 28 27 26 26 25 25 24 24 25 24 23 22 21 20
33 30 29 33 35 36 36 34 31 30 31 33 34 35 35 34 34 34 34 36 36 35 34 33 32 32 32 32 31 29 29 27 27 27 26 26 26 26 25 24 24 22
37 35 32 32 35 37 37 37 35 32 31 33 36 36 35 35 35 35 34 34 36 37 37 35 35 36 36 35 34 33 31 29 28 29 28 28 28 27 26 25 26 25
37 36 34 34 36 38 37 37 36 33 32 34 36 36 36 36 36 35 33 31 31 34 36 37 38 40 40 39 38 36 34 32 31 31 31 30 29 28 27 26 26 26
35 33 33 36 37 37 37 37 36 33 33 35 36 36 37 36 34 35 35 32 28 28 31 34 39 42 42 41 41 39 37 35 32 29 28 28 28 27 27 27 25 24
35 32 33 35 36 37 37 36 34 33 33 34 34 34 34 36 36 35 36 35 31 29 30 31 35 40 42 42 41 41 39 37 34 29 25 25 26 26 26 26 27 26
34 33 34 35 37 37 35 33 32 34 33 31 29 29 31 36 37 34 36 39 37 35 35 33 33 36 40 41 41 41 39 37 35 32 27 25 26 26 25 26 28 29
32 34 34 35 36 34 33 32 32 33 33 29 26 26 30 36 36 32 33 38 39 37 36 34 35 37 38 39 40 40 38 37 36 34 30 27 26 27 27 28 30 30
29 31 32 33 31 30 30 30 31 34 35 33 28 26 26 30 33 31 32 35 36 35 33 32 35 38 38 39 40 38 37 35 35 36 34 30 27 28 29 31 33 32
28 31 31 29 27 26 28 30 31 34 35 33 30 27 26 27 29 31 33 34 33 33 33 35 38 40 39 39 39 37 36 35 35 36 36 34 32 31 31 32 34 34
26 32 32 30 27 26 28 30 30 31 31 30 30 29 28 28 28 29 31 32 32 32 34 37 39 41 41 40 39 38 36 36 36 36 35 34 34 34 33 33 34 35
18 26 30 30 29 30 30 29 28 28 28 28 28 29 28 28 27 26 27 30 32 33 34 36 36 36 38 39 39 38 37 37 37 35 33 32 32 32 32 33 35 35
11 17 23 26 28 29 29 27 27 27 27 26 26 27 27 27 26 26 27 28 29 30 32 33 34 34 34 36 38 37 36 37 37 35 33 32 31 29 28 29 31 33

ECMWFNIL_925_spd_102.txt.gz
Wind_Speed
18 18 17 16 15 14 13 13 12 12 11 10 10 9 9 9 8 9 9 8 9 8 8 8 8 8 6 6 6 6 5 5 5 5 6 6 6 6 5 4 4 3
19 19 18 17 16 15 15 14 12 12 12 11 10 9 9 10 9 9 9 9 9 9 9 9 9 8 7 6 6 6 5 6 5 5 5 6 6 6 6 6 6 4
20 20 19 19 18 17 16 15 13 13 12 12 12 11 10 10 10 10 10 9 9 9 9 9 9 9 9 8 7 7 6 6 6 5 5 6 5 5 6 6 6 6
22 22 21 21 19 18 17 16 15 14 14 13 13 12 11 10 10 10 10 10 10 10 10 10 10 10 10 9 9 8 7 7 7 6 5 5 5 5 6 5 6 6
23 23 22 21 20 19 17 18 17 16 15 14 13 13 12 12 11 11 11 11 11 11 11 11 11 11 11 10 10 9 8 8 8 8 7 6 6 6 6 5 5 6
22 23 23 22 20 19 19 19 18 17 16 15 14 14 13 13 14 13 12 12 12 11 11 12 12 12 11 11 11 10 9 9 9 9 9 8 7 6 6 5 6 6
22 22 23 22 21 20 20 19 18 17 17 15 15 15 15 15 15 14 14 13 13 12 12 12 12 12 12 11 11 11 10 10 9 9 10 9 8 8 7 6 6 7
22 22 22 22 22 21 21 20 19 18 17 16 16 16 16 16 16 15 15 15 14 14 13 13 12 12 12 12 12 12 11 11 10 10 11 10 10 10 9 8 8 8
22 22 22 22 22 22 22 21 20 19 19 19 18 17 17 17 17 16 15 15 15 14 14 14 13 13 13 12 12 12 12 12 11 11 11 11 11 11 11 10 9 9
23 22 22 23 23 23 22 22 21 20 20 20 20 19 18 17 17 17 16 16 16 15 15 15 14 14 14 13 13 13 12 12 11 11 11 11 11 11 11 11 11 11
23 23 23 23 23 23 23 23 22 21 20 20 21 20 19 18 17 18 18 18 18 17 17 17 16 15 15 14 14 13 13 12 12 11 11 11 11 11 11 11 12 12
23 23 23 23 23 23 23 22 22 21 21 20 20 20 20 19 18 18 19 20 20 19 18 18 17 17 16 16 15 14 13 13 12 12 12 12 11 11 11 12 12 12
22 23 23 23 23 23 23 22 22 22 22 21 20 20 21 21 20 19 19 20 21 21 20 19 18 18 18 18 17 16 15 14 14 13 12 12 12 12 12 12 12 12
22 22 22 22 23 23 23 22 22 22 22 21 20 20 21 21 21 20 20 20 21 22 21 20 20 19 19 19 19 18 17 16 15 15 14 14 13 13 12 12 12 13
22 21 21 22 22 22 22 23 22 22 22 22 21 21 21 21 22 21 21 20 20 20 21 21 20 20 20 21 21 20 19 18 17 16 16 16 15 15 14 14 14 14
20 20 20 21 21 22 22 23 23 22 21 22 22 22 21 21 21 22 22 21 20 20 21 21 21 21 23 25 25 23 20 19 18 18 17 17 17 16 16 16 16 16
19 19 20 21 21 22 22 22 22 22 21 21 21 21 21 21 21 22 23 22 22 21 21 21 22 22 25 28 30 28 24 20 18 18 18 18 18 18 18 18 18 18
19 19 20 21 21 21 21 21 21 21 21 21 21 21 21 21 21 22 23 23 23 22 22 23 23 24 27 30 31 32 30 25 21 18 18 18 18 19 19 19 19 18
20 20 20 21 22 22 21 20 20 21 22 22 22 22 20 21 22 22 23 23 23 23 24 24 24 24 27 31 32 33 34 31 27 23 20 20 19 19 19 19 19 19
19 20 21 21 21 21 21 21 21 22 23 23 22 21 21 22 23 23 23 23 24 25 25 25 25 25 27 30 33 33 34 34 32 27 24 23 22 21 21 20 20 19
20 21 21 21 21 20 21 22 23 22 23 23 22 21 22 23 24 23 24 24 25 25 25 26 27 28 29 31 33 33 33 33 33 30 26 24 24 24 24 23 22 21
18 22 23 22 21 21 21 23 24 24 24 23 22 22 22 22 22 23 24 25 26 26 25 26 27 28 31 33 34 34 33 31 32 31 27 25 25 25 25 24 24 24
13 18 22 23 22 22 23 24 24 25 25 23 23 23 23 22 22 22 23 24 25 25 25 26 27 28 31 33 34 34 33 32 32 29 26 26 26 26 26 25 26 26
14 14 18 23 24 24 24 25 25 24 24 23 23 23 24 24 23 22 21 22 23 24 25 26 26 27 29 32 33 33 33 34 31 26 24 25 25 25 26 26 27 29
15 16 16 19 24 26 26 25 24 24 22 22 22 22 23 23 23 22 22 21 22 23 25 26 26 26 27 30 32 32 33 34 30 24 23 24 24 24 26 26 27 30
13 16 16 16 18 23 27 26 24 23 22 21 21 21 21 21 22 22 22 23 22 22 23 25 25 26 26 29 31 31 32 34 30 25 24 25 24 24 24 24 25 26

ECMWFNIL_925_spd_105.txt.gz
Wind_Speed
17 16 15 14 13 12 12 12 11 11 10 10 9 9 9 8 8 8 8 8 8 8 7 7 6 5 5 4 5 4 4 5 5 6 7 7 7 6 5 5 4 3
18 17 16 15 14 14 13 12 12 12 12 11 9 9 9 10 9 9 8 8 8 8 8 7 7 7 6 5 6 6 5 5 5 6 7 7 6 6 6 6 5 5
19 18 17 16 16 15 15 13 12 12 12 12 11 10 10 11 11 10 9 9 8 8 8 8 8 8 7 6 6 6 6 6 6 6 6 6 7 6 6 7 7 7
21 20 19 18 17 16 15 15 14 13 13 13 12 12 11 10 11 11 10 10 9 9 8 9 8 8 8 8 7 7 7 7 7 6 6 7 7 6 6 6 7 6
23 22 20 19 17 16 16 16 16 15 14 14 13 13 12 11 12 12 11 11 10 10 9 10 9 9 9 9 9 8 7 7 8 7 7 7 6 7 7 6 6 6
23 22 21 20 18 17 17 17 17 16 15 15 14 14 14 13 13 12 12 12 11 11 11 11 11 11 11 10 10 9 8 8 8 8 8 7 7 7 7 6 6 7
22 22 22 21 20 19 18 17 17 17 16 15 15 15 15 15 15 14 13 13 12 12 12 12 12 12 11 11 11 10 10 9 9 9 9 9 8 9 7 6 6 7
21 22 21 21 21 20 20 19 18 18 17 16 16 16 16 16 16 16 15 14 13 12 12 12 12 12 12 12 12 11 11 11 10 10 10 9 9 9 9 8 8 8
21 20 21 21 21 21 21 20 19 18 18 18 18 17 17 17 16 17 16 16 15 14 13 13 13 13 13 13 12 12 12 12 11 11 11 11 10 10 10 10 9 10
21 21 20 21 21 20 21 21 21 20 19 19 19 18 18 18 17 17 17 17 16 16 16 15 14 14 14 13 13 13 13 13 12 11 11 11 11 11 11 11 11 11
22 21 21 21 21 20 20 21 21 21 21 20 20 19 19 19 18 18 18 18 18 18 18 17 17 16 15 15 15 14 14 14 13 13 12 12 12 12 12 12 12 12
21 21 21 22 21 20 20 20 20 21 21 21 21 20 20 20 20 19 19 20 20 19 19 19 19 18 17 16 16 16 15 15 14 14 13 13 12 12 12 13 13 13
20 21 21 21 21 21 20 20 20 20 21 21 21 21 21 21 21 21 21 21 22 21 21 21 21 20 19 18 17 17 17 16 16 15 14 14 13 13 13 14 14 14
19 19 20 20 21 22 21 21 20 20 21 21 21 22 22 22 22 22 21 21 22 23 22 21 22 21 21 20 19 19 18 17 17 16 16 15 15 15 15 14 14 14
16 17 18 19 20 21 22 22 21 21 21 21 21 22 22 22 22 22 22 22 22 23 23 22 22 22 22 22 21 21 20 20 18 18 18 17 16 16 16 16 16 16
15 15 16 17 19 20 21 21 22 22 22 22 22 22 21 21 22 22 23 23 23 23 23 23 23 23 24 25 25 23 22 22 21 20 19 19 18 18 18 18 17 17
13 14 15 16 17 19 20 20 21 22 22 23 23 23 22 21 22 22 23 23 23 23 23 23 24 24 26 28 29 28 25 23 22 22 21 21 20 20 20 20 19 19
14 14 15 16 16 17 19 19 19 19 20 22 23 23 23 23 22 22 23 23 23 23 24 24 24 25 27 30 31 32 31 27 23 23 22 22 22 22 22 21 21 21
14 15 15 16 17 18 18 19 19 19 20 22 23 23 23 23 23 23 23 23 24 24 24 24 24 25 27 30 32 33 34 32 28 24 24 24 23 23 23 23 22 22
11 15 16 17 18 19 19 19 20 20 21 22 23 23 24 24 24 24 24 24 25 25 25 25 24 25 27 30 33 33 34 35 33 28 26 26 25 24 24 23 23 23
9 12 14 16 18 19 20 21 22 22 22 23 23 24 24 24 25 25 25 25 25 25 25 26 27 26 27 29 31 33 34 34 34 31 27 27 27 27 27 26 24 23
11 11 11 12 15 19 21 23 24 24 23 23 22 23 24 24 24 24 25 25 26 26 26 27 28 29 30 30 31 32 32 33 35 34 29 27 27 28 29 30 28 27
15 14 13 12 13 17 22 25 26 26 25 23 22 21 23 24 24 23 23 24 25 26 26 27 27 29 31 34 34 34 33 34 36 34 29 27 27 27 27 28 28 29
16 15 15 14 14 15 19 21 21 22 21 21 21 21 21 22 23 23 23 23 24 25 26 27 26 28 31 34 36 37 36 37 37 32 27 25 26 26 26 26 28 30
16 16 16 16 17 16 15 15 18 20 18 15 15 17 18 18 20 21 22 23 24 24 26 27 26 27 29 32 35 37 37 38 38 32 26 25 25 24 24 25 26 29
16 17 17 17 17 17 14 12 15 19 18 16 15 16 17 17 17 19 22 24 25 25 26 27 27 27 29 31 34 36 37 39 38 31 26 25 24 23 23 23 24 26

ECMWFNIL_925_spd_108.txt.gz
Wind_Speed
20 19 18 17 16 15 15 15 13 13 13 13 13 13 13 14 14 14 13 12 12 11 11 10 10 9 9 9 9 8 7 8 7 8 8 7 7 5 4 5 3 3
21 21 19 18 17 17 16 16 15 14 13 13 13 13 13 13 14 15 14 14 13 11 11 10 10 10 9 9 9 8 8 8 7 7 8 8 7 6 6 5 5 5
22 22 21 19 18 18 17 17 16 16 15 13 12 13 14 13 14 15 14 14 13 12 12 11 10 10 10 9 9 9 8 8 8 7 8 8 8 7 7 6 7 7
23 22 22 20 19 20 19 18 18 17 16 15 14 13 14 14 15 15 14 14 13 13 12 12 11 11 11 10 9 9 8 8 8 8 8 8 8 8 7 7 7 8
24 23 22 21 20 21 21 19 19 18 17 17 16 15 14 15 16 16 15 15 14 13 13 13 12 12 11 11 10 9 9 9 9 9 9 8 9 8 8 8 8 7
24 24 23 22 21 22 22 21 20 20 19 18 18 17 16 15 16 16 16 15 15 14 13 13 13 12 12 12 11 10 10 10 10 11 10 9 9 9 8 8 8 7
24 24 23 22 21 22 22 22 22 21 20 20 20 19 19 17 17 17 17 16 15 15 14 14 14 13 13 13 12 12 11 10 11 12 12 11 10 10 9 9 9 9
22 23 23 22 21 22 22 22 23 23 22 21 21 21 21 20 19 18 17 17 16 16 15 15 15 15 14 13 13 13 12 11 12 13 13 12 11 11 11 10 9 9
22 22 23 23 22 23 23 22 22 23 23 23 22 22 22 22 22 21 20 19 17 17 17 16 16 16 15 15 14 14 14 13 13 14 14 13 12 12 12 11 10 10
23 23 22 24 24 24 24 24 23 23 24 24 22 21 22 23 23 22 22 22 20 19 19 18 17 17 17 16 16 15 15 15 14 14 14 13 13 13 12 12 12 12
20 23 24 24 25 25 25 25 24 24 24 24 24 23 23 23 24 23 24 25 23 21 21 21 20 19 18 17 17 16 16 16 15 14 14 14 14 13 13 14 14 14
21 22 24 26 26 25 26 27 26 25 25 25 25 24 23 24 25 24 24 26 26 24 23 24 23 21 21 20 18 18 17 17 16 16 15 15 15 14 14 15 15 14
23 23 23 24 27 26 25 27 27 26 25 26 26 25 24 24 25 25 25 25 26 25 24 25 25 24 23 23 21 19 19 18 17 17 17 17 16 16 16 15 15 16
20 22 25 24 24 28 27 26 26 27 27 26 27 27 25 24 24 26 26 25 26 26 25 25 26 26 25 24 24 21 20 20 20 19 18 18 18 17 17 17 17 16
12 16 23 30 27 24 28 28 26 26 27 27 27 27 26 25 23 24 26 26 26 26 26 24 25 27 27 26 26 24 22 21 21 21 20 20 19 19 18 18 18 17
10 13 19 25 30 28 24 25 26 25 25 26 27 26 25 26 25 23 24 27 27 27 27 26 25 25 27 28 28 27 26 24 22 23 22 22 21 20 20 20 19 19
8 10 13 15 18 25 27 24 22 22 23 24 26 26 24 24 26 25 24 24 26 27 26 25 25 25 27 29 30 29 29 27 26 25 24 24 24 22 21 21 21 20
8 8 11 13 13 15 19 22 22 20 19 19 22 26 25 23 24 26 25 24 23 25 26 26 26 26 27 29 31 32 31 29 28 26 25 25 25 25 24 23 22 22
10 10 11 14 15 13 15 19 20 20 21 20 19 23 26 25 24 23 25 26 24 23 23 26 27 27 28 29 31 33 33 32 29 27 26 26 26 26 26 26 25 25
15 14 13 14 15 15 17 20 20 21 22 22 18 17 18 23 25 23 22 25 27 26 24 23 25 27 29 31 32 33 34 35 33 29 26 27 27 27 28 27 28 28
18 16 16 16 16 17 17 17 17 18 19 18 16 17 15 13 16 21 23 23 25 28 27 25 24 24 27 31 34 35 35 36 36 34 29 27 27 28 28 28 28 28
20 19 18 18 19 19 18 16 16 16 16 15 15 16 17 17 16 17 22 24 25 26 27 28 28 27 27 29 32 35 36 36 37 37 34 31 29 29 29 29 29 28
18 19 20 19 19 19 18 15 14 14 13 14 15 17 19 21 20 19 21 23 26 27 28 28 29 30 30 30 30 32 35 38 39 39 37 35 33 32 31 30 30 30
17 17 18 19 18 18 15 12 13 16 16 16 15 15 19 25 28 27 24 22 23 25 27 28 28 29 30 32 33 33 34 37 39 38 36 35 35 34 34 33 33 33
17 17 17 17 17 17 16 14 15 17 17 18 19 20 21 23 24 26 26 23 22 23 25 27 28 27 28 30 32 33 33 35 38 37 34 33 33 32 32 33 34 34
16 16 17 16 15 14 16 17 17 17 17 18 21 23 24 23 21 22 25 26 26 24 24 26 29 29 28 28 30 32 33 34 35 34 32 32 31 30 29 30 31 33

ECMWFNIL_925_spd_111.txt.gz
Wind_Speed
20 21 20 19 20 19 20 19 18 19 20 19 20 20 19 17 18 18 17 17 16 15 15 15 14 13 13 13 14 14 13 12 11 11 10 11 11 9 5 5 7 5
21 21 20 19 19 18 19 19 18 18 18 18 18 18 18 17 18 19 18 17 16 15 16 16 14 14 14 14 13 13 13 12 11 11 11 11 10 9 7 6 6 5
23 22 21 20 20 19 19 19 18 17 17 17 16 16 17 16 17 19 18 17 17 16 16 16 15 14 14 14 14 14 14 14 13 11 11 12 10 10 9 7 7 7
25 24 23 22 21 20 19 18 18 17 17 17 16 15 16 15 16 18 17 16 17 16 16 16 15 15 14 13 13 14 14 14 14 12 11 12 11 11 10 8 8 9
25 25 25 23 21 20 19 19 19 18 17 17 16 15 16 16 16 17 18 17 16 16 16 15 15 14 15 14 13 13 14 13 13 12 12 12 12 12 11 10 9 9
26 25 25 24 22 21 21 20 19 19 18 18 17 15 15 16 17 18 18 17 16 17 17 16 15 15 15 14 13 13 12 12 12 12 12 12 11 12 12 10 10 9
27 26 24 24 23 22 22 21 20 19 18 18 18 18 17 16 17 20 19 17 17 17 17 16 16 15 15 15 14 13 13 12 12 12 12 12 11 11 11 11 10 10
27 27 25 24 23 22 22 22 22 21 20 19 19 19 19 17 18 20 20 19 19 19 18 17 17 16 16 16 15 15 15 13 12 13 13 13 12 11 12 12 11 11
26 27 26 24 24 22 21 22 23 22 21 20 20 20 20 20 19 20 20 19 20 20 20 20 19 18 17 17 16 15 16 15 14 14 13 13 14 13 13 13 12 11
25 26 26 25 24 23 22 22 23 23 22 22 22 21 22 22 22 21 21 21 20 20 21 21 22 21 19 18 18 17 16 16 15 15 14 14 15 15 14 13 12 12
23 23 25 25 26 24 23 23 22 23 23 23 23 23 22 23 24 24 22 23 23 22 22 22 22 23 22 21 20 19 18 17 16 16 16 15 16 16 15 14 13 13
19 18 18 21 24 25 23 23 23 23 23 24 24 24 23 23 24 26 25 24 25 24 24 24 23 23 23 23 22 21 20 18 17 17 17 17 17 16 14 14 15 15
15 17 15 14 18 21 21 19 19 21 22 25 26 25 24 24 24 26 27 26 27 26 26 25 25 24 23 23 23 22 22 21 20 19 18 18 18 17 16 16 17 17
10 14 15 13 12 15 17 16 14 14 15 18 25 28 26 24 24 26 28 28 28 28 28 27 27 27 25 24 24 23 23 23 22 21 21 20 21 21 20 19 19 19
8 9 13 14 12 11 14 16 13 12 10 9 14 25 30 27 25 25 27 29 29 29 30 30 29 29 29 28 27 26 25 25 24 24 23 23 23 22 22 21 21 20
5 3 6 9 11 11 12 13 13 15 14 10 10 13 22 29 29 26 26 29 31 30 30 31 31 30 30 30 30 29 28 27 26 25 25 25 24 24 23 23 22 22
12 9 6 3 4 7 8 9 11 13 13 11 12 13 11 18 26 29 28 28 30 32 32 31 32 32 31 31 31 32 31 30 29 27 26 26 26 26 25 25 24 23
16 15 13 11 7 3 5 6 6 6 7 10 15 16 11 11 17 24 30 30 29 30 32 33 34 33 32 32 31 32 32 32 32 30 28 27 28 28 28 27 26 26
15 16 16 15 15 10 4 3 3 3 8 13 20 23 19 15 15 16 21 27 30 31 32 33 35 35 34 33 32 32 32 33 33 33 31 30 29 29 30 30 29 28
14 16 16 15 14 14 9 4 4 5 9 13 19 22 19 17 18 16 13 16 21 26 30 33 34 35 36 35 33 32 32 33 34 34 34 33 32 31 31 31 32 32
16 14 14 14 12 12 11 8 6 6 9 11 14 16 15 15 18 19 17 15 15 17 23 29 32 31 32 35 36 34 33 33 35 36 35 35 34 34 32 32 33 34
19 16 15 14 13 11 10 10 9 8 8 9 11 13 13 13 15 18 21 21 19 16 18 23 29 30 28 29 32 35 36 36 36 38 38 36 36 35 35 34 33 34
18 17 16 14 13 11 10 10 10 11 10 9 10 13 13 13 14 16 19 23 24 22 20 19 22 26 27 26 26 29 35 39 40 39 39 39 38 37 36 35 34 34
14 14 13 12 13 13 13 12 12 12 12 11 12 13 14 14 14 15 18 21 23 25 24 19 15 16 21 24 25 24 28 35 40 41 40 40 40 39 39 38 37 36
13 13 14 13 13 14 15 15 15 14 14 14 14 14 14 14 14 16 17 19 20 22 22 18 17 20 25 29 30 28 27 28 33 38 40 40 39 39 39 39 40 39
13 14 16 15 15 15 15 16 16 16 16 16 16 15 15 14 15 15 17 18 19 20 19 19 24 30 32 30 28 28 29 28 28 32 36 38 39 38 38 38 39 40

ECMWFNIL_925_spd_114.txt.gz
Wind_Speed
22 21 21 22 20 19 20 22 22 21 19 19 18 18 18 16 14 13 13 13 13 13 12 12 11 11 11 12 12 12 12 13 12 12 12 12 11 10 9 8 6 7
23 20 21 23 22 20 21 22 23 22 21 20 19 18 17 15 14 14 13 13 14 13 12 12 12 12 12 12 13 13 13 13 12 11 12 12 12 12 10 8 7 7
24 20 21 23 23 22 21 22 22 22 22 21 19 18 18 16 15 15 14 13 15 15 13 13 13 13 13 12 13 13 13 13 12 11 10 10 11 12 12 10 9 8
26 22 21 22 23 22 22 22 22 21 21 22 21 20 19 18 17 17 16 16 17 17 15 15 16 15 14 14 14 13 13 13 13 11 11 11 11 12 12 11 10 9
27 24 22 22 22 21 21 22 22 22 21 22 21 21 20 20 20 19 19 19 20 19 18 17 17 17 16 16 16 15 15 15 15 14 13 12 12 12 12 12 12 11
27 25 24 23 22 22 22 22 22 22 22 22 21 21 21 21 21 20 20 21 21 20 19 19 18 18 17 17 17 16 16 16 16 15 15 14 13 13 13 13 13 13
26 26 25 24 24 23 23 23 22 22 23 22 21 21 21 22 22 21 21 21 21 20 20 20 18 17 17 17 18 17 16 15 15 14 15 15 14 13 14 13 13 14
25 26 25 25 25 25 24 24 23 23 22 23 23 22 22 22 23 23 22 22 22 22 20 20 19 18 16 17 18 18 16 15 15 14 14 15 15 15 15 13 13 14
25 25 26 26 26 26 26 25 24 24 23 23 24 23 23 23 23 23 23 23 23 23 21 20 20 19 18 18 18 18 17 17 17 16 15 15 16 16 16 14 14 15
25 25 26 26 26 26 26 26 26 25 25 24 24 24 24 24 24 23 23 24 25 24 22 21 21 20 19 19 19 19 19 18 18 18 17 16 16 16 16 15 15 16
23 23 23 23 25 26 26 26 26 26 27 27 26 26 25 25 26 25 23 25 27 25 23 23 23 23 22 21 21 20 19 19 18 19 18 18 17 16 16 16 16 16
21 20 21 21 20 21 24 26 26 25 26 29 28 27 27 26 27 27 26 25 27 26 25 23 23 23 24 23 23 22 21 20 19 20 19 19 18 17 17 17 17 17
20 19 21 22 19 16 16 20 24 25 25 28 30 29 28 28 27 28 27 27 27 27 26 25 23 23 24 24 24 24 23 22 21 21 21 20 20 19 19 18 18 18
20 20 19 20 20 19 16 13 16 22 24 25 29 31 30 30 29 29 29 29 29 29 28 27 25 24 25 25 25 25 25 25 24 23 23 23 22 22 21 20 19 19
15 17 17 17 18 19 18 13 11 15 19 21 24 28 31 31 30 30 30 31 31 31 31 29 28 28 27 27 26 26 26 27 27 26 25 25 24 23 23 23 22 21
8 10 12 15 16 16 17 18 16 17 19 19 19 21 25 29 30 29 30 31 33 33 33 32 32 31 29 28 28 28 28 28 28 28 27 26 26 26 26 25 25 24
9 8 8 10 14 16 16 19 22 25 25 21 18 16 17 21 25 28 29 29 31 33 35 35 34 34 32 31 30 30 30 30 30 30 29 28 28 28 28 28 27 27
12 11 10 8 8 12 15 18 22 25 24 21 19 17 16 16 19 25 29 29 28 29 32 35 36 35 34 33 32 31 31 31 31 31 31 31 30 30 30 30 29 29
11 12 11 9 8 7 9 13 17 17 16 14 14 15 16 17 17 20 25 29 29 28 29 32 35 36 36 34 33 32 32 32 33 32 31 31 31 31 31 31 30 30
11 10 10 9 8 7 5 4 6 7 7 8 9 11 13 15 17 18 21 24 25 25 25 27 31 35 36 36 35 33 32 32 33 32 32 32 31 32 32 32 32 32
13 11 9 9 9 8 7 6 4 2 1 3 6 8 10 12 13 16 18 19 19 18 18 19 24 29 33 35 36 35 33 33 33 33 32 33 33 33 33 33 33 33
15 13 10 9 9 10 10 9 9 9 7 4 4 6 8 10 11 12 14 16 16 16 16 16 18 20 24 29 33 34 34 34 34 34 34 34 34 34 35 34 34 34
14 15 13 12 11 11 12 12 11 11 11 9 7 6 7 9 10 11 11 12 13 14 17 19 19 17 16 18 23 29 33 35 36 36 36 36 36 36 36 36 36 36
13 14 14 14 14 12 12 13 14 13 12 10 9 8 8 8 9 10 10 11 11 13 15 19 20 17 14 14 16 21 27 32 36 38 37 37 37 37 38 38 38 38
13 15 14 13 15 14 11 14 16 14 11 10 10 10 9 9 10 11 11 10 10 12 14 17 17 15 15 16 17 17 20 23 26 30 33 35 35 36 36 37 38 39
14 16 15 14 15 13 11 14 16 13 12 12 11 11 11 11 12 13 13 12 11 11 13 15 15 15 15 16 16 17 17 18 19 21 24 27 30 31 33 34 35 37

ECMWFNIL_925_spd_117.txt.gz
Wind_Speed
18 18 18 17 16 16 15 15 15 15 14 14 15 15 14 13 12 12 12 11 11 11 11 11 11 11 11 10 9 10 11 11 9 10 10 10 9 9 9 7 6 6
19 18 18 17 16 16 15 15 15 15 15 15 14 14 14 13 13 12 12 11 11 12 11 11 11 11 10 10 10 11 12 11 10 9 10 10 10 10 10 9 7 7
21 19 19 18 17 17 16 15 14 15 16 15 15 14 14 14 13 13 12 11 12 12 12 12 11 11 11 11 11 11 12 11 11 10 10 10 9 9 10 9 9 9
24 22 21 19 18 17 17 17 15 15 16 16 15 15 14 14 14 13 12 12 13 13 13 13 12 11 11 12 12 12 12 12 11 10 10 10 9 9 9 9 10 10
25 25 23 21 18 17 19 19 18 16 17 17 16 15 15 14 14 14 13 13 13 14 14 14 13 12 12 13 13 13 12 12 11 11 12 12 11 10 10 10 11 12
25 26 25 23 19 17 20 21 20 18 17 17 17 16 15 15 15 15 15 15 15 14 15 15 15 14 13 14 14 14 14 14 13 13 14 14 13 13 12 11 12 13
25 25 26 25 21 19 20 21 21 20 19 18 17 17 16 16 17 16 16 16 16 16 16 16 17 17 16 16 16 16 16 16 16 15 16 16 16 15 15 14 13 14
25 25 26 25 23 21 21 21 21 21 20 18 18 18 17 18 18 17 17 17 18 18 18 19 19 19 18 17 17 17 17 17 17 16 17 17 17 17 16 16 15 15
24 24 25 25 25 23 22 22 22 21 21 20 20 19 19 19 18 18 18 19 19 19 19 20 20 20 19 19 18 17 17 18 18 17 17 17 17 17 17 16 16 17
24 24 25 26 26 25 25 24 23 22 22 21 21 20 20 20 20 19 19 20 21 21 20 20 21 21 21 20 20 19 18 18 18 18 18 17 18 18 17 16 17 17
21 22 24 26 26 27 26 26 25 24 24 23 23 22 22 21 21 22 21 21 22 22 22 22 22 22 22 22 21 21 20 19 19 19 19 19 19 19 18 18 17 18
17 19 21 24 26 27 27 27 27 26 26 25 25 24 23 23 23 23 23 23 23 23 23 23 23 23 23 23 23 22 22 21 20 20 19 19 19 19 19 19 19 19
23 22 21 22 24 26 27 28 28 28 27 25 25 25 25 25 25 24 24 24 24 25 25 24 23 24 25 24 24 24 24 24 23 23 21 20 20 19 19 19 19 19
24 26 25 23 22 24 27 28 28 28 27 25 24 24 25 25 26 26 26 25 25 26 26 26 25 25 26 26 25 25 25 26 27 26 26 24 23 21 20 19 19 20
20 23 24 22 21 22 25 27 27 26 25 25 24 23 24 24 25 27 27 27 27 27 28 28 28 27 27 27 27 26 26 26 27 28 28 28 27 25 24 22 22 22
14 16 18 19 21 23 24 25 25 24 23 23 22 22 22 22 23 26 27 28 28 28 29 29 30 30 29 29 28 27 27 27 28 29 29 29 29 28 27 26 25 24
6 8 12 15 18 21 22 22 22 22 22 20 19 19 19 18 20 22 25 28 29 29 29 30 31 32 31 31 30 29 29 29 29 30 30 30 30 30 30 30 28 27
4 2 4 8 11 14 17 18 18 19 20 19 18 17 16 15 16 18 20 23 26 28 30 30 31 32 32 31 31 31 31 31 32 32 32 32 32 32 32 32 31 30
11 8 5 3 1 3 6 9 11 12 13 14 15 16 16 16 16 16 16 18 20 23 26 28 30 31 31 31 31 32 32 33 33 34 33 34 33 33 33 33 33 32
13 13 10 8 7 7 5 2 2 4 6 8 9 11 13 15 16 16 16 16 17 19 21 23 24 26 27 28 29 31 32 33 35 35 35 34 34 34 34 34 33 33
12 13 12 9 8 9 9 8 7 3 1 3 5 5 7 9 12 14 16 16 16 16 17 18 19 19 21 23 26 28 29 31 34 35 35 35 35 35 35 35 35 34
13 14 13 11 9 10 12 11 9 7 5 4 2 2 4 6 8 11 13 14 14 13 13 14 16 16 18 20 22 24 26 28 32 34 35 36 36 37 37 36 36 35
15 14 15 14 12 11 13 12 10 7 5 6 6 6 5 5 7 10 11 10 10 10 10 11 13 15 16 17 18 18 20 24 28 32 34 36 36 37 37 36 36 36
17 16 15 14 10 8 10 13 11 9 6 6 7 7 7 5 6 10 10 8 6 5 6 7 9 11 12 13 14 15 16 18 21 25 29 33 36 37 36 36 36 36
16 15 15 13 10 9 11 13 13 10 8 6 6 7 7 7 7 8 9 8 6 4 4 4 6 7 8 9 11 12 14 15 16 18 21 26 29 32 34 34 36 37
13 14 14 14 12 10 11 12 13 12 11 10 10 10 9 10 9 10 10 10 8 7 6 5 6 7 7 8 10 11 12 13 14 15 18 20 22 24 27 28 30 31

ECMWFNIL_925_spd_120.txt.gz
Wind_Speed
14 13 14 14 12 11 11 13 13 13 13 13 13 13 13 12 11 11 10 9 9 8 8 8 8 9 9 9 9 9 8 8 7 6 7 7 8 7 7 7 6 4
14 13 14 13 12 11 11 11 12 12 12 12 12 12 12 11 11 11 10 9 9 9 9 8 9 10 10 10 10 9 9 9 8 7 8 8 8 8 8 8 7 7
15 14 14 14 13 12 11 11 11 11 11 11 11 11 11 11 10 10 10 9 9 9 9 9 10 10 11 11 10 10 10 10 9 8 8 8 8 8 8 7 8 8
16 16 15 13 13 13 12 11 10 11 10 10 10 10 10 10 10 10 10 10 10 10 10 10 11 11 10 10 11 11 11 11 10 10 10 9 9 9 8 7 8 8
18 17 16 15 14 14 13 12 11 11 10 9 8 9 10 10 10 10 10 10 11 10 10 11 12 11 10 10 11 12 12 11 11 11 11 11 10 10 9 9 8 8
20 19 18 17 16 16 15 13 12 11 11 10 9 9 10 10 11 11 10 10 10 10 11 12 13 12 12 11 12 12 13 13 13 12 12 12 12 11 11 10 10 10
22 21 20 19 19 18 18 15 13 12 12 12 11 10 10 11 11 11 11 11 11 11 11 12 13 13 13 13 13 13 14 14 14 14 14 14 14 14 13 12 12 12
23 22 21 20 20 20 20 18 15 13 12 13 13 12 11 12 12 12 12 12 12 12 12 13 13 13 13 14 14 15 15 15 15 16 17 17 17 17 16 15 15 15
22 21 21 21 20 21 22 20 17 14 13 13 14 13 13 13 13 13 13 13 13 13 14 14 15 15 15 15 15 15 15 16 16 16 17 18 18 18 18 17 16 16
21 21 20 20 20 21 22 22 19 16 14 14 14 14 14 13 13 14 14 15 15 15 14 15 16 16 15 15 15 15 16 16 16 16 17 17 18 18 18 17 17 16
21 22 21 20 20 20 21 22 21 19 17 16 15 15 15 14 15 15 16 17 17 17 16 16 16 16 16 16 16 16 16 16 16 16 16 17 18 18 18 18 18 18
21 22 22 22 21 20 20 20 21 20 20 18 18 17 17 17 17 17 18 18 19 19 19 18 17 17 17 17 17 17 17 17 17 17 17 17 17 18 18 19 19 19
19 20 21 21 21 20 20 20 20 20 21 20 20 19 19 19 20 20 19 19 19 20 20 20 19 19 19 19 18 18 18 19 18 18 19 19 19 19 19 19 20 20
18 19 19 19 18 17 18 19 19 20 20 21 21 21 21 21 21 21 21 20 20 20 21 21 21 22 22 22 21 20 20 20 20 20 20 20 20 20 20 20 21 21
15 16 17 17 16 14 13 15 16 18 19 20 20 20 20 21 21 21 22 22 21 21 21 22 23 24 24 23 23 22 22 22 21 21 21 21 22 22 21 22 22 22
11 12 13 14 15 15 13 12 13 14 16 17 18 18 18 19 19 20 21 23 23 22 21 22 23 24 25 24 24 24 24 23 23 23 23 23 24 24 24 24 23 23
5 6 6 8 10 12 13 13 12 12 13 14 15 16 16 16 16 17 19 20 22 23 23 23 23 24 24 25 26 25 25 25 25 26 25 25 26 26 27 27 26 25
6 6 5 3 2 6 9 10 11 11 11 11 12 13 14 14 13 13 14 16 18 21 23 24 24 23 23 25 26 26 26 27 27 28 28 27 28 28 28 28 28 28
12 12 13 11 8 5 6 8 9 10 10 10 10 11 12 13 13 13 13 13 14 16 19 21 22 23 23 24 25 25 25 26 27 28 29 29 29 29 29 29 29 29
11 11 11 10 8 6 5 5 6 7 8 8 9 9 9 10 11 13 13 14 14 15 16 17 18 19 20 21 21 22 23 24 26 27 28 29 29 29 29 30 30 30
12 12 12 10 8 7 6 5 4 3 4 5 5 5 4 4 5 6 7 9 12 14 15 16 16 16 16 17 17 18 19 20 22 25 27 28 29 29 29 30 30 30
14 14 14 14 12 11 11 9 7 4 2 1 1 0 2 3 2 2 4 7 9 11 13 13 12 12 13 14 14 14 14 15 17 19 22 25 27 28 29 29 30 30
16 15 14 14 14 13 13 11 8 5 4 2 1 2 4 5 5 4 4 7 9 10 10 10 8 7 8 9 10 12 13 14 14 14 16 18 20 22 23 25 27 28
17 17 16 15 14 14 13 11 9 8 6 5 4 5 7 7 7 8 5 2 5 6 6 6 5 4 6 6 7 10 11 13 14 14 15 15 16 16 16 17 19 21
17 17 17 16 14 14 15 15 15 14 12 11 11 11 11 11 11 11 9 4 2 4 4 4 5 4 5 5 6 8 9 10 12 13 14 14 14 14 14 13 14 15
16 17 16 16 14 13 15 17 17 17 16 16 15 14 13 13 12 10 9 6 4 6 7 8 8 7 5 5 6 7 8 9 10 11 12 12 12 13 14 14 13 12